[[{"header":{"parameterUnit":"m.s-1","parameterCategory":1,"la1":31.0,"la2":29.5877,"lo1":-88.7671,"lo2":-86.6584,"dx":0.0162,"dy":0.0185,"nx":115,"ny":88,"refTime":"2023-01-01T06:00:00:Z","depth":0,"parameterNumber":2,"parameterNumberName":"U-component_of_WINDS"},"data":[0.0,0.0,0.0,0.0,0.0,0.0,0.0,0.0,0.0,0.0,0.0,0.0,0.0,0.0,0.0,0.0,0.0,0.0,0.0,0.0,0.0,0.0,0.0,0.0,0.0,0.0,0.0,0.0,0.0,0.0,0.0,0.0,0.0,0.0,0.0,0.0,0.0,0.0,0.0,0.0,0.0,0.0,0.0,0.0,0.0,0.0,0.0,0.0,0.0,0.0,0.0,0.0,0.0,0.0,0.0,0.0,0.0,0.0,0.0,0.0,0.0,0.0,0.0,0.0,0.0,0.0,0.0,0.0,0.0,0.0,0.0,0.0,0.0,0.0,0.0,0.0,0.0,0.0,0.0,0.0,0.0,0.0,0.0,0.0,0.0,0.0,0.0,0.0,0.0,0.0,0.0,0.0,0.0,0.0,0.0,0.0,0.0,0.0,0.0,0.0,0.0,0.0,0.0,0.0,0.0,0.0,0.0,0.0,0.0,0.0,0.0,0.0,0.0,0.0,0.0,0.0,0.0,0.0,0.0,0.0,0.0,0.0,0.0,0.0,0.0,0.0,0.0,0.0,0.0,0.0,0.0,0.0,0.0,0.0,0.0,0.0,0.0,0.0,0.0,0.0,0.0,0.0,0.0,0.0,0.0,0.0,0.0,0.0,0.0,0.0,0.0,0.0,0.0,0.0,0.0,0.0,0.0,0.0,0.0,0.0,0.0,0.0,0.0,0.0,0.0,0.0,0.0,0.0,0.0,0.0,0.0,0.0,0.0,0.0,0.0,0.0,0.0,0.0,0.0,0.0,0.0,0.0,0.0,0.0,0.0,0.0,0.0,0.0,0.0,0.0,0.0,0.0,0.0,0.0,0.0,0.0,0.0,0.0,0.0,0.0,0.0,0.0,0.0,0.0,0.0,0.0,0.0,0.0,0.0,0.0,0.0,0.0,0.0,0.0,0.0,0.0,0.0,0.0,0.0,0.0,0.0,0.0,0.0,0.0,0.0,0.0,0.0,0.0,0.0,0.0,0.0,0.0,0.0,0.0,0.0,0.0,0.0,0.0,0.0,0.0,0.0,0.0,0.0,0.0,0.0,0.0,0.0,0.0,0.0,0.0,0.0,0.0,0.0,0.0,0.0,0.0,0.0,0.0,0.0,0.0,0.0,0.0,0.0,0.0,0.0,0.0,0.0,0.0,0.0,0.0,0.0,0.0,0.0,0.0,0.0,0.0,0.0,0.0,0.0,0.0,0.0,0.0,0.0,0.0,0.0,0.0,0.0,0.0,0.0,0.0,0.0,0.0,0.0,0.0,0.0,0.0,0.0,0.0,0.0,0.0,0.0,0.0,0.0,0.0,0.0,0.0,0.0,0.0,0.0,0.0,0.0,0.0,0.0,0.0,0.0,0.0,0.0,0.0,0.0,0.0,0.0,0.0,0.0,0.0,0.0,0.0,0.0,0.0,0.0,0.0,0.0,0.0,0.0,0.0,0.0,0.0,0.0,0.0,0.0,0.0,0.0,0.0,0.0,0.0,0.0,0.0,0.0,0.0,0.0,0.0,0.0,0.0,0.0,0.0,0.0,0.0,0.0,0.0,0.0,0.0,0.0,0.0,0.0,0.0,0.0,0.0,0.0,0.0,0.0,0.0,0.0,0.0,0.0,0.0,0.0,0.0,0.0,0.0,0.0,0.0,0.0,0.0,0.0,0.0,0.0,0.0,0.0,0.0,0.0,0.0,0.0,0.0,0.0,0.0,0.0,0.0,0.0,0.0,0.0,0.0,0.0,0.0,0.0,0.0,0.0,0.0,0.0,0.0,0.0,0.0,0.0,0.0,0.0,0.0,0.0,0.0,0.0,0.0,0.0,0.0,0.0,0.0,0.0,0.0,0.0,0.0,0.0,0.0,0.0,0.0,0.0,0.0,0.0,0.0,0.0,0.0,0.0,0.0,0.0,0.0,0.0,0.0,0.0,0.0,0.0,0.0,0.0,0.0,0.0,0.0,0.0,0.0,0.0,0.0,0.0,0.0,0.0,0.0,0.0,0.0,0.0,0.0,0.0,0.0,0.0,0.0,0.0,0.0,0.0,0.0,0.0,0.0,0.0,0.0,0.0,0.0,0.0,0.0,0.0,0.0,0.0,0.0,0.0,0.0,0.0,0.0,0.0,0.0,0.0,0.0,0.0,0.0,0.0,0.0,0.0,0.0,0.0,0.0,0.0,0.0,0.0,0.0,0.0,0.0,0.0,0.0,0.0,0.0,0.0,0.0,0.0,0.0,0.0,0.0,0.0,0.0,0.0,0.0,0.0,0.0,0.0,0.0,0.0,0.0,0.0,0.0,0.0,0.0,0.0,0.0,0.0,0.0,0.0,0.0,0.0,0.0,0.0,0.0,0.0,0.0,0.0,0.0,0.0,0.0,0.0,0.0,0.0,0.0,0.0,0.0,0.0,0.0,0.0,0.0,0.0,0.0,0.0,0.0,0.0,0.0,0.0,0.0,0.0,0.0,0.0,0.0,0.0,0.0,0.0,0.0,0.0,0.0,0.0,0.0,0.0,0.0,0.0,0.0,0.0,0.0,0.0,0.0,0.0,0.0,0.0,0.0,0.0,0.0,0.0,0.0,0.0,0.0,0.0,0.0,0.0,0.0,0.0,0.0,0.0,0.0,0.0,0.0,0.0,0.0,0.0,0.0,0.0,0.0,0.0,0.0,0.0,0.0,0.0,0.0,0.0,0.0,0.0,0.0,0.0,0.0,0.0,0.0,0.0,0.0,0.0,0.0,0.0,0.0,0.0,0.0,0.0,0.0,0.0,0.0,0.0,0.0,0.0,0.0,0.0,0.0,0.0,0.0,0.0,0.0,0.0,0.0,0.0,0.0,0.0,0.0,0.0,0.0,0.0,0.0,0.0,0.0,0.0,0.0,0.0,0.0,0.0,0.0,0.0,0.0,0.0,0.0,0.0,0.0,0.0,0.0,0.0,0.0,0.0,0.0,0.0,0.0,0.0,0.0,0.0,0.0,0.0,0.0,0.0,0.0,0.0,0.0,0.0,0.0,0.0,0.0,0.0,0.0,0.0,0.0,0.0,0.0,0.0,0.0,0.0,0.0,0.0,0.0,0.0,0.0,0.0,0.0,0.0,0.0,0.0,0.0,0.0,0.0,0.0,0.0,0.0,0.0,0.0,0.0,0.0,0.0,0.0,0.0,0.0,0.0,0.0,0.0,0.0,0.0,0.0,0.0,0.0,0.0,0.0,0.0,0.0,0.0,0.0,0.0,0.0,0.0,0.0,0.0,0.0,0.0,0.0,0.0,0.0,0.0,0.0,0.0,0.0,0.0,0.0,0.0,0.0,0.0,0.0,0.0,0.0,0.0,0.0,0.0,0.0,0.0,0.0,0.0,0.0,0.0,0.0,0.0,0.0,0.0,0.0,0.0,0.0,0.0,0.0,0.0,0.0,0.0,0.0,0.0,0.0,0.0,0.0,0.0,0.0,0.0,0.0,0.0,0.0,0.0,0.0,0.0,0.0,0.0,0.0,0.0,0.0,0.0,0.0,0.0,0.0,0.0,0.0,0.0,0.0,0.0,0.0,0.0,0.0,0.0,0.0,0.0,0.0,0.0,0.0,0.0,0.0,0.0,0.0,0.0,0.0,0.0,0.0,0.0,0.0,0.0,0.0,0.0,0.0,0.0,0.0,0.0,0.0,0.0,0.0,0.0,0.0,0.0,0.0,0.0,0.0,0.0,0.0,0.0,0.0,0.0,0.0,0.0,0.0,0.0,0.0,0.0,0.0,0.0,0.0,0.0,0.0,0.0,0.0,0.0,0.0,0.0,0.0,0.0,0.0,0.0,0.0,0.0,0.0,0.0,0.0,0.0,0.0,0.0,0.0,0.0,0.0,0.0,0.0,0.0,0.0,0.0,0.0,0.0,0.0,0.0,0.0,0.0,0.0,0.0,0.0,0.0,0.0,0.0,0.0,0.0,0.0,0.0,0.0,0.0,0.0,0.0,0.0,0.0,0.0,0.0,0.0,0.0,0.0,0.0,0.0,0.0,0.0,0.0,0.0,0.0,0.0,0.0,0.0,0.0,0.0,0.0,0.0,0.0,0.0,0.0,0.0,0.0,0.0,0.0,0.0,0.0,0.0,0.0,0.0,0.0,0.0,0.0,0.0,0.0,0.0,0.0,0.0,0.0,0.0,0.0,0.0,0.0,0.0,0.0,0.0,0.0,0.0,0.0,0.0,0.0,0.0,0.0,0.0,0.0,-1.0979,0.0,0.0,0.0,-1.0668,0.0,0.0,0.0,0.0,0.0,0.0,0.0,0.0,0.0,0.0,0.0,0.0,0.0,0.0,0.0,0.0,0.0,0.0,0.0,0.0,0.0,0.0,0.0,0.0,0.0,0.0,0.0,0.0,0.0,0.0,0.0,0.0,0.0,0.0,0.0,0.0,0.0,0.0,0.0,0.0,0.0,0.0,0.0,0.0,0.0,0.0,0.0,0.0,0.0,0.0,0.0,0.0,0.0,0.0,0.0,0.0,0.0,0.0,0.0,0.0,0.0,0.0,0.0,0.0,0.0,0.0,0.0,0.0,0.0,0.0,0.0,0.0,0.0,0.0,0.0,0.0,0.0,0.0,0.0,0.0,0.0,0.0,0.0,0.0,0.0,0.0,0.0,0.0,0.0,0.0,0.0,0.0,0.0,0.0,0.0,0.0,0.0,0.0,0.0,0.0,0.0,0.0,0.0,0.0,0.0,0.0,0.0,0.0,0.0,0.0,-1.0932,-1.0897,-1.0801,-1.0741,-1.073,0.0,0.0,0.0,0.0,0.0,0.0,0.0,0.0,0.0,0.0,0.0,0.0,0.0,0.0,0.0,0.0,0.0,0.0,0.0,0.0,0.0,0.0,0.0,0.0,0.0,0.0,0.0,0.0,0.0,0.0,0.0,0.0,0.0,0.0,0.0,0.0,0.0,0.0,0.0,0.0,0.0,0.0,0.0,0.0,0.0,0.0,0.0,0.0,0.0,0.0,0.0,0.0,0.0,0.0,0.0,0.0,0.0,0.0,0.0,0.0,0.0,0.0,0.0,0.0,0.0,0.0,0.0,0.0,0.0,0.0,0.0,0.0,0.0,0.0,0.0,0.0,0.0,0.0,0.0,0.0,0.0,0.0,0.0,0.0,0.0,0.0,0.0,0.0,0.0,0.0,0.0,0.0,0.0,0.0,0.0,0.0,0.0,0.0,0.0,0.0,0.0,0.0,0.0,0.0,0.0,0.0,0.0,0.0,0.0,0.0,0.0,0.0,-1.0777,-1.0741,-1.0815,0.0,0.0,0.0,0.0,0.0,0.0,0.0,0.0,0.0,0.0,0.0,0.0,0.0,0.0,0.0,0.0,0.0,0.0,0.0,0.0,0.0,0.0,0.0,0.0,0.0,0.0,0.0,0.0,0.0,0.0,0.0,0.0,0.0,0.0,0.0,0.0,0.0,0.0,0.0,0.0,0.0,0.0,0.0,0.0,0.0,0.0,0.0,0.0,0.0,0.0,0.0,0.0,0.0,0.0,0.0,0.0,0.0,0.0,0.0,0.0,0.0,0.0,0.0,0.0,0.0,0.0,0.0,0.0,0.0,0.0,0.0,0.0,0.0,0.0,0.0,0.0,0.0,0.0,0.0,0.0,0.0,0.0,0.0,0.0,0.0,0.0,0.0,0.0,0.0,0.0,0.0,0.0,0.0,0.0,0.0,0.0,0.0,0.0,0.0,0.0,0.0,0.0,0.0,0.0,0.0,0.0,0.0,0.0,0.0,0.0,-1.1027,-1.0897,-1.0825,0.0,-1.0574,0.0,0.0,0.0,0.0,0.0,0.0,0.0,0.0,0.0,0.0,0.0,0.0,0.0,0.0,0.0,0.0,0.0,0.0,0.0,0.0,0.0,0.0,0.0,0.0,0.0,0.0,0.0,0.0,0.0,0.0,0.0,0.0,0.0,0.0,0.0,0.0,0.0,0.0,0.0,0.0,0.0,0.0,0.0,0.0,0.0,0.0,0.0,0.0,0.0,0.0,0.0,0.0,0.0,0.0,0.0,0.0,0.0,0.0,0.0,0.0,0.0,0.0,0.0,0.0,0.0,0.0,0.0,0.0,0.0,0.0,0.0,0.0,0.0,0.0,0.0,0.0,0.0,0.0,0.0,0.0,0.0,0.0,0.0,0.0,0.0,0.0,0.0,0.0,0.0,0.0,0.0,0.0,0.0,0.0,0.0,0.0,0.0,0.0,0.0,0.0,0.0,0.0,0.0,0.0,0.0,0.0,0.0,0.0,0.0,0.0,-1.1038,-1.0897,-1.0789,-1.0681,0.0,0.0,0.0,0.0,0.0,0.0,0.0,0.0,0.0,0.0,0.0,0.0,0.0,0.0,0.0,0.0,0.0,0.0,0.0,0.0,0.0,0.0,0.0,0.0,0.0,0.0,0.0,0.0,0.0,0.0,0.0,0.0,0.0,0.0,0.0,0.0,0.0,0.0,0.0,0.0,0.0,0.0,0.0,0.0,0.0,0.0,0.0,0.0,0.0,0.0,0.0,0.0,0.0,0.0,0.0,0.0,0.0,0.0,0.0,0.0,0.0,0.0,0.0,0.0,0.0,0.0,0.0,0.0,0.0,0.0,0.0,0.0,0.0,0.0,0.0,0.0,0.0,0.0,0.0,0.0,0.0,0.0,0.0,0.0,0.0,0.0,0.0,0.0,0.0,0.0,0.0,0.0,0.0,0.0,0.0,0.0,0.0,0.0,0.0,0.0,0.0,0.0,0.0,0.0,0.0,0.0,0.0,0.0,0.0,0.0,-1.1348,-1.1314,-1.1159,-1.1023,-1.0844,-1.0609,0.0,0.0,0.0,0.0,0.0,0.0,0.0,0.0,0.0,0.0,0.0,0.0,0.0,0.0,0.0,0.0,0.0,0.0,0.0,0.0,0.0,0.0,0.0,0.0,0.0,0.0,0.0,0.0,0.0,0.0,0.0,0.0,0.0,0.0,0.0,0.0,0.0,0.0,0.0,0.0,0.0,0.0,0.0,0.0,0.0,0.0,0.0,0.0,0.0,0.0,0.0,0.0,0.0,0.0,0.0,0.0,0.0,0.0,0.0,0.0,0.0,0.0,0.0,0.0,0.0,0.0,0.0,0.0,0.0,0.0,0.0,0.0,0.0,0.0,0.0,0.0,0.0,0.0,0.0,0.0,0.0,0.0,0.0,0.0,0.0,0.0,0.0,0.0,0.0,0.0,0.0,0.0,0.0,0.0,0.0,0.0,0.0,0.0,0.0,0.0,0.0,0.0,0.0,0.0,0.0,0.0,0.0,0.0,-1.1336,-1.1858,-1.2033,-1.1766,-1.1637,-1.1263,0.0,0.0,0.0,0.0,0.0,0.0,0.0,0.0,0.0,0.0,0.0,0.0,0.0,0.0,0.0,0.0,0.0,0.0,0.0,0.0,0.0,0.0,0.0,0.0,0.0,0.0,0.0,0.0,0.0,0.0,0.0,0.0,0.0,0.0,0.0,0.0,0.0,0.0,0.0,0.0,0.0,0.0,0.0,0.0,0.0,0.0,0.0,0.0,0.0,0.0,0.0,0.0,0.0,0.0,0.0,0.0,0.0,0.0,0.0,0.0,0.0,0.0,0.0,0.0,0.0,0.0,0.0,0.0,0.0,0.0,0.0,0.0,0.0,0.0,0.0,0.0,0.0,0.0,0.0,0.0,0.0,0.0,0.0,0.0,0.0,0.0,0.0,0.0,0.0,0.0,0.0,0.0,0.0,0.0,0.0,0.0,0.0,0.0,0.0,0.0,0.0,0.0,0.0,0.0,0.0,0.0,0.0,0.0,0.0,-1.1884,-1.2305,-1.2456,-1.2307,-1.2225,-1.1885,0.0,0.0,0.0,0.0,0.0,0.0,0.0,0.0,0.0,0.0,0.0,0.0,0.0,0.0,0.0,0.0,0.0,0.0,0.0,0.0,0.0,0.0,0.0,0.0,0.0,0.0,0.0,0.0,0.0,0.0,0.0,0.0,0.0,0.0,0.0,0.0,0.0,0.0,0.0,0.0,0.0,0.0,0.0,0.0,0.0,0.0,0.0,0.0,0.0,0.0,0.0,0.0,0.0,0.0,0.0,0.0,0.0,0.0,0.0,0.0,0.0,0.0,0.0,0.0,0.0,0.0,0.0,0.0,0.0,0.0,0.0,0.0,0.0,0.0,0.0,0.0,0.0,0.0,0.0,0.0,0.0,0.0,0.0,0.0,0.0,0.0,0.0,0.0,0.0,0.0,0.0,0.0,0.0,0.0,0.0,0.0,0.0,0.0,0.0,0.0,0.0,0.0,0.0,0.0,0.0,0.0,0.0,0.0,0.0,-1.2669,-1.3024,-1.3085,-1.2849,-1.2924,-1.264,0.0,0.0,0.0,0.0,0.0,0.0,0.0,0.0,0.0,0.0,0.0,0.0,0.0,0.0,0.0,0.0,0.0,0.0,0.0,0.0,0.0,0.0,0.0,0.0,0.0,0.0,0.0,0.0,0.0,0.0,0.0,0.0,0.0,0.0,0.0,0.0,0.0,0.0,0.0,0.0,0.0,0.0,0.0,0.0,0.0,0.0,0.0,0.0,0.0,0.0,0.0,0.0,0.0,0.0,0.0,0.0,0.0,0.0,0.0,0.0,0.0,0.0,0.0,0.0,0.0,0.0,0.0,0.0,0.0,0.0,0.0,0.0,0.0,0.0,0.0,0.0,0.0,0.0,0.0,0.0,0.0,0.0,0.0,0.0,0.0,0.0,0.0,0.0,0.0,0.0,0.0,0.0,0.0,0.0,0.0,0.0,0.0,0.0,0.0,0.0,0.0,0.0,0.0,0.0,0.0,0.0,0.0,0.0,-1.2911,-1.3662,-1.4047,-1.3969,-1.3377,-1.38,-1.3533,0.0,0.0,0.0,0.0,0.0,0.0,0.0,0.0,0.0,0.0,0.0,0.0,0.0,0.0,0.0,0.0,0.0,0.0,0.0,0.0,0.0,0.0,0.0,0.0,0.0,0.0,0.0,0.0,0.0,0.0,0.0,0.0,0.0,0.0,0.0,0.0,0.0,0.0,0.0,0.0,0.0,0.0,0.0,0.0,0.0,0.0,0.0,0.0,0.0,0.0,0.0,0.0,0.0,0.0,0.0,0.0,0.0,0.0,0.0,0.0,0.0,0.0,0.0,0.0,0.0,0.0,0.0,0.0,0.0,0.0,0.0,0.0,0.0,0.0,0.0,0.0,0.0,0.0,0.0,0.0,0.0,0.0,0.0,0.0,0.0,0.0,0.0,0.0,0.0,0.0,0.0,0.0,0.0,0.0,0.0,0.0,0.0,0.0,0.0,0.0,0.0,0.0,0.0,0.0,0.0,0.0,0.0,0.0,0.0,-1.447,-1.5228,-1.549,-1.5185,-1.5391,-1.4851,0.0,0.0,0.0,0.0,0.0,0.0,0.0,0.0,0.0,0.0,0.0,0.0,0.0,0.0,0.0,0.0,0.0,0.0,0.0,0.0,0.0,0.0,0.0,0.0,0.0,0.0,0.0,0.0,0.0,0.0,0.0,0.0,0.0,0.0,0.0,0.0,0.0,0.0,0.0,0.0,0.0,0.0,0.0,0.0,0.0,0.0,0.0,0.0,0.0,0.0,0.0,0.0,0.0,0.0,0.0,0.0,0.0,0.0,0.0,0.0,0.0,0.0,0.0,0.0,0.0,0.0,0.0,0.0,0.0,0.0,0.0,0.0,0.0,0.0,0.0,0.0,0.0,0.0,0.0,0.0,0.0,0.0,0.0,0.0,0.0,0.0,0.0,0.0,0.0,0.0,0.0,0.0,0.0,0.0,0.0,0.0,0.0,0.0,0.0,0.0,0.0,0.0,0.0,0.0,0.0,0.0,0.0,0.0,0.0,-1.6098,-1.6535,-1.6607,-1.6237,-1.6368,-1.5847,-1.4624,0.0,0.0,0.0,0.0,0.0,0.0,0.0,0.0,0.0,0.0,0.0,0.0,0.0,0.0,0.0,0.0,0.0,0.0,0.0,0.0,0.0,0.0,0.0,0.0,0.0,0.0,0.0,0.0,0.0,0.0,0.0,0.0,0.0,0.0,0.0,0.0,0.0,0.0,0.0,0.0,0.0,0.0,0.0,0.0,0.0,0.0,0.0,0.0,0.0,0.0,0.0,0.0,0.0,0.0,0.0,0.0,0.0,0.0,0.0,0.0,0.0,0.0,0.0,0.0,0.0,0.0,0.0,0.0,0.0,0.0,0.0,0.0,0.0,0.0,0.0,0.0,0.0,0.0,0.0,0.0,0.0,0.0,0.0,0.0,0.0,0.0,0.0,0.0,0.0,0.0,0.0,0.0,0.0,0.0,0.0,0.0,0.0,0.0,0.0,0.0,0.0,0.0,0.0,0.0,0.0,0.0,0.0,0.0,-1.8251,-1.7912,-1.7436,-1.6793,-1.6877,-1.6621,0.0,0.0,0.0,0.0,0.0,0.0,0.0,0.0,0.0,0.0,0.0,0.0,0.0,0.0,0.0,0.0,0.0,0.0,0.0,0.0,0.0,0.0,0.0,0.0,0.0,0.0,0.0,0.0,0.0,0.0,0.0,0.0,0.0,0.0,0.0,0.0,0.0,0.0,0.0,0.0,0.0,0.0,0.0,0.0,0.0,0.0,0.0,0.0,0.0,0.0,0.0,0.0,0.0,0.0,0.0,0.0,0.0,0.0,0.0,0.0,0.0,0.0,0.0,0.0,0.0,0.0,0.0,0.0,0.0,0.0,0.0,0.0,0.0,0.0,0.0,0.0,0.0,0.0,0.0,0.0,0.0,0.0,0.0,0.0,0.0,0.0,0.0,0.0,0.0,0.0,0.0,0.0,0.0,0.0,0.0,0.0,0.0,0.0,0.0,0.0,0.0,0.0,0.0,0.0,0.0,0.0,0.0,0.0,0.0,-1.8753,-1.9147,-1.9105,-1.8547,-1.8312,-1.7702,0.0,0.0,0.0,0.0,0.0,0.0,0.0,0.0,0.0,0.0,0.0,0.0,0.0,0.0,0.0,0.0,0.0,0.0,0.0,0.0,0.0,0.0,0.0,0.0,0.0,0.0,0.0,0.0,0.0,0.0,0.0,0.0,0.0,0.0,0.0,0.0,0.0,0.0,0.0,0.0,0.0,0.0,0.0,0.0,0.0,0.0,0.0,0.0,0.0,0.0,0.0,0.0,0.0,0.0,0.0,0.0,0.0,0.0,0.0,0.0,0.0,0.0,0.0,0.0,0.0,0.0,0.0,0.0,0.0,0.0,0.0,0.0,0.0,0.0,0.0,0.0,0.0,0.0,0.0,0.0,0.0,0.0,0.0,0.0,0.0,0.0,0.0,0.0,0.0,0.0,0.0,0.0,0.0,0.0,0.0,0.0,0.0,0.0,0.0,0.0,0.0,0.0,0.0,0.0,0.0,0.0,0.0,0.0,-1.8544,-1.9314,-1.9491,-1.9617,-1.981,-1.9233,-1.8442,0.0,0.0,0.0,0.0,0.0,0.0,0.0,0.0,0.0,0.0,0.0,0.0,0.0,0.0,0.0,0.0,0.0,0.0,0.0,0.0,0.0,0.0,0.0,0.0,0.0,0.0,0.0,0.0,0.0,0.0,0.0,0.0,0.0,0.0,0.0,0.0,0.0,0.0,0.0,0.0,0.0,0.0,0.0,0.0,0.0,0.0,0.0,0.0,0.0,0.0,0.0,0.0,0.0,0.0,0.0,0.0,0.0,0.0,0.0,0.0,0.0,0.0,0.0,0.0,0.0,0.0,0.0,0.0,0.0,0.0,0.0,0.0,0.0,0.0,0.0,0.0,0.0,0.0,0.0,0.0,0.0,0.0,0.0,0.0,0.0,0.0,0.0,0.0,0.0,0.0,0.0,0.0,0.0,0.0,0.0,0.0,0.0,0.0,0.0,0.0,0.0,0.0,0.0,0.0,0.0,0.0,0.0,0.0,-1.9337,-1.9739,-1.9201,-1.9442,-2.0439,-1.9652,-1.8818,0.0,0.0,0.0,0.0,0.0,0.0,0.0,0.0,0.0,0.0,0.0,0.0,0.0,0.0,0.0,0.0,0.0,0.0,0.0,0.0,0.0,0.0,0.0,0.0,0.0,0.0,0.0,0.0,0.0,0.0,0.0,0.0,0.0,0.0,0.0,0.0,0.0,0.0,0.0,0.0,0.0,0.0,0.0,0.0,0.0,0.0,0.0,0.0,0.0,0.0,0.0,0.0,0.0,0.0,0.0,0.0,0.0,0.0,0.0,0.0,0.0,0.0,0.0,0.0,0.0,0.0,0.0,0.0,0.0,0.0,0.0,0.0,0.0,0.0,0.0,0.0,0.0,0.0,0.0,0.0,0.0,0.0,0.0,0.0,0.0,0.0,0.0,0.0,0.0,0.0,0.0,0.0,0.0,0.0,0.0,0.0,0.0,0.0,0.0,0.0,0.0,0.0,0.0,0.0,0.0,0.0,0.0,0.0,-1.8576,-1.944,-1.8754,-1.8946,-2.0117,-1.9021,-1.8546,0.0,0.0,0.0,0.0,0.0,0.0,0.0,0.0,0.0,0.0,0.0,0.0,0.0,0.0,0.0,0.0,0.0,0.0,0.0,0.0,0.0,0.0,0.0,0.0,0.0,0.0,0.0,0.0,0.0,0.0,0.0,0.0,0.0,0.0,0.0,0.0,0.0,0.0,0.0,0.0,0.0,0.0,0.0,0.0,0.0,0.0,0.0,0.0,-1.3432,0.0,0.0,0.0,0.0,0.0,0.0,0.0,0.0,0.0,0.0,0.0,0.0,0.0,0.0,0.0,0.0,0.0,0.0,0.0,0.0,0.0,0.0,0.0,0.0,0.0,0.0,0.0,0.0,0.0,0.0,0.0,0.0,0.0,0.0,0.0,0.0,0.0,0.0,0.0,0.0,0.0,0.0,0.0,0.0,0.0,0.0,0.0,0.0,0.0,0.0,0.0,0.0,0.0,0.0,0.0,0.0,0.0,0.0,0.0,-1.8708,-1.9485,-1.816,-1.8269,-1.9856,-1.8665,-1.8337,0.0,0.0,0.0,0.0,0.0,0.0,0.0,0.0,0.0,0.0,0.0,0.0,0.0,0.0,0.0,0.0,0.0,0.0,0.0,0.0,0.0,0.0,0.0,0.0,0.0,0.0,0.0,0.0,0.0,0.0,0.0,0.0,0.0,0.0,0.0,0.0,0.0,0.0,0.0,0.0,0.0,0.0,0.0,0.0,0.0,0.0,0.0,0.0,0.0,0.0,0.0,0.0,0.0,0.0,0.0,0.0,0.0,0.0,0.0,0.0,0.0,0.0,0.0,0.0,0.0,0.0,0.0,0.0,0.0,0.0,0.0,0.0,0.0,0.0,0.0,0.0,0.0,0.0,0.0,0.0,0.0,0.0,0.0,0.0,0.0,0.0,0.0,0.0,0.0,0.0,0.0,0.0,0.0,0.0,0.0,0.0,0.0,0.0,0.0,0.0,0.0,0.0,0.0,0.0,0.0,0.0,0.0,-1.875,-1.8877,-1.9309,-1.768,-1.7787,-1.9805,-1.8707,-1.853,-1.9551,0.0,0.0,0.0,0.0,0.0,0.0,0.0,0.0,0.0,0.0,0.0,0.0,0.0,0.0,0.0,0.0,0.0,0.0,0.0,0.0,0.0,0.0,0.0,0.0,0.0,0.0,0.0,0.0,0.0,0.0,0.0,0.0,0.0,0.0,0.0,0.0,0.0,0.0,-1.3512,-1.4828,0.0,0.0,0.0,0.0,0.0,0.0,0.0,0.0,-1.4349,0.0,0.0,0.0,0.0,0.0,0.0,0.0,0.0,0.0,0.0,0.0,0.0,0.0,0.0,0.0,0.0,0.0,0.0,0.0,0.0,0.0,0.0,0.0,0.0,0.0,0.0,0.0,0.0,0.0,0.0,0.0,0.0,0.0,0.0,0.0,0.0,0.0,0.0,0.0,0.0,0.0,0.0,0.0,0.0,0.0,0.0,0.0,0.0,0.0,0.0,0.0,0.0,0.0,0.0,0.0,0.0,-1.8805,-1.7935,-1.767,-1.8024,-1.772,-1.8194,-1.9516,-1.9541,-1.9888,-2.0509,0.0,0.0,0.0,0.0,0.0,0.0,0.0,0.0,0.0,0.0,0.0,0.0,0.0,0.0,0.0,0.0,0.0,0.0,0.0,0.0,0.0,0.0,0.0,0.0,0.0,0.0,0.0,0.0,0.0,0.0,0.0,0.0,0.0,0.0,0.0,0.0,0.0,0.0,0.0,-1.6254,-1.7161,0.0,0.0,0.0,0.0,0.0,0.0,0.0,0.0,-1.5829,0.0,0.0,0.0,0.0,0.0,0.0,0.0,0.0,0.0,0.0,0.0,0.0,0.0,0.0,0.0,0.0,0.0,0.0,0.0,0.0,0.0,0.0,0.0,0.0,0.0,0.0,0.0,0.0,0.0,0.0,0.0,0.0,0.0,0.0,0.0,0.0,0.0,0.0,0.0,0.0,0.0,0.0,0.0,0.0,0.0,0.0,0.0,0.0,0.0,0.0,0.0,0.0,0.0,0.0,0.0,-1.8631,-1.8219,-1.7902,-1.7732,-1.7684,-1.828,-1.9472,-1.9758,-2.0235,0.0,0.0,0.0,0.0,0.0,0.0,0.0,0.0,0.0,0.0,0.0,0.0,0.0,0.0,0.0,0.0,0.0,0.0,0.0,0.0,0.0,0.0,0.0,0.0,0.0,0.0,0.0,0.0,0.0,0.0,0.0,0.0,0.0,0.0,0.0,0.0,0.0,0.0,0.0,0.0,-1.7751,-1.8581,-1.8833,0.0,0.0,0.0,0.0,0.0,0.0,-1.6708,-1.6347,0.0,0.0,0.0,0.0,0.0,0.0,0.0,0.0,0.0,0.0,0.0,0.0,0.0,0.0,0.0,0.0,0.0,0.0,0.0,0.0,0.0,0.0,0.0,0.0,0.0,0.0,0.0,0.0,0.0,0.0,0.0,0.0,0.0,0.0,0.0,0.0,0.0,0.0,0.0,0.0,0.0,0.0,0.0,0.0,0.0,0.0,0.0,0.0,0.0,0.0,0.0,0.0,0.0,0.0,0.0,-1.8827,-1.8959,-1.8737,-1.811,-1.828,-1.8872,-1.9835,-2.0223,-2.0586,0.0,0.0,0.0,0.0,0.0,0.0,0.0,0.0,0.0,0.0,0.0,0.0,0.0,0.0,0.0,0.0,0.0,0.0,0.0,0.0,0.0,0.0,0.0,0.0,0.0,0.0,0.0,0.0,0.0,0.0,0.0,0.0,0.0,0.0,0.0,0.0,0.0,0.0,0.0,0.0,0.0,-2.0152,-2.0005,-1.9922,0.0,0.0,0.0,0.0,-1.7687,-1.7384,0.0,0.0,0.0,0.0,0.0,0.0,0.0,0.0,0.0,0.0,0.0,0.0,0.0,0.0,0.0,0.0,0.0,0.0,0.0,0.0,0.0,0.0,0.0,0.0,0.0,0.0,0.0,0.0,0.0,0.0,0.0,0.0,0.0,0.0,0.0,0.0,0.0,0.0,0.0,0.0,0.0,0.0,0.0,0.0,0.0,0.0,0.0,0.0,0.0,0.0,0.0,0.0,0.0,0.0,0.0,0.0,-1.9627,-1.9931,-1.9861,-1.9364,-2.0331,-2.0962,-2.1096,-2.1744,-2.178,0.0,0.0,0.0,0.0,0.0,0.0,0.0,0.0,0.0,0.0,0.0,0.0,0.0,0.0,0.0,0.0,0.0,0.0,0.0,0.0,0.0,0.0,0.0,0.0,0.0,0.0,0.0,0.0,0.0,0.0,0.0,0.0,0.0,0.0,0.0,0.0,0.0,0.0,0.0,0.0,0.0,-2.2012,-2.1386,-2.1638,-2.1459,0.0,0.0,-1.9223,-1.9165,-1.8978,0.0,0.0,0.0,0.0,0.0,0.0,0.0,0.0,0.0,0.0,0.0,0.0,0.0,0.0,0.0,0.0,0.0,0.0,0.0,0.0,0.0,0.0,0.0,0.0,0.0,0.0,0.0,0.0,0.0,0.0,0.0,0.0,0.0,0.0,0.0,0.0,0.0,0.0,0.0,0.0,0.0,0.0,0.0,0.0,0.0,0.0,0.0,0.0,0.0,0.0,0.0,0.0,0.0,0.0,0.0,-1.9212,-1.8835,-2.0181,-2.0076,-1.8634,-2.0592,-2.1717,-2.169,-2.25,-2.2461,0.0,0.0,0.0,0.0,0.0,0.0,0.0,0.0,0.0,0.0,0.0,0.0,0.0,0.0,0.0,0.0,0.0,0.0,0.0,0.0,0.0,0.0,0.0,0.0,0.0,0.0,0.0,0.0,0.0,0.0,0.0,0.0,0.0,0.0,0.0,0.0,0.0,0.0,0.0,0.0,0.0,0.0,-2.2584,-2.2454,0.0,0.0,0.0,-2.0595,-2.0091,0.0,0.0,0.0,0.0,0.0,0.0,0.0,0.0,0.0,0.0,0.0,0.0,0.0,0.0,0.0,0.0,0.0,0.0,0.0,0.0,0.0,0.0,0.0,0.0,0.0,0.0,0.0,0.0,0.0,0.0,0.0,0.0,0.0,0.0,0.0,0.0,0.0,0.0,0.0,0.0,0.0,0.0,0.0,0.0,0.0,0.0,0.0,0.0,0.0,0.0,0.0,0.0,0.0,0.0,0.0,0.0,0.0,-1.9276,-2.112,-2.1191,-1.9554,-2.1796,-2.306,-2.3087,-2.3588,0.0,0.0,0.0,0.0,0.0,0.0,0.0,0.0,0.0,0.0,0.0,0.0,0.0,0.0,0.0,0.0,0.0,0.0,0.0,0.0,0.0,0.0,0.0,0.0,0.0,0.0,0.0,-1.2267,0.0,0.0,0.0,0.0,0.0,0.0,0.0,0.0,0.0,0.0,0.0,0.0,0.0,0.0,-2.2851,-2.342,-2.3377,-2.3111,0.0,0.0,-2.2,-2.135,-2.1162,-2.0742,0.0,0.0,0.0,0.0,0.0,0.0,0.0,0.0,0.0,0.0,0.0,0.0,0.0,0.0,0.0,0.0,0.0,0.0,0.0,0.0,0.0,0.0,0.0,0.0,0.0,0.0,0.0,0.0,0.0,0.0,0.0,0.0,0.0,0.0,0.0,0.0,0.0,0.0,0.0,0.0,0.0,0.0,0.0,0.0,0.0,0.0,0.0,0.0,0.0,0.0,0.0,0.0,0.0,0.0,-2.1309,-2.2462,-2.3606,-2.4077,-2.3994,-2.531,-2.603,-2.6009,-2.5626,-2.4934,0.0,0.0,0.0,0.0,0.0,0.0,0.0,0.0,0.0,0.0,0.0,0.0,0.0,0.0,0.0,0.0,0.0,0.0,0.0,0.0,0.0,0.0,0.0,0.0,0.0,0.0,0.0,0.0,0.0,0.0,0.0,0.0,0.0,0.0,0.0,0.0,0.0,0.0,0.0,0.0,0.0,-2.4313,-2.3583,-2.4672,-2.5178,0.0,-2.3652,-2.3355,-2.3328,-2.3083,-2.2629,-2.1811,0.0,0.0,0.0,0.0,0.0,0.0,0.0,0.0,0.0,0.0,0.0,0.0,0.0,0.0,0.0,0.0,0.0,0.0,0.0,0.0,0.0,0.0,0.0,0.0,0.0,0.0,0.0,0.0,0.0,0.0,0.0,0.0,0.0,0.0,0.0,0.0,0.0,0.0,0.0,0.0,0.0,0.0,0.0,0.0,0.0,0.0,0.0,0.0,0.0,0.0,0.0,0.0,0.0,-2.1537,-2.2141,-2.3605,-2.4431,-2.4418,-2.5129,-2.59,-2.6669,-2.5643,-2.4546,0.0,0.0,0.0,0.0,0.0,0.0,0.0,0.0,0.0,0.0,0.0,0.0,0.0,0.0,0.0,0.0,0.0,0.0,0.0,0.0,0.0,0.0,0.0,0.0,0.0,0.0,0.0,0.0,-1.5465,-1.5784,-1.5878,0.0,0.0,0.0,0.0,0.0,0.0,0.0,0.0,0.0,0.0,-2.4243,-2.5107,-2.5329,0.0,0.0,-2.5114,-2.4736,-2.434,-2.3979,-2.3557,-2.2974,-2.2093,0.0,0.0,0.0,0.0,0.0,0.0,0.0,0.0,0.0,0.0,0.0,0.0,0.0,0.0,0.0,0.0,0.0,0.0,0.0,0.0,0.0,0.0,0.0,0.0,0.0,0.0,0.0,0.0,0.0,0.0,0.0,0.0,0.0,0.0,0.0,0.0,0.0,0.0,0.0,0.0,0.0,0.0,0.0,0.0,0.0,0.0,0.0,0.0,0.0,0.0,0.0,0.0,-2.194,-2.245,-2.4008,-2.4822,-2.479,-2.5473,-2.6205,-2.6829,-2.5771,-2.4736,0.0,0.0,0.0,0.0,0.0,0.0,0.0,0.0,0.0,0.0,0.0,0.0,0.0,0.0,0.0,0.0,0.0,0.0,0.0,0.0,0.0,0.0,0.0,0.0,0.0,0.0,0.0,0.0,-1.6433,-1.6617,-1.6503,0.0,0.0,0.0,0.0,0.0,0.0,0.0,0.0,0.0,0.0,-2.4598,-2.6008,-2.5992,-2.5927,-2.6379,-2.6291,-2.5954,-2.5485,-2.5151,-2.4816,-2.4406,0.0,0.0,0.0,0.0,0.0,0.0,0.0,0.0,0.0,0.0,0.0,0.0,0.0,0.0,0.0,0.0,0.0,0.0,0.0,0.0,0.0,0.0,0.0,0.0,0.0,0.0,0.0,-1.1172,0.0,0.0,-1.1771,0.0,0.0,0.0,0.0,0.0,0.0,0.0,0.0,0.0,0.0,0.0,0.0,0.0,0.0,0.0,0.0,0.0,0.0,0.0,0.0,0.0,0.0,-2.2762,-2.4147,-2.5165,-2.5664,-2.5761,-2.6887,-2.7332,-2.6938,-2.6469,-2.586,-2.5006,0.0,0.0,0.0,0.0,0.0,0.0,0.0,0.0,0.0,0.0,0.0,0.0,0.0,0.0,0.0,0.0,0.0,0.0,0.0,0.0,0.0,0.0,0.0,0.0,0.0,0.0,-1.6673,-1.7274,-1.7592,0.0,0.0,0.0,0.0,0.0,0.0,0.0,0.0,0.0,-2.3944,-2.504,-2.5745,-2.6089,-2.6831,-2.7122,-2.658,-2.6889,-2.7087,-2.6863,-2.6809,-2.6703,0.0,0.0,0.0,0.0,0.0,0.0,0.0,0.0,0.0,0.0,0.0,0.0,0.0,0.0,0.0,0.0,0.0,0.0,0.0,0.0,0.0,0.0,0.0,0.0,0.0,0.0,0.0,-1.6009,-1.6258,0.0,0.0,0.0,0.0,0.0,0.0,0.0,0.0,0.0,0.0,0.0,-2.2888,-2.2557,0.0,0.0,0.0,0.0,0.0,0.0,0.0,0.0,0.0,0.0,0.0,0.0,-2.4057,-2.5347,-2.6146,-2.6963,-2.7717,-2.7391,-2.7518,-2.8094,-2.6425,-2.4854,-2.3555,0.0,0.0,0.0,0.0,0.0,0.0,0.0,0.0,0.0,0.0,0.0,0.0,0.0,0.0,0.0,0.0,0.0,0.0,0.0,0.0,0.0,0.0,0.0,0.0,0.0,-1.7406,0.0,0.0,0.0,0.0,0.0,0.0,0.0,0.0,0.0,0.0,0.0,-2.353,-2.4864,-2.5576,-2.6166,-2.6691,-2.702,-2.7262,0.0,0.0,0.0,0.0,0.0,0.0,0.0,0.0,0.0,0.0,0.0,0.0,0.0,0.0,-2.165,-1.9925,-1.9563,-1.9369,-1.9023,0.0,0.0,0.0,0.0,0.0,0.0,0.0,0.0,0.0,0.0,0.0,0.0,0.0,0.0,-1.9585,-2.0174,-1.993,0.0,0.0,0.0,0.0,0.0,0.0,0.0,0.0,-2.4814,-2.5258,-2.4839,-2.4482,-2.4378,0.0,-2.3528,-2.2513,0.0,0.0,0.0,0.0,0.0,0.0,0.0,0.0,-2.4925,-2.6092,-2.6695,-2.7399,-2.8116,-2.7399,-2.733,-2.7921,-2.6137,-2.4588,-2.3557,-2.2839,-2.2248,0.0,0.0,0.0,0.0,0.0,0.0,0.0,0.0,0.0,0.0,0.0,0.0,0.0,0.0,0.0,0.0,0.0,0.0,0.0,0.0,0.0,0.0,0.0,-1.8617,0.0,0.0,0.0,0.0,0.0,0.0,0.0,0.0,0.0,-2.3223,-2.3982,-2.4901,-2.5878,-2.6341,-2.6727,-2.7197,0.0,0.0,0.0,0.0,0.0,0.0,0.0,-2.7295,-2.7965,-2.7328,-2.674,-2.6754,-2.6026,-2.5461,-2.5505,0.0,0.0,-2.2611,-2.2147,-2.1973,-2.1584,-2.1495,-2.1603,-2.207,-2.2076,-2.2255,0.0,0.0,0.0,0.0,0.0,0.0,0.0,0.0,-2.2835,-2.2889,0.0,-2.3115,0.0,0.0,0.0,0.0,-2.1654,-2.4203,0.0,0.0,-2.7558,-2.7971,-2.6613,-2.638,-2.641,-2.6491,-2.4828,-2.4511,-2.5352,-2.3306,0.0,0.0,0.0,0.0,0.0,0.0,-2.5443,-2.6444,-2.6864,-2.706,-2.707,-2.707,-2.6855,-2.6476,-2.5634,-2.5145,-2.5047,-2.3957,-2.3397,-2.3535,-2.1857,0.0,0.0,0.0,0.0,0.0,0.0,0.0,0.0,0.0,0.0,0.0,0.0,0.0,0.0,0.0,0.0,0.0,0.0,0.0,0.0,-1.9328,0.0,0.0,0.0,0.0,0.0,0.0,0.0,0.0,0.0,0.0,-2.4457,-2.5285,-2.6222,-2.6948,0.0,0.0,0.0,0.0,-2.8774,-2.8045,-2.8289,-2.8512,-2.8314,-2.8074,-2.7953,-2.8176,0.0,0.0,-2.7782,-2.7249,-2.6903,-2.7095,-2.7084,-2.6623,-2.4957,-2.4578,-2.4471,-2.4237,-2.4153,-2.44,-2.4788,-2.4744,-2.4883,-2.4349,0.0,0.0,0.0,0.0,-2.2415,-2.3711,-2.5707,-2.6303,-2.6897,-2.7442,-2.7138,0.0,0.0,0.0,0.0,0.0,0.0,-2.5934,-2.6444,-2.738,-2.75,-2.6892,-2.6842,-2.6842,-2.6852,-2.6349,-2.6278,-2.6525,-2.5894,-2.4892,-2.3634,0.0,0.0,0.0,0.0,-2.6455,-2.727,-2.7742,-2.792,-2.793,-2.793,-2.7578,-2.6855,-2.6299,-2.5723,-2.5135,-2.4425,-2.3879,-2.3407,-2.3005,0.0,0.0,0.0,0.0,0.0,0.0,0.0,0.0,0.0,0.0,0.0,0.0,0.0,0.0,0.0,0.0,0.0,0.0,0.0,-1.8292,-1.9909,-2.0962,0.0,0.0,0.0,0.0,0.0,0.0,0.0,0.0,0.0,-2.6262,-2.675,-2.7262,0.0,0.0,-2.8266,-2.8293,-2.836,-2.8431,-2.831,-2.8299,0.0,-2.8371,-2.8237,-2.8236,-2.8584,-2.8607,-2.8489,-2.8213,-2.7976,-2.786,-2.7954,-2.7959,-2.7769,-2.7319,-2.6695,-2.62,-2.5874,-2.5785,-2.5815,-2.5943,-2.5973,-2.6102,-2.5376,-2.4249,-2.4015,-2.3874,-2.3844,-2.4216,-2.5611,-2.7679,-2.8177,-2.8786,-2.9427,-2.9217,-2.796,-2.6031,-2.4919,0.0,0.0,0.0,-2.6757,-2.7462,-2.7642,-2.7667,-2.751,-2.7529,-2.7519,-2.75,-2.7178,-2.7187,-2.751,-2.7094,-2.6593,-2.5999,0.0,0.0,-2.6215,-2.6711,-2.7237,-2.782,-2.816,-2.8301,-2.8301,-2.8301,-2.7969,-2.7305,-2.7031,-2.6484,-2.5673,-2.5677,-2.5173,-2.4087,-2.4146,-2.372,0.0,0.0,0.0,0.0,0.0,0.0,0.0,0.0,0.0,0.0,0.0,-1.8327,-1.9661,0.0,0.0,0.0,-2.0456,-1.9937,-2.0044,-2.1167,0.0,0.0,0.0,0.0,0.0,0.0,0.0,-2.5367,-2.6385,-2.7223,-2.7396,-2.7739,-2.7975,-2.8127,-2.8279,-2.837,-2.8288,0.0,-2.8439,-2.8478,-2.842,-2.8329,-2.8428,-2.8257,-2.8247,-2.8565,-2.8592,-2.8504,-2.8344,-2.8301,-2.8301,-2.8301,-2.8301,-2.8301,-2.8301,-2.7861,-2.7461,-2.7197,-2.7139,-2.7148,-2.7139,-2.7139,-2.7226,-2.6103,-2.5554,-2.4011,-2.4006,-2.506,-2.5399,-2.6827,-2.8906,-2.9027,-2.9238,-2.9565,-2.9829,-2.8969,-2.7359,-2.6693,0.0,-2.7361,-2.7361,-2.7701,-2.8291,-2.8301,-2.8301,-2.8291,-2.8291,-2.8301,-2.8271,-2.749,-2.7519,-2.8203,-2.7284,-2.7259,-2.8031,-2.7461,-2.708,-2.6833,-2.7412,-2.784,-2.8009,-2.8202,-2.8301,-2.8301,-2.8398,-2.8265,-2.7924,-2.7949,-2.7586,-2.6854,-2.7383,-2.7003,-2.5501,-2.5421,-2.5312,-2.4904,0.0,0.0,0.0,0.0,0.0,0.0,0.0,0.0,0.0,0.0,0.0,0.0,0.0,0.0,-2.3232,-2.3042,0.0,-2.2782,-2.2798,0.0,0.0,0.0,-2.4981,-2.5706,-2.6174,-2.6451,-2.6465,0.0,0.0,-2.8005,-2.8329,-2.8343,-2.8071,-2.8071,-2.8026,-2.7924,-2.8369,-2.8642,-2.8505,-2.8486,-2.8486,-2.8475,-2.8237,-2.8085,-2.829,-2.8301,-2.8291,-2.8301,-2.8301,-2.8301,-2.8301,-2.8301,-2.8301,-2.8301,-2.8252,-2.8291,-2.8232,-2.8242,-2.8252,-2.8203,-2.8184,-2.8174,-2.5781,-2.5781,-2.6599,-2.7349,-2.8025,-2.845,-2.9163,-3.0022,-3.1041,-3.0965,-3.013,-3.0181,-2.9403,-2.8069,-2.7867,-2.7902,-2.8094,-2.8042,-2.8147,-2.8291,-2.8301,-2.8301,-2.8301,-2.8301,-2.8301,-2.8271,-2.8086,-2.8105,-2.8271,-2.8031,-2.815,-2.8496,-2.8203,-2.793,-2.7729,-2.7857,-2.8028,-2.8241,-2.8295,-2.8301,-2.8354,-2.9303,-2.9766,-2.9715,-2.997,-3.0041,-2.984,-2.9269,-2.8635,-2.7947,-2.8232,-2.7631,-2.6017,-2.55,0.0,0.0,0.0,0.0,0.0,0.0,0.0,0.0,0.0,-2.2458,-2.3619,0.0,-2.4158,0.0,-2.4711,-2.3777,-2.2015,-2.3393,0.0,0.0,-2.5643,-2.6262,-2.6438,-2.7112,-2.7472,-2.7208,-2.7541,-2.7871,-2.7988,-2.8056,-2.815,-2.8202,-2.8559,-2.8825,-2.8798,-2.8727,-2.8698,-2.8714,-2.8589,-2.8347,-2.8367,-2.8304,-2.8237,-2.8271,-2.8301,-2.8301,-2.8301,-2.8301,-2.8301,-2.8301,-2.8301,-2.8301,-2.8301,-2.8301,-2.8301,-2.8301,-2.8301,-2.8301,-2.8301,-2.8301,-2.8301,-2.7342,-2.741,-2.8363,-2.9347,-3.0297,-2.9618,-2.9709,-3.0296,-3.0252,-2.9932,-2.9408,-2.9398,-2.9006,-2.8291,-2.8301,-2.8301,-2.8301,-2.8301,-2.8301,-2.8301,-2.8301,-2.8301,-2.8301,-2.8301,-2.8301,-2.8301,-2.8301,-2.8591,-2.9154,-2.9197,-2.926,-2.9428,-2.927,-2.8833,-2.816,-2.815,-2.8215,-2.8291,-2.8301,-2.8601,-2.9207,-2.9911,-3.0525,-3.1019,-3.1031,-3.0878,-3.0559,-3.0298,-2.9748,-2.8822,-2.9195,-2.8867,-2.7557,-2.6775,-2.5945,0.0,0.0,0.0,0.0,0.0,0.0,0.0,0.0,0.0,0.0,0.0,-2.4893,-2.529,-2.5189,-2.4565,-2.3371,-2.4401,-2.5431,-2.6027,-2.6655,-2.7334,-2.8192,-2.8711,-2.9164,-2.9565,-2.9249,-2.9042,-2.9,-2.9215,-2.9428,-2.9576,-3.0546,-3.0958,-3.0221,-3.0348,-3.0569,-3.0148,-2.9964,-2.9597,-2.9011,-2.8857,-2.8857,-2.8867,-2.8912,-2.8857,-2.8857,-2.8857,-2.8857,-2.8848,-2.8711,-2.8574,-2.8564,-2.8398,-2.8301,-2.8301,-2.8301,-2.8301,-2.8301,-2.8301,-2.8301,-2.9497,-2.9497,-2.9612,-3.0571,-3.1918,-2.9954,-2.96,-3.0357,-2.8671,-2.8101,-2.8291,-2.8301,-2.8301,-2.8301,-2.8301,-2.8301,-2.8301,-2.8301,-2.8301,-2.8301,-2.8301,-2.8301,-2.8301,-2.8301,-2.8398,-2.8548,-2.8548,-2.925,-3.0525,-3.0577,-3.0514,-3.0369,-3.0307,-2.966,-2.8398,-2.8344,-2.8301,-2.8301,-2.8344,-2.9006,-3.0162,-3.0421,-3.1041,-3.196,-3.1639,-3.11,-3.0436,-3.09,-3.0479,-2.9108,-2.9432,-2.945,-2.8993,-2.7473,-2.6662,0.0,-2.5677,0.0,0.0,0.0,0.0,0.0,0.0,0.0,0.0,-2.5196,-2.5145,-2.4924,-2.5132,-2.533,-2.551,-2.5609,-2.6142,-2.7319,-2.7609,-2.8431,-3.0057,-3.0421,-3.1019,-3.218,-3.133,-3.0661,-3.0682,-3.1116,-3.1445,-3.1625,-3.2992,-3.3544,-3.2303,-3.2655,-3.2859,-3.218,-3.192,-3.1109,-3.0128,-2.9734,-2.9633,-2.981,-2.9669,-2.9626,-2.9577,-2.9531,-2.9551,-2.9512,-2.9228,-2.9014,-2.9004,-2.8711,-2.8486,-2.8525,-2.8535,-2.8476,-2.834,-2.8301,-2.8301,-3.0059,-3.0107,-3.0625,-3.1352,-3.2007,-3.1154,-3.0933,-3.1191,-2.987,-2.8959,-2.8291,-2.8301,-2.8301,-2.8301,-2.8301,-2.8301,-2.8301,-2.8301,-2.8301,-2.8301,-2.8301,-2.8301,-2.8301,-2.8301,-2.8857,-2.9869,-2.9911,-3.0618,-3.1927,-3.1927,-3.1469,-3.0669,-3.0421,-2.9723,-2.8674,0.0,0.0,0.0,-2.8708,-2.9175,-2.967,-3.1227,-3.2095,-3.2336,-3.2462,0.0,-3.2065,-3.1319,-3.0816,-3.0531,-3.0405,0.0,0.0,0.0,0.0,0.0,0.0,0.0,0.0,0.0,0.0,0.0,-2.6578,-2.6472,-2.6368,-2.6111,-2.5805,-2.5556,-2.5938,-2.6182,-2.6192,-2.6869,-2.7378,-2.7665,-2.8898,-2.9881,-3.0296,-3.1276,-3.2039,-3.2241,-3.2496,-3.2649,-3.2672,-3.3101,-3.3443,-3.3495,-3.4722,-3.5603,-3.5701,-3.4687,-3.3866,-3.3576,-3.2781,-3.1832,-3.1441,-3.046,-3.0344,-3.085,-3.0319,-2.9757,-2.9675,-2.9665,-2.9646,-2.9665,-2.9558,-2.9453,-2.9453,-2.9375,-2.9268,-2.9316,-2.9316,-2.9121,-2.8447,-2.8301,-2.8301,-3.2019,-3.2063,-3.2095,-3.2311,0.0,-3.1608,-3.1549,-3.197,-3.0065,-2.888,-2.8291,-2.8301,-2.8301,-2.8301,-2.8301,-2.8301,-2.8301,-2.8301,-2.8301,-2.8301,-2.8301,-2.8644,-2.9303,-2.9303,-3.0016,-3.1265,-3.1037,-3.1756,-3.3281,-3.305,-3.2754,-3.2493,-3.2404,-3.1389,-2.9523,-2.9365,-2.8953,-2.8291,-2.9207,-3.0078,-3.0886,-3.1869,-3.2639,-3.3128,-3.2454,0.0,0.0,0.0,0.0,0.0,0.0,0.0,0.0,0.0,0.0,-2.7712,-2.7274,-2.7189,-2.7505,-2.7295,-2.7596,-2.8533,-2.9084,-2.8796,-2.742,-2.7002,-2.716,-2.7846,-2.8145,-2.8216,-2.8095,-2.9041,-2.9485,-2.9156,-3.0377,-3.1531,-3.2264,-3.3161,-3.4,-3.458,-3.4629,-3.4588,-3.4588,-3.5068,-3.5347,-3.5498,-3.6785,-3.7888,-3.8057,-3.7215,-3.6319,-3.5759,-3.4484,-3.3519,-3.3464,-3.2971,-3.2263,-3.244,-3.244,-3.1793,-3.05,-3.0867,-3.113,-3.047,-3.0039,-2.9883,-2.9863,-2.9717,-2.958,-2.958,-2.958,-2.9463,-2.8984,-2.876,-2.8603,-3.4098,-3.4123,-3.3382,-3.3144,-3.3176,-3.2045,-3.1953,-3.2559,0.0,0.0,0.0,-2.8654,-2.8548,-2.8291,-2.8301,-2.8301,-2.8301,-2.8301,-2.8301,-2.8291,-2.8548,-2.926,-3.0266,-3.044,-3.1197,-3.2435,-3.195,-3.2718,-3.451,-3.409,-3.4043,-3.4387,-3.4385,-3.3166,-3.0824,-3.0669,-3.011,-2.9102,-3.0224,-3.1389,-3.2493,-3.2392,-3.2755,-3.3697,-3.1905,-3.0804,-3.0565,-3.0012,-2.9714,-2.9714,-2.9496,-2.9292,-2.915,-2.8871,-2.8547,-2.8138,-2.8227,-2.8293,-2.839,-2.8482,-2.9145,-3.0575,-3.1295,-3.0774,-2.8617,-2.8295,-2.8776,-3.0236,-3.0395,-3.0389,-3.0223,-3.1251,-3.1672,-3.1016,-3.213,-3.3419,-3.4523,-3.5302,-3.6074,-3.707,-3.6823,-3.6509,-3.6534,-3.6967,-3.7304,-3.7508,-3.8563,-3.9697,-3.9647,-3.9181,-3.843,-3.7392,-3.6229,-3.5615,-3.5661,-3.5232,-3.4914,-3.4205,-3.4681,-3.4247,-3.2322,-3.2311,-3.2416,-3.1033,-3.0557,-3.0361,-3.0303,-3.0088,-2.9871,-2.9805,-2.9861,-2.9795,-2.9812,-2.9666,-2.957,-3.4876,-3.5144,-3.3709,-3.3345,-3.3746,-3.3096,-3.2808,-3.2653,-3.2056,-3.1156,-3.0005,-3.0016,-2.9355,-2.8301,-2.8301,-2.8301,-2.8301,-2.8301,-2.8301,-2.8344,-2.945,-3.012,-3.0348,-3.1004,-3.2048,-3.3204,-3.2759,-3.3514,-3.5161,-3.5242,-3.4936,-3.4472,-3.4385,-3.3613,-3.2129,-3.2028,-3.1927,-3.1785,-3.2415,-3.2989,-3.3388,-3.275,-3.2448,-3.2538,-3.0886,-2.98,-2.9495,-2.8996,-2.8726,-2.8736,-2.8507,-2.8441,-2.8491,-2.8326,-2.8165,-2.8348,-2.9331,-2.9963,-3.0015,-3.104,-3.1732,-3.1984,-3.1844,-3.1345,-3.0644,-3.0518,-3.06,-3.0929,-3.1348,-3.1686,-3.2046,-3.2684,-3.3242,-3.3462,-3.4652,-3.5568,-3.5786,-3.6823,-3.763,-3.7852,-3.8291,-3.8427,-3.8414,-3.8825,-3.9136,-3.9225,-3.9442,-3.9697,-3.9685,-3.9634,-3.899,-3.789,-3.7358,-3.7198,-3.7091,-3.6108,-3.589,-3.6757,-3.5988,-3.5013,-3.3134,-3.3191,-3.2918,-3.1276,-3.1014,-3.0878,-3.0868,-3.0762,-3.0741,-3.0721,-3.0644,-3.0779,-3.0817,-3.1359,-3.1829,-3.4818,-3.4881,-3.3646,-3.3219,-3.3483,-3.3809,-3.3911,-3.3851,-3.4342,-3.3342,-3.1378,-3.0628,-2.9964,-2.9335,-2.8407,-2.7949,-2.8002,-2.8002,-2.8361,-2.9124,-2.9902,-3.0931,-3.1977,-3.2391,-3.3125,-3.4061,-3.3628,-3.3938,-3.4961,-3.5056,-3.503,-3.4974,-3.4631,-3.4068,-3.3464,-3.3453,-3.3403,-3.3464,-3.3723,-3.3895,-3.4042,-3.3697,-3.3499,-3.3449,-3.1255,-2.9983,-2.9839,-2.893,-2.8415,-2.8415,-2.9014,-2.9363,-2.9446,-3.0013,-3.0354,-3.0504,-3.103,-3.1378,-3.1378,-3.2655,-3.3453,-3.3464,-3.3941,-3.427,-3.4354,-3.2936,-3.2558,-3.3756,-3.4114,-3.4289,-3.4423,-3.5257,-3.5646,-3.513,-3.6302,-3.7057,-3.7194,-3.7879,-3.8467,-3.853,-3.8969,-3.9308,-3.9308,-3.9546,-3.9697,-3.9697,-3.9697,-3.9697,-3.9697,-3.9697,-3.9465,-3.8844,-3.8687,-3.8687,-3.8635,-3.8202,-3.7701,-3.7636,-3.7648,-3.6661,-3.4947,-3.4792,-3.4781,-3.3586,-3.2711,-3.216,-3.2092,-3.2092,-3.1767,-3.1064,-3.1662,-3.1977,-3.227,-3.3662,-3.4575,-3.468,-3.458,-3.3533,-3.3131,-3.337,-3.4437,-3.4868,-3.5027,-3.6207,-3.549,-3.3404,-3.188,-3.0965,-3.0437,-2.9147,-2.85,-2.8378,-2.8521,-2.9044,-2.9934,-3.0694,-3.1993,-3.3564,-3.3867,-3.4259,-3.4743,-3.4343,-3.4237,-3.4532,-3.4663,-3.5019,-3.5553,-3.5124,-3.4824,-3.4812,-3.4836,-3.4872,-3.4824,-3.4884,-3.4872,-3.4824,-3.4581,-3.4385,-3.4227,-3.2039,-3.0773,-3.0669,-2.9755,-2.9207,-2.926,-3.0214,-3.0773,-3.0773,-3.1724,-3.228,-3.2331,-3.2593,-3.2944,-3.3254,-3.4333,-3.5004,-3.5065,-3.612,-3.691,-3.715,-3.5364,-3.4757,-3.6428,-3.6651,-3.6687,-3.6757,-3.7504,-3.7817,-3.6969,-3.774,-3.8342,-3.8442,-3.8793,-3.9108,-3.9107,-3.9433,-3.9685,-3.9697,-3.9697,-3.9697,-3.9697,-3.9697,-3.9697,-3.9697,-3.9697,-3.9697,-3.9697,-3.9697,-3.9645,-3.9697,-3.9645,-3.9141,-3.8137,-3.8856,-3.8202,-3.6661,-3.6823,-3.6769,-3.5398,-3.4292,-3.3698,-3.3575,-3.3247,-3.2644,-3.1825,-3.2311,-3.318,-3.417,-3.5747,-3.7068,-3.4726,-3.4517,-3.3645,-3.337,-3.3935,-3.4956,-3.542,-3.5608,-3.7149,-3.7453,-3.6405,-3.4821,-3.3012,-3.1506,-3.118,-3.0767,-3.0356,-3.091,-3.0904,-3.0827,-3.2418,-3.3587,-3.428,-3.4997,-3.5355,-3.5404,-3.4918,-3.446,-3.4205,-3.4525,-3.5265,-3.6216,-3.6238,-3.6156,-3.6156,-3.6216,-3.6216,-3.6216,-3.6203,-3.6216,-3.6168,-3.5017,-3.4385,-3.4385,-3.2944,-3.2129,-3.2129,-3.1988,-3.1927,-3.1927,-3.2039,-3.2129,-3.218,-3.228,-3.2331,-3.2482,-3.3563,-3.4727,-3.5895,-3.6582,-3.6905,-3.7003,-3.744,-3.7863,-3.7976,-3.7678,-3.7554,-3.7839,-3.7852,-3.8003,-3.8529,-3.873,-3.8906,-3.9064,-3.9267,-3.9546,-3.9471,-3.9572,-3.9622,-3.9634,-3.9647,-3.9697,-3.9697,-3.9697,-3.9697,-3.9697,-3.9697,-3.9697,-3.9697,-3.9697,-3.9697,-3.9697,-3.9697,-3.971,-3.971,-3.9697,-3.9581,-3.9413,-3.953,-3.8945,-3.7921,-3.7429,-3.7103,-3.6789,-3.5522,-3.5279,-3.4958,-3.4136,-3.3367,-3.3323,-3.3576,-3.4078,-3.6271,-3.7406,-3.7853,-3.5973,-3.5605,-3.5271,-3.4796,-3.4582,-3.5554,-3.5796,-3.5671,-3.7287,-3.7513,-3.6722,-3.5909,-3.4691,-3.3154,-3.1788,-3.0812,-3.0317,-3.0485,-3.0972,-3.1623,-3.321,-3.435,-3.5106,-3.6409,-3.6877,-3.6428,-3.5647,-3.5312,-3.5383,-3.5276,-3.5617,-3.6411,-3.707,-3.707,-3.6593,-3.7782,-3.8134,-3.7461,-3.8437,-3.8668,-3.7774,-3.6388,-3.5731,-3.588,-3.443,-3.3563,-3.3464,-3.2744,-3.228,-3.2331,-3.3105,-3.3862,-3.4498,-3.5291,-3.6063,-3.6718,-3.6934,-3.701,-3.6895,-3.7362,-3.7992,-3.87,-3.828,-3.8412,-3.9504,-3.899,-3.863,-3.8906,-3.8705,-3.8743,-3.9258,-3.9371,-3.9446,-3.9647,-3.9697,-3.9697,-3.9697,-3.9697,-3.9697,-3.9697,-3.9697,-3.9697,-3.9697,-3.9697,-3.9697,-3.9697,-3.971,-3.9747,-3.9722,-3.9697,-3.9697,-3.9747,-3.9948,-3.9998,-3.981,-3.9697,-3.971,-3.971,-3.9697,-3.9347,-3.9445,-3.9283,-3.9145,-3.8767,-3.8005,-3.7566,-3.7603,-3.7158,-3.6477,-3.5915,-3.623,-3.7091,-3.8271,-3.8868,-3.9544,-3.724,-3.6866,-3.6925,-3.6558,-3.5954,-3.6568,-3.6607,-3.6375,-3.7495,-3.7475,-3.6681,-3.6631,-3.5994,-3.4752,-3.27,-3.1402,-3.0928,-3.1136,-3.1932,-3.313,-3.4456,-3.57,-3.6752,-3.7924,-3.8347,-3.7834,-3.7167,-3.7008,-3.7354,-3.6781,-3.6845,-3.7624,-3.8436,-3.8357,-3.7671,-3.9288,-3.9724,-3.9051,-4.0193,-4.0504,-3.982,-3.862,-3.7723,-3.7373,-3.6113,-3.5478,-3.5586,-3.4651,-3.4201,-3.4425,-3.5388,-3.6288,-3.7096,-3.81,-3.9073,-3.9999,-3.9866,-3.9342,-3.8502,-3.8971,-3.9537,-4.0004,-3.9375,-3.9389,-4.007,-3.9663,-3.9321,-3.9559,-3.9372,-3.9283,-3.9609,-3.9697,-3.9697,-3.9697,-3.9697,-3.9697,-3.9697,-3.9697,-3.9697,-3.9697,-3.9697,-3.976,-3.9898,-4.0074,-4.0224,-4.0224,-4.0187,-4.0136,-4.0149,-4.0187,-4.0174,-4.0149,-4.0513,-4.0475,-4.0061,-4.0149,-4.0099,-4.0136,-4.0224,-4.0375,-4.0651,-4.0664,-4.0661,-3.9967,-3.9959,-3.9812,-3.9418,-3.9326,-3.8923,-3.8162,-3.833,-3.9256,-3.9685,-4.0314,-4.0564,-3.8076,-3.8173,-3.8131,-3.8351,-3.8761,-3.826,-3.8017,-3.7926,-3.8104,-3.7761,-3.7291,-3.7266,-3.6883,-3.6254,-3.4585,-3.3514,-3.3146,-3.3995,-3.4755,-3.548,-3.6586,-3.7995,-3.9567,-3.9701,-3.9701,-3.9672,-3.9433,-3.9447,-3.9624,-3.9107,-3.9481,-4.0453,-4.0556,-4.0335,-3.987,-4.0537,-4.0803,-4.0772,-4.1046,-4.1425,-4.2293,-4.1814,-4.0415,-3.8469,-3.7914,-3.8097,-3.8538,-3.86,-3.8799,-3.9475,-3.9387,-3.9593,-3.9738,-3.9867,-4.029,-4.0789,-4.137,-4.1611,-4.1544,-4.1914,-4.1957,-4.1133,-4.1214,-4.1015,-4.0463,-4.0147,-3.9943,-3.9736,-3.9815,-3.9776,-3.9685,-3.9697,-3.9697,-3.9697,-3.9697,-3.9697,-3.9697,-3.9697,-3.9697,-3.9747,-3.9823,-4.0036,-4.0438,-4.0887,-4.1037,-4.1075,-4.1137,-4.1112,-4.1037,-4.11,-4.1087,-4.1087,-4.1137,-4.1062,-4.0664,-4.0701,-4.0987,-4.0987,-4.0902,-4.1191,-4.1141,-4.1116,-4.1178,-4.1329,-4.1434,-4.132,-4.1022,-4.0476,-3.9768,-3.928,-3.9384,-4.0018,-4.093,-4.1106,-4.1304,-4.036,-4.0319,-3.9577,-3.9417,-3.9566,-3.9704,-3.9567,-3.9363,-3.9972,-3.9747,-3.9031,-3.8924,-3.8604,-3.802,-3.7072,-3.6127,-3.5452,-3.6436,-3.7059,-3.7372,-3.8394,-3.9231,-3.9812,-4.0901,-4.1449,-4.1371,-4.0789,-4.0073,-3.9421,-3.9486,-3.9998,-4.0824,-4.1605,-4.1662,-4.1521,-4.284,-4.3357,-4.2795,-4.3676,-4.4182,-4.3842,-4.4013,-4.3259,-4.163,-4.081,-4.0547,-4.0745,-4.0731,-4.0877,-4.1107,-4.0717,-4.1028,-4.2164,-4.2954,-4.3083,-4.2737,-4.316,-4.3141,-4.256,-4.2887,-4.3407,-4.3715,-4.3128,-4.2978,-4.3122,-4.2606,-4.1838,-4.1119,-4.0932,-4.0642,-3.989,-3.9697,-3.9697,-3.9697,-3.9697,-3.9697,-3.9697,-3.9697,-3.9823,-4.0174,-4.0501,-4.084,-4.099,-4.1175,-4.1275,-4.1275,-4.1288,-4.1313,-4.1288,-4.1288,-4.1338,-4.1363,-4.163,-4.1794,-4.1643,-4.1354,-4.1275,-4.1263,-4.1275,-4.1555,-4.1618,-4.1731,-4.1819,-4.212,-4.2409,-4.2409,-4.1938,-4.1883,-4.1126,-4.1219,-4.1231,-4.1201,-4.2273,-4.2003,-4.1894,-4.2152,-4.2029,-4.1323,-4.0972,-4.1015,-4.0983,-4.0811,-4.0502,-4.083,-4.0587,-3.9982,-3.9885,-3.979,-3.9572,-3.9355,-3.9047,-3.8466,-3.8503,-3.8671,-3.9112,-3.9977,-4.0575,-4.1061,-4.2119,-4.2671,-4.2638,-4.2216,-4.1563,-4.1126,-4.1241,-4.1738,-4.2622,-4.3226,-4.3313,-4.33,-4.4767,-4.5183,-4.4831,-4.5686,-4.5939,-4.5434,-4.5799,-4.5644,-4.4744,-4.3987,-4.3253,-4.2711,-4.2638,-4.2763,-4.2803,-4.2507,-4.2869,-4.4091,-4.5065,-4.5268,-4.4615,-4.5011,-4.5051,-4.4379,-4.4553,-4.4918,-4.5298,-4.4642,-4.441,-4.4734,-4.3975,-4.3109,-4.2412,-4.2217,-4.1789,-4.1219,-4.0982,-4.0605,-3.9942,-3.9697,-3.9697,-3.971,-3.986,-4.0212,-4.0727,-4.1241,-4.1543,-4.163,-4.1781,-4.1882,-4.1869,-4.1869,-4.1869,-4.1856,-4.1869,-4.1856,-4.1894,-4.2195,-4.2439,-4.2401,-4.2158,-4.2057,-4.2032,-4.1932,-4.2095,-4.2158,-4.2363,-4.2527,-4.2836,-4.2986,-4.2986,-4.2986,-4.2986,-4.2986,-4.2986,-4.2668,-4.2357,-4.2698,-4.2635,-4.2459,-4.325,-4.321,-4.3265,-4.3076,-4.2875,-4.2046,-4.1616,-4.1449,-4.0603,-4.04,-4.0375,-4.0144,-4.0653,-4.0904,-4.1453,-4.1904,-4.1836,-4.0407,-3.9997,-4.0804,-4.1336,-4.2173,-4.3041,-4.322,-4.3349,-4.3409,-4.3932,-4.4474,-4.4727,-4.4184,-4.4496,-4.5704,-4.526,-4.5025,-4.5266,-4.5896,-4.6264,-4.6135,-4.6222,-4.6548,-4.7146,-4.703,-4.6928,-4.6885,-4.684,-4.6049,-4.4438,-4.4394,-4.4676,-4.5149,-4.5126,-4.5263,-4.5287,-4.5935,-4.6279,-4.6284,-4.6834,-4.7148,-4.7119,-4.6989,-4.6403,-4.5869,-4.5448,-4.501,-4.4396,-4.4022,-4.3787,-4.3551,-4.349,-4.3409,-4.3279,-4.3191,-4.2319,-4.0224,-3.9942,-3.9929,-3.9824,-4.0187,-4.0674,-4.1225,-4.1819,-4.2187,-4.2313,-4.2539,-4.2723,-4.276,-4.2773,-4.276,-4.271,-4.271,-4.2886,-4.2873,-4.2798,-4.276,-4.2873,-4.2961,-4.2936,-4.2898,-4.2773,-4.276,-4.2685,-4.2748,-4.2723,-4.2986,-4.2986,-4.2986,-4.2986,-4.2986,-4.2986,-4.2986,-4.2986,-4.2986,-4.2898,-4.2823,-4.2873,-4.3305,-4.3305,-4.3305,-4.3305,-4.325,-4.29,-4.2765,-4.2739,-4.2345,-4.2263,-4.2351,-4.2731,-4.3023,-4.3299,-4.385,-4.4004,-4.3741,-4.3392,-4.3066,-4.2647,-4.2706,-4.3167,-4.3862,-4.4003,-4.4242,-4.4556,-4.4407,-4.4646,-4.5065,-4.4646,-4.499,-4.5906,-4.5633,-4.5813,-4.6591,-4.689,-4.68,-4.6324,-4.6279,-4.6247,-4.6022,-4.6396,-4.6411,-4.6067,-4.68,-4.6749,-4.5795,-4.615,-4.6457,-4.6651,-4.6247,-4.5992,-4.6112,-4.6636,-4.6995,-4.7025,-4.716,-4.7309,-4.7309,-4.7309,-4.7164,-4.6785,-4.6682,-4.6535,-4.6211,-4.6018,-4.5629,-4.4978,-4.478,-4.4549,-4.3796,-4.3952,-4.3318,-4.1272,-4.0982,-4.0618,-4.0079,-4.0551,-4.1266,-4.1831,-4.2384,-4.274,-4.2791,-4.2936,-4.2974,-4.2986,-4.2986,-4.2986,-4.2986,-4.2986,-4.2986,-4.2986,-4.2986,-4.2986,-4.2986,-4.2986,-4.2986,-4.2986,-4.2986,-4.2986,-4.2986,-4.2986,-4.2986,-4.2986,-4.2986,-4.2986,-4.2986,-4.2986,-4.2986,-4.2986,-4.2986,-4.2986,-4.2986,-4.2986,-4.2986,-4.3305,-4.3305,-4.3305,-4.3305,-4.3305,-4.3305,-4.3305,-4.3305,-4.3305,-4.3424,-4.3708,-4.4097,-4.4616,-4.5005,-4.5244,-4.5214,-4.508,-4.5259,-4.4855,-4.4112,-4.4062,-4.4317,-4.4646,-4.4676,-4.487,-4.5155,-4.487,-4.4885,-4.5259,-4.4945,-4.5203,-4.6067,-4.5888,-4.6202,-4.7174,-4.7055,-4.6696,-4.6309,-4.601,-4.5738,-4.5469,-4.5708,-4.5723,-4.5529,-4.6367,-4.6681,-4.6354,-4.695,-4.7309,-4.7249,-4.689,-4.6711,-4.6726,-4.707,-4.7309,-4.7309,-4.7309,-4.7309,-4.7309,-4.7309,-4.7309,-4.7309,-4.7309,-4.7266,-4.7266,-4.7309,-4.6873,-4.6299,-4.6341,-4.6142,-4.5605,-4.5924,-4.5439,-4.3931,-4.2814,-4.185,-4.0982,-4.1204,-4.1844,-4.2414,-4.2816,-4.2949,-4.2986,-4.2986,-4.2986,-4.2986,-4.2986,-4.2986,-4.2986,-4.2986,-4.2986,-4.2986,-4.2986,-4.2986,-4.2986,-4.2986,-4.2986,-4.2986,-4.2986,-4.2986,-4.2986,-4.2986,-4.2986,-4.2986,-4.2986,-4.2986,-4.2986,-4.2986,-4.2986,-4.2986,-4.2862,-4.2986,-4.2986,-4.2986,-4.2986,-4.3305,-4.3305,-4.3305,-4.3305,-4.3319,-4.3364,-4.3364,-4.3305,-4.3469,-4.3838,-4.4227,-4.4526,-4.517,-4.5948,-4.5768,-4.5813,-4.6112,-4.5798,-4.5514,-4.5349,-4.5349,-4.5454,-4.5364,-4.5349,-4.5409,-4.5409,-4.5289,-4.5304,-4.5454,-4.5289,-4.5648,-4.619,-4.6202,-4.6501,-4.6815,-4.6531,-4.6202,-4.5963,-4.5514,-4.52,-4.508,-4.5214,-4.517,-4.514,-4.5918,-4.6279,-4.6234,-4.689,-4.7309,-4.7309,-4.7249,-4.7204,-4.7279,-4.7309,-4.7309,-4.7309,-4.7309,-4.7309,-4.7309,-4.7309,-4.7309,-4.7309,-4.7309,-4.7309,-4.7309,-4.7309,-4.7251,-4.715,-4.7642,-4.8029,-4.7985,-4.8581,-4.833,-4.7361,-4.5005,-4.3334,-4.2608,-4.2589,-4.2968,-4.3123,-4.3129,-4.3085,-4.3085,-4.2986,-4.2986,-4.2986,-4.2986,-4.2986,-4.2986,-4.2986,-4.2986,-4.2986,-4.2986,-4.2986,-4.2986,-4.2986,-4.2986,-4.2986,-4.2986,-4.2986,-4.2986,-4.2986,-4.2986,-4.2986,-4.2986,-4.2986,-4.2986,-4.2986,-4.2681,-4.2331,-4.2444,-4.2806,-4.2737,-4.2444,-4.2737,-4.3305,-4.3305,-4.3305,-4.3305,-4.3379,-4.3783,-4.3723,-4.3469,-4.4377,-4.4526,-4.4601,-4.5379,-4.5933,-4.6279,-4.6651,-4.6636,-4.6414,-4.6621,-4.6471,-4.6187,-4.6591,-4.6441,-4.6127,-4.6052,-4.6052,-4.5992,-4.5559,-4.5559,-4.5963,-4.5469,-4.5618,-4.6234,-4.5813,-4.5678,-4.5753,-4.5678,-4.5289,-4.49,-4.4706,-4.4317,-4.4032,-4.4377,-4.4317,-4.3977,-4.5397,-4.5992,-4.5768,-4.6696,-4.7309,-4.7309,-4.7309,-4.7309,-4.7309,-4.7309,-4.7309,-4.7309,-4.7309,-4.7309,-4.7309,-4.7309,-4.7309,-4.7309,-4.7309,-4.7309,-4.7309,-4.7309,-4.7309,-4.7414,-4.7893,-4.8117,-4.7967,-4.903,-4.9358,-4.8615,-4.6588,-4.513,-4.507,-4.5218,-4.5071,-4.4621,-4.4427,-4.3962,-4.324,-4.2986,-4.2986,-4.2986,-4.2986,-4.2986,-4.2986,-4.2986,-4.2986,-4.2986,-4.2986,-4.2986,-4.2986,-4.2986,-4.2986,-4.2986,-4.2986,-4.2986,-4.2986,-4.2986,-4.2986,-4.2986,-4.2986,-4.2986,-4.2986,-4.2986,-4.2444,-4.2024,-4.1785,-4.2024,-4.1488,-4.1191,-4.2024,-4.3305,-4.3305,-4.3305,-4.3454,-4.3678,-4.3868,-4.3947,-4.4227,-4.4616,-4.505,-4.5289,-4.5891,-4.6444,-4.677,-4.7115,-4.7115,-4.683,-4.713,-4.707,-4.686,-4.71,-4.704,-4.6785,-4.6741,-4.6741,-4.6606,-4.5738,-4.5559,-4.5678,-4.5214,-4.5155,-4.5379,-4.5364,-4.5289,-4.5334,-4.4975,-4.4721,-4.4347,-4.4077,-4.3648,-4.3364,-4.3648,-4.3703,-4.3648,-4.4964,-4.5828,-4.6172,-4.692,-4.7309,-4.7309,-4.7309,-4.7309,-4.7309,-4.7309,-4.7309,-4.7309,-4.7309,-4.7309,-4.7309,-4.7309,-4.7309,-4.7309,-4.7309,-4.7309,-4.7309,-4.7309,-4.7354,-4.7758,-4.8087,-4.8192,-4.8416,-4.9434,-4.9902,-4.956,-4.8581,-4.7551,-4.6859,-4.656,-4.6068,-4.5408,-4.4941,-4.4481,-4.3184,-4.303,-4.2986,-4.2986,-4.2986,-4.2986,-4.2986,-4.2986,-4.2986,-4.2986,-4.2986,-4.2986,-4.2986,-4.2986,-4.2986,-4.2986,-4.2986,-4.2986,-4.2986,-4.2986,-4.2986,-4.2986,-4.2986,-4.2986,-4.2986,-4.2974,-4.2737,-4.2319,-4.1728,-4.1133,-4.0834,-4.0892,-4.1602,-4.3305,-4.3305,-4.3305,-4.3633,-4.4047,-4.3753,-4.4198,-4.4926,-4.5015,-4.5383,-4.6082,-4.6324,-4.6785,-4.7309,-4.7264,-4.7294,-4.7264,-4.7279,-4.7294,-4.7234,-4.7294,-4.7189,-4.701,-4.713,-4.6995,-4.6711,-4.5768,-4.5319,-4.5125,-4.4601,-4.4377,-4.4586,-4.496,-4.505,-4.4811,-4.4451,-4.4227,-4.4062,-4.3633,-4.3409,-4.3305,-4.3379,-4.3364,-4.3544,-4.4646,-4.6007,-4.6815,-4.7309,-4.7309,-4.7309,-4.7309,-4.7309,-4.7309,-4.7309,-4.7309,-4.7309,-4.7309,-4.7309,-4.7309,-4.7309,-4.7309,-4.7309,-4.7309,-4.7369,-4.7474,-4.7638,-4.7923,-4.8356,-4.8446,-4.885,-4.9224,-4.9883,-5.0105,-5.0203,-5.0683,-4.9863,-4.8289,-4.7503,-4.6991,-4.5608,-4.5462,-4.4589,-4.3645,-4.3073,-4.2986,-4.2986,-4.2986,-4.2986,-4.2986,-4.2986,-4.2986,-4.2986,-4.2986,-4.2986,-4.2986,-4.2986,-4.2986,-4.2986,-4.2986,-4.2986,-4.2986,-4.2986,-4.2986,-4.2986,-4.2986,-4.2986,-4.2986,-4.2974,-4.2862,-4.2263,-4.1488,-4.1076,-4.0777,-4.1133,-4.1728,-4.3305,-4.3305,-4.3305,-4.3379,-4.3688,-4.4684,-4.4941,-4.4738,-4.631,-4.6661,-4.6509,-4.6845,-4.7145,-4.7309,-4.7309,-4.7309,-4.7309,-4.7309,-4.7309,-4.7309,-4.7309,-4.698,-4.677,-4.698,-4.6666,-4.5978,-4.5514,-4.5035,-4.4601,-4.4407,-4.4317,-4.4362,-4.4451,-4.4287,-4.3843,-4.3813,-4.3499,-4.3484,-4.3349,-4.3305,-4.3305,-4.3305,-4.3334,-4.3529,-4.4676,-4.5933,-4.701,-4.7309,-4.7309,-4.7309,-4.7309,-4.7309,-4.7309,-4.7309,-4.7309,-4.7309,-4.7309,-4.7309,-4.7309,-4.7309,-4.7309,-4.7309,-4.7339,-4.7534,-4.8087,-4.8476,-4.882,-4.9149,-4.9508,-4.9688,-4.9838,-4.9628,-5.0032,-5.0614,-5.1018,-5.0964,-5.0445,-5.0239,-4.947,-4.8325,-4.7197,-4.6122,-4.4738,-4.37,-4.3394,-4.3141,-4.303,-4.3042,-4.3085,-4.3141,-4.2986,-4.2986,-4.2986,-4.2986,-4.2986,-4.2986,-4.2986,-4.2986,-4.2986,-4.2986,-4.2986,-4.2986,-4.2986,-4.2986,-4.2986,-4.2986,-4.2986,-4.2918,-4.2862,-4.2024,-4.1305,-4.0765,-4.065,-4.1121,-4.1305,-4.3305,-4.3284,-4.3438,-4.3883,-4.4479,-4.5154,-4.5881,-4.6703,-4.7504,-4.7789,-4.7592,-4.7867,-4.7764,-4.7294,-4.7309,-4.7309,-4.7309,-4.7309,-4.7309,-4.7234,-4.7025,-4.6608,-4.6352,-4.6292,-4.5903,-4.5274,-4.4945,-4.4616,-4.4332,-4.4062,-4.3988,-4.4302,-4.4317,-4.4227,-4.3813,-4.3708,-4.3604,-4.3364,-4.3305,-4.3305,-4.3305,-4.3305,-4.3723,-4.4246,-4.5244,-4.6292,-4.7204,-4.7309,-4.7309,-4.7309,-4.7309,-4.7309,-4.7309,-4.7309,-4.7309,-4.7309,-4.7309,-4.7309,-4.7309,-4.7309,-4.7309,-4.7309,-4.7309,-4.7489,-4.7893,-4.8431,-4.9,-4.9284,-4.9538,-4.9763,-4.9793,-4.9912,-5.0182,-5.0556,-5.105,-5.1214,-5.1229,-5.1182,-5.0698,-4.9518,-4.8439,-4.7415,-4.6226,-4.5102,-4.4994,-4.5142,-4.4167,-4.4071,-4.3755,-4.37,-4.3141,-4.2986,-4.2986,-4.2986,-4.2986,-4.2986,-4.2986,-4.2986,-4.2986,-4.2986,-4.2986,-4.2986,-4.2986,-4.2986,-4.2986,-4.2986,-4.2986,-4.2918,-4.2918,-4.2569,-4.1899,-4.0822,-4.058,-4.1533,-4.1362,-4.3606,-4.3629,-4.3929,-4.4765,-4.5678,-4.5782,-4.7041,-4.8914,-4.8886,-4.8751,-4.8761,-4.8784,-4.8141,-4.7467,-4.7309,-4.7309,-4.7309,-4.7309,-4.7309,-4.7249,-4.6696,-4.6322,-4.6022,-4.5529,-4.5095,-4.496,-4.4601,-4.4332,-4.4182,-4.3798,-4.3902,-4.4242,-4.4152,-4.4018,-4.4092,-4.3988,-4.3673,-4.3319,-4.3305,-4.3305,-4.3305,-4.3334,-4.3943,-4.5035,-4.5603,-4.6411,-4.7085,-4.7309,-4.7309,-4.7309,-4.7309,-4.7309,-4.7309,-4.7309,-4.7309,-4.7309,-4.7309,-4.7309,-4.7309,-4.7309,-4.7309,-4.7309,-4.7309,-4.7399,-4.7623,-4.8356,-4.903,-4.9299,-4.9583,-4.9598,-4.9524,-4.9838,-5.0166,-5.048,-5.0898,-5.1169,-5.1229,-5.1229,-5.0603,-4.9921,-4.921,-4.8289,-4.7619,-4.6799,-4.6991,-4.6888,-4.582,-4.4994,-4.4684,-4.4058,-4.3338,-4.2986,-4.2986,-4.2986,-4.2986,-4.2986,-4.2986,-4.2986,-4.2986,-4.2986,-4.2986,-4.2986,-4.2986,-4.2986,-4.2986,-4.2986,-4.2986,-4.2986,-4.2986,-4.2986,-4.2613,-4.1659,-4.1716,-4.2069,-4.1374,-4.5086,-4.4847,-4.5504,-4.5945,-4.6326,-4.7472,-4.8529,-4.9394,-5.0138,-4.9748,-4.8951,-4.8784,-4.8335,-4.7581,-4.7309,-4.7309,-4.7424,-4.7381,-4.7309,-4.7174,-4.6576,-4.6037,-4.5514,-4.4825,-4.4257,-4.3873,-4.4018,-4.4317,-4.4317,-4.4227,-4.4182,-4.4197,-4.3913,-4.3648,-4.3469,-4.3075,-4.3225,-4.329,-4.3305,-4.3305,-4.3305,-4.3454,-4.3943,-4.5125,-4.5514,-4.6187,-4.7025,-4.7294,-4.7309,-4.7309,-4.7309,-4.7309,-4.7309,-4.7309,-4.7309,-4.7309,-4.7309,-4.7309,-4.7309,-4.7309,-4.7309,-4.7309,-4.7309,-4.7623,-4.8177,-4.9075,-4.9643,-4.9972,-5.0077,-5.0077,-5.0046,-5.0211,-5.048,-5.0823,-5.1094,-5.1229,-5.1229,-5.1167,-5.112,-5.0603,-4.9873,-4.9259,-4.8802,-4.8389,-4.8225,-4.767,-4.6487,-4.5714,-4.5302,-4.4318,-4.3141,-4.2986,-4.2986,-4.2986,-4.2986,-4.2986,-4.2986,-4.2986,-4.2986,-4.2986,-4.2986,-4.2986,-4.2986,-4.2986,-4.2986,-4.2986,-4.2986,-4.2986,-4.2986,-4.2986,-4.2737,-4.2488,-4.2319,-4.2137,-4.1431,-4.6059,-4.5741,-4.6583,-4.7145,-4.761,-4.8431,-4.966,-5.0861,-5.1356,-5.1142,-5.0434,-4.9836,-4.9069,-4.8293,-4.8072,-4.8072,-4.7988,-4.7467,-4.7352,-4.7115,-4.6292,-4.5663,-4.514,-4.4317,-4.3693,-4.3559,-4.3932,-4.4332,-4.4317,-4.4317,-4.4496,-4.4721,-4.4466,-4.4197,-4.3868,-4.3643,-4.3314,-4.3379,-4.3305,-4.3305,-4.3349,-4.3559,-4.4257,-4.4706,-4.5469,-4.6157,-4.6621,-4.7204,-4.7294,-4.7309,-4.7309,-4.7309,-4.7309,-4.7309,-4.7309,-4.7309,-4.7309,-4.7309,-4.7309,-4.7309,-4.7309,-4.7309,-4.7309,-4.7623,-4.8297,-4.9105,-5.0032,-5.0571,-5.075,-5.0704,-5.0735,-5.0674,-5.0868,-5.1109,-5.1229,-5.1229,-5.1229,-5.1229,-5.1229,-5.1229,-5.0713,-5.0302,-5.0302,-4.9839,-4.9421,-4.8439,-4.7211,-4.6487,-4.603,-4.463,-4.3295,-4.2986,-4.2986,-4.2986,-4.2986,-4.2986,-4.2986,-4.2986,-4.2986,-4.2986,-4.2986,-4.2986,-4.2986,-4.2986,-4.2986,-4.2986,-4.2986,-4.2986,-4.2986,-4.2986,-4.2862,-4.2681,-4.2444,-4.2024,-4.1488,-4.712,-4.6831,-4.7902,-4.8564,-4.9011,-4.948,-5.0762,-5.2283,-5.2504,-5.2249,-5.1819,-5.1059,-5.0126,-4.9336,-4.911,-4.911,-4.9069,-4.8282,-4.7927,-4.7241,-4.6501,-4.577,-4.4837,-4.4212,-4.3574,-4.3723,-4.3977,-4.4392,-4.4586,-4.4601,-4.4855,-4.4915,-4.5095,-4.4691,-4.4077,-4.3614,-4.3599,-4.3484,-4.3305,-4.3305,-4.3439,-4.3768,-4.4302,-4.4526,-4.5559,-4.6187,-4.6681,-4.707,-4.7279,-4.7309,-4.7309,-4.7309,-4.7309,-4.7309,-4.7309,-4.7309,-4.7309,-4.7309,-4.7309,-4.7309,-4.7309,-4.7309,-4.7309,-4.7668,-4.8327,-4.9134,-5.0002,-5.0945,-5.1199,-5.1154,-5.1109,-5.1184,-5.1199,-5.1214,-5.1229,-5.1229,-5.1229,-5.1229,-5.1229,-5.1229,-5.1229,-5.1073,-5.087,-5.0807,-5.0302,-4.9776,-4.8589,-4.7299,-4.663,-4.4941,-4.37,-4.3184,-4.2986,-4.2986,-4.2986,-4.2986,-4.2986,-4.2986,-4.2986,-4.2986,-4.2986,-4.2986,-4.2986,-4.2986,-4.2986,-4.2986,-4.2986,-4.2986,-4.2986,-4.2986,-4.2986,-4.2918,-4.2681,-4.2681,-4.2388,-4.8909,-4.8789,-5.0148,-5.0465,-5.0145,-5.1269,-5.2384,-5.323,-5.3298,-5.2769,-5.2029,-5.1724,-5.108,-5.0358,-5.0126,-5.0181,-5.0142,-4.9836,-4.8956,-4.7865,-4.7369,-4.6219,-4.4713,-4.4347,-4.4092,-4.4082,-4.4272,-4.4661,-4.4945,-4.508,-4.5192,-4.5188,-4.4449,-4.3618,-4.3989,-4.3539,-4.2865,-4.324,-4.3344,-4.3305,-4.3319,-4.3409,-4.4062,-4.4781,-4.5379,-4.5918,-4.6741,-4.71,-4.7294,-4.7309,-4.7309,-4.7309,-4.7309,-4.7309,-4.7309,-4.7309,-4.7309,-4.7309,-4.7309,-4.7309,-4.7309,-4.7309,-4.7309,-4.7668,-4.8446,-4.9479,-5.0436,-5.1079,-5.1229,-5.1229,-5.1229,-5.1229,-5.1229,-5.1229,-5.1229,-5.1229,-5.1229,-5.1229,-5.1229,-5.1229,-5.1229,-5.1229,-5.1073,-5.112,-5.1073,-5.0603,-4.9936,-4.8539,-4.694,-4.5142,-4.3852,-4.324,-4.2986,-4.2986,-4.2986,-4.2986,-4.2986,-4.2986,-4.2986,-4.2986,-4.2986,-4.2986,-4.2986,-4.2986,-4.2986,-4.2986,-4.2986,-4.2986,-4.2986,-4.2986,-4.2986,-4.2986,-4.2986,-4.2986,-4.2986,-4.9431,-4.9729,-5.0777,-5.1031,-5.0879,-5.1877,-5.2756,-5.3399,-5.3484,-5.3264,-5.2714,-5.2117,-5.1614,-5.1245,-5.0719,-5.0703,-5.1005,-5.0725,-4.971,-4.8533,-4.7926,-4.6772,-4.5195,-4.4511,-4.4317,-4.4599,-4.4676,-4.4975,-4.5244,-4.5353,-4.5346,-4.5422,-4.5007,-4.4902,-4.4639,-4.4104,-4.4014,-4.3967,-4.3669,-4.3344,-4.3305,-4.3334,-4.3574,-4.4227,-4.49,-4.5618,-4.6202,-4.701,-4.7264,-4.7309,-4.7309,-4.7309,-4.7309,-4.7309,-4.7309,-4.7309,-4.7309,-4.7309,-4.7309,-4.7309,-4.7309,-4.7324,-4.7399,-4.7773,-4.8775,-4.9987,-5.0808,-5.1184,-5.1229,-5.1229,-5.1229,-5.1229,-5.1229,-5.1229,-5.1229,-5.1229,-5.1229,-5.1229,-5.1229,-5.1229,-5.1229,-5.1229,-5.1229,-5.1229,-5.1167,-5.0917,-5.0047,-4.8752,-4.6888,-4.4833,-4.3797,-4.3129,-4.2974,-4.2986,-4.2986,-4.2986,-4.2986,-4.2986,-4.2986,-4.2986,-4.2986,-4.2986,-4.2986,-4.2986,-4.2986,-4.2986,-4.2986,-4.2986,-4.2986,-4.2986,-4.2986,-4.2986,-4.2986,-4.2986,-4.2918,-4.9186,-4.9915,-5.0828,-5.1014,-5.0794,-5.1826,-5.2638,-5.3162,-5.3416,-5.3518,-5.3314,-5.2714,-5.2312,-5.207,-5.1487,-5.1477,-5.2224,-5.1288,-5.0316,-4.9423,-4.8647,-4.7567,-4.6297,-4.5343,-4.5266,-4.5245,-4.603,-4.6251,-4.6217,-4.6146,-4.6157,-4.5734,-4.5668,-4.5803,-4.5832,-4.5128,-4.4517,-4.409,-4.3591,-4.3329,-4.3305,-4.3305,-4.3424,-4.3888,-4.4601,-4.5364,-4.5708,-4.6636,-4.7279,-4.7309,-4.7309,-4.7309,-4.7309,-4.7309,-4.7309,-4.7309,-4.7309,-4.7309,-4.7309,-4.7309,-4.7309,-4.7399,-4.7848,-4.8506,-4.9703,-5.0825,-5.1468,-5.1543,-5.1528,-5.1439,-5.1259,-5.1229,-5.1229,-5.1229,-5.1229,-5.1229,-5.1229,-5.1229,-5.1229,-5.1229,-5.1229,-5.1229,-5.1229,-5.1229,-5.1167,-5.1073,-5.0143,-4.8901,-4.6954,-4.4792,-4.37,-4.303,-4.2974,-4.2986,-4.2986,-4.2986,-4.2986,-4.2986,-4.2986,-4.2986,-4.2986,-4.2986,-4.2986,-4.2986,-4.2986,-4.2986,-4.2986,-4.2986,-4.2986,-4.2986,-4.2986,-4.2986,-4.2986,-4.2986,-4.2974,-4.8041,-4.9204,-5.0559,-5.0405,-4.9458,-5.1437,-5.2367,-5.2655,-5.3213,-5.3416,-5.3382,-5.3348,-5.3246,-5.3078,-5.2488,-5.242,-5.3264,-5.2539,-5.1518,-5.0909,-5.0435,-4.9058,-4.767,-4.7002,-4.7199,-4.7616,-4.7745,-4.7852,-4.8089,-4.7937,-4.7092,-4.5979,-4.6285,-4.6207,-4.6048,-4.5634,-4.4571,-4.4028,-4.3448,-4.3344,-4.3305,-4.3349,-4.3529,-4.4167,-4.487,-4.5574,-4.6217,-4.6845,-4.7279,-4.7279,-4.7309,-4.7309,-4.7309,-4.7309,-4.7309,-4.7309,-4.7309,-4.7309,-4.7309,-4.7309,-4.7339,-4.7653,-4.8401,-4.9479,-5.0616,-5.1558,-5.2052,-5.2112,-5.2127,-5.1828,-5.1528,-5.1244,-5.1379,-5.1229,-5.1229,-5.1229,-5.1229,-5.1229,-5.1229,-5.1229,-5.1229,-5.1229,-5.1229,-5.1229,-5.1229,-5.112,-5.0397,-4.9161,-4.7159,-4.5155,-4.3865,-4.3085,-4.303,-4.2986,-4.2986,-4.2986,-4.2986,-4.2986,-4.2986,-4.2986,-4.2986,-4.2986,-4.2986,-4.2986,-4.2986,-4.2986,-4.2986,-4.2986,-4.2986,-4.2986,-4.2986,-4.2986,-4.2986,-4.2986,-4.2986,-4.7754,-4.8379,-4.892,-4.9373,-4.9847,-5.208,-5.3044,-5.2993,-5.2858,-5.2756,-5.2824,-5.3264,-5.3501,-5.3264,-5.2756,-5.2739,-5.3298,-5.2672,-5.1998,-5.1678,-5.1221,-5.0017,-4.876,-4.8288,-4.8509,-4.854,-4.8748,-4.8984,-4.8978,-4.9487,-4.8865,-4.7961,-4.729,-4.7505,-4.7273,-4.6295,-4.5122,-4.4243,-4.363,-4.3305,-4.3305,-4.3305,-4.3424,-4.3663,-4.4347,-4.5005,-4.5633,-4.6294,-4.683,-4.7189,-4.7294,-4.7309,-4.7309,-4.7309,-4.7309,-4.7309,-4.7309,-4.7309,-4.7324,-4.7354,-4.7474,-4.8132,-4.9105,-5.0287,-5.1289,-5.1872,-5.2411,-5.2621,-5.277,-5.2426,-5.1947,-5.1798,-5.1753,-5.1394,-5.1229,-5.1229,-5.1229,-5.1229,-5.1229,-5.1229,-5.1229,-5.1229,-5.1229,-5.1229,-5.1229,-5.112,-5.035,-4.9308,-4.7313,-4.5515,-4.4167,-4.3141,-4.3042,-4.2986,-4.2986,-4.2986,-4.2986,-4.2986,-4.2986,-4.2986,-4.2986,-4.2986,-4.2986,-4.2986,-4.2986,-4.2986,-4.2986,-4.2986,-4.2986,-4.2986,-4.2986,-4.2986,-4.2986,-4.2986,-4.2986,-4.768,-4.7926,-4.8392,-4.8883,-4.9695,-5.1623,-5.2486,-5.2435,-5.2131,-5.2131,-5.235,-5.3112,-5.3331,-5.2993,-5.2367,-5.2384,-5.2689,-5.2318,-5.2101,-5.1861,-5.1518,-5.0537,-4.9627,-4.9224,-4.9436,-4.9284,-4.9857,-5.0324,-5.0435,-5.0993,-5.022,-4.9277,-4.8662,-4.8768,-4.8257,-4.7205,-4.5726,-4.4781,-4.3888,-4.3344,-4.3305,-4.3305,-4.3305,-4.3514,-4.4242,-4.487,-4.5544,-4.6247,-4.6905,-4.7189,-4.7309,-4.7309,-4.7309,-4.7309,-4.7309,-4.7309,-4.7309,-4.7309,-4.7339,-4.7563,-4.7893,-4.8611,-4.9793,-5.0855,-5.1693,-5.2396,-5.3174,-5.3369,-5.3309,-5.2935,-5.2291,-5.1917,-5.1663,-5.1259,-5.1229,-5.1229,-5.1229,-5.1229,-5.1229,-5.1229,-5.1229,-5.1229,-5.1229,-5.1229,-5.1229,-5.0964,-5.0095,-4.9014,-4.7415,-4.5767,-4.4427,-4.356,-4.2986,-4.2986,-4.2986,-4.2986,-4.2986,-4.2986,-4.2986,-4.2986,-4.2986,-4.2986,-4.2986,-4.2986,-4.2986,-4.2986,-4.2986,-4.2986,-4.2986,-4.2986,-4.2986,-4.2986,-4.2986,-4.2986,-4.2986,-4.7694,-4.8061,-4.9357,-4.9171,-4.8409,-4.9593,-5.0355,-5.0744,-5.1116,-5.1606,-5.2164,-5.2976,-5.3044,-5.2418,-5.1843,-5.208,-5.2401,-5.1894,-5.1763,-5.2202,-5.2018,-5.0923,-5.0469,-5.0322,-5.0727,-5.1241,-5.1631,-5.1932,-5.2085,-5.2135,-5.1376,-5.0465,-4.9862,-4.9436,-4.8866,-4.7138,-4.5762,-4.4834,-4.3888,-4.3409,-4.3305,-4.3305,-4.3305,-4.3544,-4.4362,-4.4975,-4.5454,-4.6322,-4.6965,-4.7249,-4.7309,-4.7309,-4.7309,-4.7309,-4.7309,-4.7309,-4.7309,-4.7324,-4.7369,-4.7923,-4.8551,-4.9284,-5.0451,-5.1618,-5.2815,-5.3593,-5.4012,-5.4087,-5.3698,-5.3025,-5.2336,-5.1738,-5.1528,-5.1274,-5.1244,-5.1229,-5.1229,-5.1229,-5.1229,-5.1229,-5.1229,-5.1229,-5.1229,-5.1229,-5.1229,-5.0807,-4.9887,-4.8752,-4.7568,-4.6643,-4.5568,-4.4167,-4.3547,-4.3184,-4.3184,-4.303,-4.2986,-4.2986,-4.2986,-4.2986,-4.2986,-4.2986,-4.2986,-4.2986,-4.2986,-4.2986,-4.2986,-4.2986,-4.2986,-4.2986,-4.2986,-4.2986,-4.2986,-4.2986,-4.2986,-4.7376,-4.7922,-4.8443,-4.8663,-4.8832,-5.0202,-5.0828,-5.0879,-5.1082,-5.1082,-5.1133,-5.2114,-5.2604,-5.2232,-5.2164,-5.2283,-5.2756,-5.2334,-5.235,-5.2892,-5.2638,-5.2283,-5.1792,-5.1708,-5.2063,-5.2181,-5.2655,-5.3044,-5.3061,-5.301,-5.252,-5.1674,-5.0557,-4.9712,-4.8698,-4.7273,-4.5977,-4.5488,-4.4343,-4.3305,-4.3305,-4.3305,-4.3305,-4.3349,-4.4257,-4.49,-4.5319,-4.6322,-4.692,-4.7249,-4.7309,-4.7309,-4.7309,-4.7309,-4.7309,-4.7309,-4.7324,-4.7534,-4.7952,-4.8581,-4.9224,-5.0062,-5.1109,-5.2247,-5.3114,-5.3817,-5.4311,-5.4551,-5.4057,-5.3443,-5.295,-5.2276,-5.1872,-5.1349,-5.1229,-5.1229,-5.1229,-5.1229,-5.1229,-5.1229,-5.1229,-5.1229,-5.1229,-5.1409,-5.1439,-5.1394,-5.067,-4.9722,-4.8603,-4.8239,-4.7415,-4.5515,-4.4372,-4.3797,-4.3381,-4.3184,-4.303,-4.2986,-4.2986,-4.2986,-4.2986,-4.2986,-4.2986,-4.2986,-4.2986,-4.2986,-4.2986,-4.2986,-4.2986,-4.2986,-4.2986,-4.2986,-4.2986,-4.2986,-4.2986,-4.7479,-4.7906,-4.8206,-4.8531,-4.912,-5.005,-5.0338,-5.0219,-5.0557,-5.0524,-5.0507,-5.1657,-5.2317,-5.2317,-5.2367,-5.2486,-5.301,-5.2604,-5.2097,-5.2807,-5.2976,-5.2181,-5.1961,-5.2604,-5.2435,-5.2621,-5.3044,-5.3484,-5.3433,-5.3484,-5.2959,-5.2063,-5.1116,-5.0456,-4.9254,-4.7815,-4.6173,-4.5582,-4.4426,-4.3305,-4.3305,-4.3305,-4.3305,-4.3544,-4.4167,-4.49,-4.5424,-4.6097,-4.683,-4.7189,-4.7309,-4.7309,-4.7309,-4.7309,-4.7309,-4.7309,-4.7354,-4.7758,-4.8506,-4.891,-4.9613,-5.051,-5.1813,-5.265,-5.3279,-5.4072,-5.464,-5.4805,-5.4371,-5.3788,-5.3174,-5.2531,-5.1813,-5.1274,-5.1229,-5.1229,-5.1229,-5.1229,-5.1229,-5.1229,-5.1229,-5.1229,-5.1274,-5.1528,-5.1693,-5.1648,-5.1541,-5.0537,-4.962,-4.9239,-4.8553,-4.6709,-4.5168,-4.4507,-4.3878,-4.3338,-4.3197,-4.3042,-4.2986,-4.2986,-4.2986,-4.2986,-4.2986,-4.2986,-4.2986,-4.2986,-4.2986,-4.2986,-4.2986,-4.2986,-4.2986,-4.2986,-4.2986,-4.2986,-4.2986,-4.7855,-4.8003,-4.8697,-4.8951,-4.8968,-4.8951,-4.8578,-4.8122,-4.9424,-4.9982,-5.0135,-5.1539,-5.2198,-5.23,-5.235,-5.2503,-5.2587,-5.2503,-5.2232,-5.2012,-5.257,-5.1691,-5.1572,-5.2012,-5.2553,-5.279,-5.3078,-5.3518,-5.3518,-5.3518,-5.3078,-5.2452,-5.1691,-5.1019,-4.9826,-4.809,-4.6603,-4.5911,-4.4634,-4.3623,-4.3349,-4.3305,-4.3394,-4.3738,-4.4511,-4.514,-4.5768,-4.6501,-4.7055,-4.7309,-4.7309,-4.7309,-4.7309,-4.7309,-4.7309,-4.7309,-4.7309,-4.7997,-4.876,-4.912,-4.9808,-5.0765,-5.2172,-5.2875,-5.3503,-5.4251,-5.4925,-5.4805,-5.4311,-5.3713,-5.3114,-5.2291,-5.1468,-5.1289,-5.1229,-5.1229,-5.1229,-5.1229,-5.1229,-5.1229,-5.1229,-5.1244,-5.1334,-5.1558,-5.1992,-5.2022,-5.1849,-5.1189,-5.0373,-4.9883,-4.8993,-4.7341,-4.6018,-4.5221,-4.4505,-4.3576,-4.3247,-4.3049,-4.2999,-4.2986,-4.2986,-4.2986,-4.2986,-4.2986,-4.2986,-4.2986,-4.2986,-4.2986,-4.2986,-4.2986,-4.2986,-4.2986,-4.2986,-4.2986,-4.2986,-4.7124,-4.7242,-4.8477,-4.8714,-4.8189,-4.7665,-4.7597,-4.7956,-4.8413,-4.8798,-4.9407,-5.0879,-5.186,-5.2317,-5.2892,-5.3095,-5.3145,-5.3145,-5.3095,-5.2976,-5.2841,-5.2756,-5.2739,-5.279,-5.3112,-5.3196,-5.3365,-5.3518,-5.3518,-5.3518,-5.3484,-5.3095,-5.2367,-5.1529,-5.009,-4.8083,-4.7419,-4.6391,-4.4879,-4.3852,-4.3379,-4.3305,-4.3514,-4.4067,-4.4781,-4.5409,-4.6097,-4.6785,-4.7264,-4.7309,-4.7309,-4.7309,-4.7309,-4.7309,-4.7309,-4.7309,-4.7384,-4.7698,-4.8476,-4.906,-4.9704,-5.0616,-5.1798,-5.265,-5.3354,-5.4221,-5.5074,-5.482,-5.4356,-5.3803,-5.3159,-5.2366,-5.1618,-5.1289,-5.1244,-5.1229,-5.1229,-5.1229,-5.1229,-5.1229,-5.1229,-5.1244,-5.1349,-5.1902,-5.2276,-5.2351,-5.22,-5.1641,-5.1035,-5.051,-4.9486,-4.7842,-4.6752,-4.5887,-4.4555,-4.3588,-4.3337,-4.3112,-4.3112,-4.3062,-4.2986,-4.2986,-4.2986,-4.2986,-4.2986,-4.2986,-4.2986,-4.2986,-4.2986,-4.2986,-4.2986,-4.2986,-4.2986,-4.2986,-4.2986,-4.6786,-4.6989,-4.8392,-4.8595,-4.7787,-4.6819,-4.6786,-4.7428,-4.7753,-4.8325,-4.9137,-5.0559,-5.1792,-5.2773,-5.3264,-5.3467,-5.3467,-5.3399,-5.323,-5.2892,-5.3399,-5.3078,-5.3162,-5.3365,-5.345,-5.3518,-5.3518,-5.3518,-5.3518,-5.3518,-5.3484,-5.3416,-5.2926,-5.2253,-5.1055,-4.9502,-4.8148,-4.6908,-4.5511,-4.4052,-4.3469,-4.3334,-4.3708,-4.4317,-4.4975,-4.5648,-4.6322,-4.698,-4.7264,-4.7309,-4.7309,-4.7309,-4.7309,-4.7309,-4.7309,-4.7309,-4.7339,-4.7668,-4.8312,-4.8955,-4.9553,-5.0346,-5.1424,-5.2396,-5.3249,-5.4072,-5.4715,-5.494,-5.4446,-5.3922,-5.3249,-5.2576,-5.1917,-5.1289,-5.1259,-5.1229,-5.1229,-5.1229,-5.1229,-5.1229,-5.1229,-5.1229,-5.1543,-5.2157,-5.265,-5.283,-5.287,-5.2594,-5.1808,-5.1041,-4.9901,-4.8395,-4.7431,-4.654,-4.5154,-4.3954,-4.3708,-4.3551,-4.3451,-4.335,-4.3124,-4.2986,-4.2986,-4.2986,-4.2986,-4.2986,-4.2986,-4.2986,-4.2986,-4.2986,-4.2986,-4.2986,-4.2986,-4.2986,-4.2986,-4.6735,-4.6904,-4.8325,-4.8426,-4.7652,-4.6413,-4.621,-4.6769,-4.7564,-4.8392,-4.9289,-5.0524,-5.1911,-5.3061,-5.3315,-5.3382,-5.345,-5.3484,-5.3247,-5.2469,-5.3196,-5.323,-5.3061,-5.3112,-5.345,-5.3518,-5.3518,-5.3518,-5.3518,-5.3518,-5.3501,-5.3501,-5.3433,-5.2808,-5.165,-4.9896,-4.827,-4.6613,-4.4971,-4.3379,-4.3394,-4.3409,-4.3678,-4.4421,-4.5095,-4.5753,-4.6396,-4.692,-4.7309,-4.7309,-4.7309,-4.7309,-4.7309,-4.7309,-4.7309,-4.7309,-4.7309,-4.7549,-4.8117,-4.8805,-4.9449,-5.0287,-5.1349,-5.2187,-5.295,-5.3862,-5.4536,-5.5029,-5.4685,-5.4221,-5.3608,-5.3189,-5.2636,-5.2127,-5.1932,-5.1753,-5.1588,-5.1454,-5.1229,-5.1289,-5.1483,-5.1513,-5.1798,-5.2426,-5.3264,-5.3414,-5.361,-5.3497,-5.2442,-5.1494,-4.9914,-4.8581,-4.7812,-4.6848,-4.578,-4.4738,-4.4306,-4.4079,-4.3827,-4.3451,-4.3099,-4.2999,-4.2986,-4.2986,-4.2986,-4.2986,-4.2986,-4.2986,-4.2986,-4.2986,-4.2986,-4.2986,-4.2986,-4.2986,-4.2986,-4.6295,-4.687,-4.78,-4.775,-4.7073,-4.6701,-4.6295,-4.6092,-4.7348,-4.8629,-4.9729,-5.0338,-5.1539,-5.3162,-5.2875,-5.2909,-5.3365,-5.3467,-5.3382,-5.3213,-5.345,-5.3399,-5.3213,-5.3348,-5.3518,-5.3518,-5.3518,-5.3518,-5.3518,-5.3518,-5.3518,-5.3501,-5.345,-5.2874,-5.1047,-4.9277,-4.786,-4.616,-4.458,-4.3464,-4.3409,-4.3943,-4.4407,-4.505,-4.5708,-4.6307,-4.6845,-4.716,-4.7309,-4.7309,-4.7309,-4.7309,-4.7309,-4.7309,-4.7309,-4.7309,-4.7309,-4.7459,-4.7833,-4.8581,-4.9329,-4.9823,-5.0676,-5.1588,-5.2531,-5.3578,-5.4341,-5.479,-5.494,-5.4491,-5.4057,-5.3713,-5.3354,-5.295,-5.2576,-5.2276,-5.1977,-5.1633,-5.1304,-5.1468,-5.1708,-5.1947,-5.2202,-5.2815,-5.3638,-5.4206,-5.4625,-5.4308,-5.2766,-5.147,-4.9391,-4.8131,-4.7766,-4.6922,-4.5975,-4.5278,-4.4747,-4.4229,-4.3865,-4.3476,-4.3074,-4.3011,-4.2986,-4.2986,-4.2986,-4.2986,-4.2986,-4.2986,-4.2986,-4.2986,-4.2986,-4.2986,-4.2986,-4.2986,-4.2986,-4.643,-4.687,-4.7597,-4.7699,-4.7276,-4.6938,-4.6735,-4.687,-4.7551,-4.8731,-4.9965,-5.0236,-5.1166,-5.2807,-5.2469,-5.2469,-5.3061,-5.3365,-5.3416,-5.3484,-5.3518,-5.3501,-5.3518,-5.3518,-5.3518,-5.3518,-5.3518,-5.3518,-5.3518,-5.3518,-5.3518,-5.3518,-5.3349,-5.2497,-5.0375,-4.9121,-4.7492,-4.5617,-4.4343,-4.3823,-4.3753,-4.4186,-4.49,-4.5574,-4.6172,-4.6726,-4.707,-4.7309,-4.7309,-4.7309,-4.7309,-4.7309,-4.7309,-4.7309,-4.7309,-4.7309,-4.7309,-4.7309,-4.7668,-4.8327,-4.9224,-4.9674,-5.0451,-5.1543,-5.2142,-5.3099,-5.3683,-5.4192,-5.5014,-5.476,-5.4311,-5.3937,-5.3563,-5.3159,-5.292,-5.2665,-5.2306,-5.1947,-5.1783,-5.1843,-5.2067,-5.2276,-5.265,-5.3324,-5.4027,-5.4236,-5.4775,-5.4024,-5.2615,-5.1509,-4.9414,-4.7736,-4.7388,-4.6985,-4.618,-4.5595,-4.5079,-4.4543,-4.3978,-4.3514,-4.315,-4.3049,-4.2986,-4.2986,-4.2986,-4.2986,-4.2986,-4.2986,-4.2986,-4.2986,-4.2986,-4.2986,-4.2986,-4.2986,-4.2986,-4.6735,-4.7022,-4.775,-4.7956,-4.7838,-4.7344,-4.7378,-4.7834,-4.8037,-4.8832,-4.9915,-4.9965,-5.0896,-5.1894,-5.2181,-5.23,-5.2621,-5.3264,-5.3467,-5.3518,-5.3518,-5.3518,-5.3518,-5.3518,-5.3518,-5.3518,-5.3518,-5.3518,-5.3518,-5.3518,-5.3518,-5.3518,-5.3264,-5.2853,-5.1402,-4.9782,-4.7814,-4.6386,-4.5304,-4.4627,-4.4526,-4.453,-4.5308,-4.595,-4.6456,-4.6713,-4.713,-4.7309,-4.7309,-4.7309,-4.7309,-4.7309,-4.7309,-4.7309,-4.7309,-4.7309,-4.7309,-4.7309,-4.7549,-4.8371,-4.897,-4.9584,-5.0556,-5.1304,-5.1872,-5.2441,-5.3025,-5.3758,-5.4581,-5.494,-5.4491,-5.4281,-5.3907,-5.3608,-5.3414,-5.3099,-5.2695,-5.2291,-5.2217,-5.2217,-5.2426,-5.2636,-5.3264,-5.3937,-5.4251,-5.4446,-5.4027,-5.2943,-5.1997,-5.1167,-4.9728,-4.8087,-4.7074,-4.6624,-4.6235,-4.5874,-4.5397,-4.4769,-4.4192,-4.3652,-4.3225,-4.3074,-4.2986,-4.2986,-4.2986,-4.2986,-4.2986,-4.2986,-4.2986,-4.2986,-4.2986,-4.2986,-4.2986,-4.2986,-4.2986,-4.6633,-4.7767,-4.8494,-4.846,-4.8007,-4.8342,-4.8342,-4.8054,-4.8562,-4.9323,-4.9746,-4.9627,-5.0304,-5.2232,-5.164,-5.186,-5.2909,-5.3382,-5.3467,-5.3518,-5.3518,-5.3518,-5.3518,-5.3518,-5.3518,-5.3518,-5.3518,-5.3518,-5.3518,-5.3518,-5.3518,-5.3518,-5.3518,-5.2576,-5.0784,-4.9327,-4.822,-4.6726,-4.5796,-4.514,-4.5678,-4.5813,-4.595,-4.6471,-4.686,-4.7085,-4.7279,-4.7309,-4.7309,-4.7309,-4.7309,-4.7309,-4.7309,-4.7309,-4.7309,-4.7309,-4.7309,-4.7309,-4.7638,-4.8177,-4.8671,-4.9359,-5.0197,-5.081,-5.1379,-5.1962,-5.2591,-5.3294,-5.4057,-5.467,-5.4551,-5.482,-5.4655,-5.4506,-5.4326,-5.3728,-5.3219,-5.2755,-5.2441,-5.2606,-5.283,-5.3294,-5.3937,-5.4461,-5.482,-5.494,-5.4925,-5.3846,-5.2227,-5.1112,-4.9988,-4.8403,-4.6874,-4.6528,-4.6276,-4.6125,-4.5686,-4.5033,-4.4342,-4.3689,-4.3237,-4.3049,-4.2986,-4.2986,-4.2986,-4.2986,-4.2986,-4.2986,-4.2986,-4.2986,-4.2986,-4.2986,-4.2986,-4.2986,-4.2986]},{"header":{"parameterUnit":"m.s-1","parameterCategory":1,"la1":31.0,"la2":29.5877,"lo1":-88.7671,"lo2":-86.6584,"dx":0.0162,"dy":0.0185,"nx":115,"ny":88,"refTime":"2023-01-01T06:00:00:Z","depth":0,"parameterNumber":3,"parameterNumberName":"V-component_of_WINDS"},"data":[0.0,0.0,0.0,0.0,0.0,0.0,0.0,0.0,0.0,0.0,0.0,0.0,0.0,0.0,0.0,0.0,0.0,0.0,0.0,0.0,0.0,0.0,0.0,0.0,0.0,0.0,0.0,0.0,0.0,0.0,0.0,0.0,0.0,0.0,0.0,0.0,0.0,0.0,0.0,0.0,0.0,0.0,0.0,0.0,0.0,0.0,0.0,0.0,0.0,0.0,0.0,0.0,0.0,0.0,0.0,0.0,0.0,0.0,0.0,0.0,0.0,0.0,0.0,0.0,0.0,0.0,0.0,0.0,0.0,0.0,0.0,0.0,0.0,0.0,0.0,0.0,0.0,0.0,0.0,0.0,0.0,0.0,0.0,0.0,0.0,0.0,0.0,0.0,0.0,0.0,0.0,0.0,0.0,0.0,0.0,0.0,0.0,0.0,0.0,0.0,0.0,0.0,0.0,0.0,0.0,0.0,0.0,0.0,0.0,0.0,0.0,0.0,0.0,0.0,0.0,0.0,0.0,0.0,0.0,0.0,0.0,0.0,0.0,0.0,0.0,0.0,0.0,0.0,0.0,0.0,0.0,0.0,0.0,0.0,0.0,0.0,0.0,0.0,0.0,0.0,0.0,0.0,0.0,0.0,0.0,0.0,0.0,0.0,0.0,0.0,0.0,0.0,0.0,0.0,0.0,0.0,0.0,0.0,0.0,0.0,0.0,0.0,0.0,0.0,0.0,0.0,0.0,0.0,0.0,0.0,0.0,0.0,0.0,0.0,0.0,0.0,0.0,0.0,0.0,0.0,0.0,0.0,0.0,0.0,0.0,0.0,0.0,0.0,0.0,0.0,0.0,0.0,0.0,0.0,0.0,0.0,0.0,0.0,0.0,0.0,0.0,0.0,0.0,0.0,0.0,0.0,0.0,0.0,0.0,0.0,0.0,0.0,0.0,0.0,0.0,0.0,0.0,0.0,0.0,0.0,0.0,0.0,0.0,0.0,0.0,0.0,0.0,0.0,0.0,0.0,0.0,0.0,0.0,0.0,0.0,0.0,0.0,0.0,0.0,0.0,0.0,0.0,0.0,0.0,0.0,0.0,0.0,0.0,0.0,0.0,0.0,0.0,0.0,0.0,0.0,0.0,0.0,0.0,0.0,0.0,0.0,0.0,0.0,0.0,0.0,0.0,0.0,0.0,0.0,0.0,0.0,0.0,0.0,0.0,0.0,0.0,0.0,0.0,0.0,0.0,0.0,0.0,0.0,0.0,0.0,0.0,0.0,0.0,0.0,0.0,0.0,0.0,0.0,0.0,0.0,0.0,0.0,0.0,0.0,0.0,0.0,0.0,0.0,0.0,0.0,0.0,0.0,0.0,0.0,0.0,0.0,0.0,0.0,0.0,0.0,0.0,0.0,0.0,0.0,0.0,0.0,0.0,0.0,0.0,0.0,0.0,0.0,0.0,0.0,0.0,0.0,0.0,0.0,0.0,0.0,0.0,0.0,0.0,0.0,0.0,0.0,0.0,0.0,0.0,0.0,0.0,0.0,0.0,0.0,0.0,0.0,0.0,0.0,0.0,0.0,0.0,0.0,0.0,0.0,0.0,0.0,0.0,0.0,0.0,0.0,0.0,0.0,0.0,0.0,0.0,0.0,0.0,0.0,0.0,0.0,0.0,0.0,0.0,0.0,0.0,0.0,0.0,0.0,0.0,0.0,0.0,0.0,0.0,0.0,0.0,0.0,0.0,0.0,0.0,0.0,0.0,0.0,0.0,0.0,0.0,0.0,0.0,0.0,0.0,0.0,0.0,0.0,0.0,0.0,0.0,0.0,0.0,0.0,0.0,0.0,0.0,0.0,0.0,0.0,0.0,0.0,0.0,0.0,0.0,0.0,0.0,0.0,0.0,0.0,0.0,0.0,0.0,0.0,0.0,0.0,0.0,0.0,0.0,0.0,0.0,0.0,0.0,0.0,0.0,0.0,0.0,0.0,0.0,0.0,0.0,0.0,0.0,0.0,0.0,0.0,0.0,0.0,0.0,0.0,0.0,0.0,0.0,0.0,0.0,0.0,0.0,0.0,0.0,0.0,0.0,0.0,0.0,0.0,0.0,0.0,0.0,0.0,0.0,0.0,0.0,0.0,0.0,0.0,0.0,0.0,0.0,0.0,0.0,0.0,0.0,0.0,0.0,0.0,0.0,0.0,0.0,0.0,0.0,0.0,0.0,0.0,0.0,0.0,0.0,0.0,0.0,0.0,0.0,0.0,0.0,0.0,0.0,0.0,0.0,0.0,0.0,0.0,0.0,0.0,0.0,0.0,0.0,0.0,0.0,0.0,0.0,0.0,0.0,0.0,0.0,0.0,0.0,0.0,0.0,0.0,0.0,0.0,0.0,0.0,0.0,0.0,0.0,0.0,0.0,0.0,0.0,0.0,0.0,0.0,0.0,0.0,0.0,0.0,0.0,0.0,0.0,0.0,0.0,0.0,0.0,0.0,0.0,0.0,0.0,0.0,0.0,0.0,0.0,0.0,0.0,0.0,0.0,0.0,0.0,0.0,0.0,0.0,0.0,0.0,0.0,0.0,0.0,0.0,0.0,0.0,0.0,0.0,0.0,0.0,0.0,0.0,0.0,0.0,0.0,0.0,0.0,0.0,0.0,0.0,0.0,0.0,0.0,0.0,0.0,0.0,0.0,0.0,0.0,0.0,0.0,0.0,0.0,0.0,0.0,0.0,0.0,0.0,0.0,0.0,0.0,0.0,0.0,0.0,0.0,0.0,0.0,0.0,0.0,0.0,0.0,0.0,0.0,0.0,0.0,0.0,0.0,0.0,0.0,0.0,0.0,0.0,0.0,0.0,0.0,0.0,0.0,0.0,0.0,0.0,0.0,0.0,0.0,0.0,0.0,0.0,0.0,0.0,0.0,0.0,0.0,0.0,0.0,0.0,0.0,0.0,0.0,0.0,0.0,0.0,0.0,0.0,0.0,0.0,0.0,0.0,0.0,0.0,0.0,0.0,0.0,0.0,0.0,0.0,0.0,0.0,0.0,0.0,0.0,0.0,0.0,0.0,0.0,0.0,0.0,0.0,0.0,0.0,0.0,0.0,0.0,0.0,0.0,0.0,0.0,0.0,0.0,0.0,0.0,0.0,0.0,0.0,0.0,0.0,0.0,0.0,0.0,0.0,0.0,0.0,0.0,0.0,0.0,0.0,0.0,0.0,0.0,0.0,0.0,0.0,0.0,0.0,0.0,0.0,0.0,0.0,0.0,0.0,0.0,0.0,0.0,0.0,0.0,0.0,0.0,0.0,0.0,0.0,0.0,0.0,0.0,0.0,0.0,0.0,0.0,0.0,0.0,0.0,0.0,0.0,0.0,0.0,0.0,0.0,0.0,0.0,0.0,0.0,0.0,0.0,0.0,0.0,0.0,0.0,0.0,0.0,0.0,0.0,0.0,0.0,0.0,0.0,0.0,0.0,0.0,0.0,0.0,0.0,0.0,0.0,0.0,0.0,0.0,0.0,0.0,0.0,0.0,0.0,0.0,0.0,0.0,0.0,0.0,0.0,0.0,0.0,0.0,0.0,0.0,0.0,0.0,0.0,0.0,0.0,0.0,0.0,0.0,0.0,0.0,0.0,0.0,0.0,0.0,0.0,0.0,0.0,0.0,0.0,0.0,0.0,0.0,0.0,0.0,0.0,0.0,0.0,0.0,0.0,0.0,0.0,0.0,0.0,0.0,0.0,0.0,0.0,0.0,0.0,0.0,0.0,0.0,0.0,0.0,0.0,0.0,0.0,0.0,0.0,0.0,0.0,0.0,0.0,0.0,0.0,0.0,0.0,0.0,0.0,0.0,0.0,0.0,0.0,0.0,0.0,0.0,0.0,0.0,0.0,0.0,0.0,0.0,0.0,0.0,0.0,0.0,0.0,0.0,0.0,0.0,0.0,0.0,0.0,0.0,0.0,0.0,0.0,0.0,0.0,0.0,0.0,0.0,0.0,0.0,0.0,0.0,0.0,0.0,0.0,0.0,0.0,0.0,0.0,0.0,0.0,0.0,0.0,0.0,0.0,0.0,0.0,0.0,0.0,0.0,0.0,0.0,0.0,0.0,0.0,0.0,0.0,0.0,0.0,0.0,0.0,0.0,0.0,0.0,0.0,0.0,0.0,0.0,0.0,0.0,0.0,0.0,0.0,0.0,0.0,0.0,0.0,0.0,0.0,0.0,0.0,0.0,0.0,0.0,0.0,0.0,0.0,0.0,0.0,0.0,1.0813,0.0,0.0,0.0,1.139,0.0,0.0,0.0,0.0,0.0,0.0,0.0,0.0,0.0,0.0,0.0,0.0,0.0,0.0,0.0,0.0,0.0,0.0,0.0,0.0,0.0,0.0,0.0,0.0,0.0,0.0,0.0,0.0,0.0,0.0,0.0,0.0,0.0,0.0,0.0,0.0,0.0,0.0,0.0,0.0,0.0,0.0,0.0,0.0,0.0,0.0,0.0,0.0,0.0,0.0,0.0,0.0,0.0,0.0,0.0,0.0,0.0,0.0,0.0,0.0,0.0,0.0,0.0,0.0,0.0,0.0,0.0,0.0,0.0,0.0,0.0,0.0,0.0,0.0,0.0,0.0,0.0,0.0,0.0,0.0,0.0,0.0,0.0,0.0,0.0,0.0,0.0,0.0,0.0,0.0,0.0,0.0,0.0,0.0,0.0,0.0,0.0,0.0,0.0,0.0,0.0,0.0,0.0,0.0,0.0,0.0,0.0,0.0,0.0,0.0,1.0861,1.0897,1.0991,1.105,1.1087,0.0,0.0,0.0,0.0,0.0,0.0,0.0,0.0,0.0,0.0,0.0,0.0,0.0,0.0,0.0,0.0,0.0,0.0,0.0,0.0,0.0,0.0,0.0,0.0,0.0,0.0,0.0,0.0,0.0,0.0,0.0,0.0,0.0,0.0,0.0,0.0,0.0,0.0,0.0,0.0,0.0,0.0,0.0,0.0,0.0,0.0,0.0,0.0,0.0,0.0,0.0,0.0,0.0,0.0,0.0,0.0,0.0,0.0,0.0,0.0,0.0,0.0,0.0,0.0,0.0,0.0,0.0,0.0,0.0,0.0,0.0,0.0,0.0,0.0,0.0,0.0,0.0,0.0,0.0,0.0,0.0,0.0,0.0,0.0,0.0,0.0,0.0,0.0,0.0,0.0,0.0,0.0,0.0,0.0,0.0,0.0,0.0,0.0,0.0,0.0,0.0,0.0,0.0,0.0,0.0,0.0,0.0,0.0,0.0,0.0,0.0,0.0,1.1015,1.105,1.1005,0.0,0.0,0.0,0.0,0.0,0.0,0.0,0.0,0.0,0.0,0.0,0.0,0.0,0.0,0.0,0.0,0.0,0.0,0.0,0.0,0.0,0.0,0.0,0.0,0.0,0.0,0.0,0.0,0.0,0.0,0.0,0.0,0.0,0.0,0.0,0.0,0.0,0.0,0.0,0.0,0.0,0.0,0.0,0.0,0.0,0.0,0.0,0.0,0.0,0.0,0.0,0.0,0.0,0.0,0.0,0.0,0.0,0.0,0.0,0.0,0.0,0.0,0.0,0.0,0.0,0.0,0.0,0.0,0.0,0.0,0.0,0.0,0.0,0.0,0.0,0.0,0.0,0.0,0.0,0.0,0.0,0.0,0.0,0.0,0.0,0.0,0.0,0.0,0.0,0.0,0.0,0.0,0.0,0.0,0.0,0.0,0.0,0.0,0.0,0.0,0.0,0.0,0.0,0.0,0.0,0.0,0.0,0.0,0.0,0.0,1.0765,1.0897,1.0968,0.0,1.129,0.0,0.0,0.0,0.0,0.0,0.0,0.0,0.0,0.0,0.0,0.0,0.0,0.0,0.0,0.0,0.0,0.0,0.0,0.0,0.0,0.0,0.0,0.0,0.0,0.0,0.0,0.0,0.0,0.0,0.0,0.0,0.0,0.0,0.0,0.0,0.0,0.0,0.0,0.0,0.0,0.0,0.0,0.0,0.0,0.0,0.0,0.0,0.0,0.0,0.0,0.0,0.0,0.0,0.0,0.0,0.0,0.0,0.0,0.0,0.0,0.0,0.0,0.0,0.0,0.0,0.0,0.0,0.0,0.0,0.0,0.0,0.0,0.0,0.0,0.0,0.0,0.0,0.0,0.0,0.0,0.0,0.0,0.0,0.0,0.0,0.0,0.0,0.0,0.0,0.0,0.0,0.0,0.0,0.0,0.0,0.0,0.0,0.0,0.0,0.0,0.0,0.0,0.0,0.0,0.0,0.0,0.0,0.0,0.0,0.0,1.0753,1.0897,1.1003,1.1108,0.0,0.0,0.0,0.0,0.0,0.0,0.0,0.0,0.0,0.0,0.0,0.0,0.0,0.0,0.0,0.0,0.0,0.0,0.0,0.0,0.0,0.0,0.0,0.0,0.0,0.0,0.0,0.0,0.0,0.0,0.0,0.0,0.0,0.0,0.0,0.0,0.0,0.0,0.0,0.0,0.0,0.0,0.0,0.0,0.0,0.0,0.0,0.0,0.0,0.0,0.0,0.0,0.0,0.0,0.0,0.0,0.0,0.0,0.0,0.0,0.0,0.0,0.0,0.0,0.0,0.0,0.0,0.0,0.0,0.0,0.0,0.0,0.0,0.0,0.0,0.0,0.0,0.0,0.0,0.0,0.0,0.0,0.0,0.0,0.0,0.0,0.0,0.0,0.0,0.0,0.0,0.0,0.0,0.0,0.0,0.0,0.0,0.0,0.0,0.0,0.0,0.0,0.0,0.0,0.0,0.0,0.0,0.0,0.0,0.0,1.0769,1.0974,1.1159,1.1266,1.1303,1.1204,0.0,0.0,0.0,0.0,0.0,0.0,0.0,0.0,0.0,0.0,0.0,0.0,0.0,0.0,0.0,0.0,0.0,0.0,0.0,0.0,0.0,0.0,0.0,0.0,0.0,0.0,0.0,0.0,0.0,0.0,0.0,0.0,0.0,0.0,0.0,0.0,0.0,0.0,0.0,0.0,0.0,0.0,0.0,0.0,0.0,0.0,0.0,0.0,0.0,0.0,0.0,0.0,0.0,0.0,0.0,0.0,0.0,0.0,0.0,0.0,0.0,0.0,0.0,0.0,0.0,0.0,0.0,0.0,0.0,0.0,0.0,0.0,0.0,0.0,0.0,0.0,0.0,0.0,0.0,0.0,0.0,0.0,0.0,0.0,0.0,0.0,0.0,0.0,0.0,0.0,0.0,0.0,0.0,0.0,0.0,0.0,0.0,0.0,0.0,0.0,0.0,0.0,0.0,0.0,0.0,0.0,0.0,0.0,1.0525,1.1082,1.1494,1.174,1.1868,1.174,0.0,0.0,0.0,0.0,0.0,0.0,0.0,0.0,0.0,0.0,0.0,0.0,0.0,0.0,0.0,0.0,0.0,0.0,0.0,0.0,0.0,0.0,0.0,0.0,0.0,0.0,0.0,0.0,0.0,0.0,0.0,0.0,0.0,0.0,0.0,0.0,0.0,0.0,0.0,0.0,0.0,0.0,0.0,0.0,0.0,0.0,0.0,0.0,0.0,0.0,0.0,0.0,0.0,0.0,0.0,0.0,0.0,0.0,0.0,0.0,0.0,0.0,0.0,0.0,0.0,0.0,0.0,0.0,0.0,0.0,0.0,0.0,0.0,0.0,0.0,0.0,0.0,0.0,0.0,0.0,0.0,0.0,0.0,0.0,0.0,0.0,0.0,0.0,0.0,0.0,0.0,0.0,0.0,0.0,0.0,0.0,0.0,0.0,0.0,0.0,0.0,0.0,0.0,0.0,0.0,0.0,0.0,0.0,0.0,1.1082,1.1831,1.232,1.2496,1.2604,1.2361,0.0,0.0,0.0,0.0,0.0,0.0,0.0,0.0,0.0,0.0,0.0,0.0,0.0,0.0,0.0,0.0,0.0,0.0,0.0,0.0,0.0,0.0,0.0,0.0,0.0,0.0,0.0,0.0,0.0,0.0,0.0,0.0,0.0,0.0,0.0,0.0,0.0,0.0,0.0,0.0,0.0,0.0,0.0,0.0,0.0,0.0,0.0,0.0,0.0,0.0,0.0,0.0,0.0,0.0,0.0,0.0,0.0,0.0,0.0,0.0,0.0,0.0,0.0,0.0,0.0,0.0,0.0,0.0,0.0,0.0,0.0,0.0,0.0,0.0,0.0,0.0,0.0,0.0,0.0,0.0,0.0,0.0,0.0,0.0,0.0,0.0,0.0,0.0,0.0,0.0,0.0,0.0,0.0,0.0,0.0,0.0,0.0,0.0,0.0,0.0,0.0,0.0,0.0,0.0,0.0,0.0,0.0,0.0,0.0,1.2101,1.2967,1.3374,1.3277,1.353,1.3262,0.0,0.0,0.0,0.0,0.0,0.0,0.0,0.0,0.0,0.0,0.0,0.0,0.0,0.0,0.0,0.0,0.0,0.0,0.0,0.0,0.0,0.0,0.0,0.0,0.0,0.0,0.0,0.0,0.0,0.0,0.0,0.0,0.0,0.0,0.0,0.0,0.0,0.0,0.0,0.0,0.0,0.0,0.0,0.0,0.0,0.0,0.0,0.0,0.0,0.0,0.0,0.0,0.0,0.0,0.0,0.0,0.0,0.0,0.0,0.0,0.0,0.0,0.0,0.0,0.0,0.0,0.0,0.0,0.0,0.0,0.0,0.0,0.0,0.0,0.0,0.0,0.0,0.0,0.0,0.0,0.0,0.0,0.0,0.0,0.0,0.0,0.0,0.0,0.0,0.0,0.0,0.0,0.0,0.0,0.0,0.0,0.0,0.0,0.0,0.0,0.0,0.0,0.0,0.0,0.0,0.0,0.0,0.0,1.1987,1.3573,1.4483,1.472,1.4097,1.4798,1.4513,0.0,0.0,0.0,0.0,0.0,0.0,0.0,0.0,0.0,0.0,0.0,0.0,0.0,0.0,0.0,0.0,0.0,0.0,0.0,0.0,0.0,0.0,0.0,0.0,0.0,0.0,0.0,0.0,0.0,0.0,0.0,0.0,0.0,0.0,0.0,0.0,0.0,0.0,0.0,0.0,0.0,0.0,0.0,0.0,0.0,0.0,0.0,0.0,0.0,0.0,0.0,0.0,0.0,0.0,0.0,0.0,0.0,0.0,0.0,0.0,0.0,0.0,0.0,0.0,0.0,0.0,0.0,0.0,0.0,0.0,0.0,0.0,0.0,0.0,0.0,0.0,0.0,0.0,0.0,0.0,0.0,0.0,0.0,0.0,0.0,0.0,0.0,0.0,0.0,0.0,0.0,0.0,0.0,0.0,0.0,0.0,0.0,0.0,0.0,0.0,0.0,0.0,0.0,0.0,0.0,0.0,0.0,0.0,0.0,1.5348,1.651,1.7091,1.7051,1.7207,1.6458,0.0,0.0,0.0,0.0,0.0,0.0,0.0,0.0,0.0,0.0,0.0,0.0,0.0,0.0,0.0,0.0,0.0,0.0,0.0,0.0,0.0,0.0,0.0,0.0,0.0,0.0,0.0,0.0,0.0,0.0,0.0,0.0,0.0,0.0,0.0,0.0,0.0,0.0,0.0,0.0,0.0,0.0,0.0,0.0,0.0,0.0,0.0,0.0,0.0,0.0,0.0,0.0,0.0,0.0,0.0,0.0,0.0,0.0,0.0,0.0,0.0,0.0,0.0,0.0,0.0,0.0,0.0,0.0,0.0,0.0,0.0,0.0,0.0,0.0,0.0,0.0,0.0,0.0,0.0,0.0,0.0,0.0,0.0,0.0,0.0,0.0,0.0,0.0,0.0,0.0,0.0,0.0,0.0,0.0,0.0,0.0,0.0,0.0,0.0,0.0,0.0,0.0,0.0,0.0,0.0,0.0,0.0,0.0,0.0,1.9356,1.9882,2.0101,2.0051,1.9944,1.8802,1.653,0.0,0.0,0.0,0.0,0.0,0.0,0.0,0.0,0.0,0.0,0.0,0.0,0.0,0.0,0.0,0.0,0.0,0.0,0.0,0.0,0.0,0.0,0.0,0.0,0.0,0.0,0.0,0.0,0.0,0.0,0.0,0.0,0.0,0.0,0.0,0.0,0.0,0.0,0.0,0.0,0.0,0.0,0.0,0.0,0.0,0.0,0.0,0.0,0.0,0.0,0.0,0.0,0.0,0.0,0.0,0.0,0.0,0.0,0.0,0.0,0.0,0.0,0.0,0.0,0.0,0.0,0.0,0.0,0.0,0.0,0.0,0.0,0.0,0.0,0.0,0.0,0.0,0.0,0.0,0.0,0.0,0.0,0.0,0.0,0.0,0.0,0.0,0.0,0.0,0.0,0.0,0.0,0.0,0.0,0.0,0.0,0.0,0.0,0.0,0.0,0.0,0.0,0.0,0.0,0.0,0.0,0.0,0.0,2.5005,2.443,2.3834,2.3167,2.2912,2.1515,0.0,0.0,0.0,0.0,0.0,0.0,0.0,0.0,0.0,0.0,0.0,0.0,0.0,0.0,0.0,0.0,0.0,0.0,0.0,0.0,0.0,0.0,0.0,0.0,0.0,0.0,0.0,0.0,0.0,0.0,0.0,0.0,0.0,0.0,0.0,0.0,0.0,0.0,0.0,0.0,0.0,0.0,0.0,0.0,0.0,0.0,0.0,0.0,0.0,0.0,0.0,0.0,0.0,0.0,0.0,0.0,0.0,0.0,0.0,0.0,0.0,0.0,0.0,0.0,0.0,0.0,0.0,0.0,0.0,0.0,0.0,0.0,0.0,0.0,0.0,0.0,0.0,0.0,0.0,0.0,0.0,0.0,0.0,0.0,0.0,0.0,0.0,0.0,0.0,0.0,0.0,0.0,0.0,0.0,0.0,0.0,0.0,0.0,0.0,0.0,0.0,0.0,0.0,0.0,0.0,0.0,0.0,0.0,0.0,2.7802,2.9625,2.9489,2.7304,2.5851,2.3978,0.0,0.0,0.0,0.0,0.0,0.0,0.0,0.0,0.0,0.0,0.0,0.0,0.0,0.0,0.0,0.0,0.0,0.0,0.0,0.0,0.0,0.0,0.0,0.0,0.0,0.0,0.0,0.0,0.0,0.0,0.0,0.0,0.0,0.0,0.0,0.0,0.0,0.0,0.0,0.0,0.0,0.0,0.0,0.0,0.0,0.0,0.0,0.0,0.0,0.0,0.0,0.0,0.0,0.0,0.0,0.0,0.0,0.0,0.0,0.0,0.0,0.0,0.0,0.0,0.0,0.0,0.0,0.0,0.0,0.0,0.0,0.0,0.0,0.0,0.0,0.0,0.0,0.0,0.0,0.0,0.0,0.0,0.0,0.0,0.0,0.0,0.0,0.0,0.0,0.0,0.0,0.0,0.0,0.0,0.0,0.0,0.0,0.0,0.0,0.0,0.0,0.0,0.0,0.0,0.0,0.0,0.0,0.0,2.7235,3.0028,3.2925,3.3553,3.1702,2.9195,2.6523,0.0,0.0,0.0,0.0,0.0,0.0,0.0,0.0,0.0,0.0,0.0,0.0,0.0,0.0,0.0,0.0,0.0,0.0,0.0,0.0,0.0,0.0,0.0,0.0,0.0,0.0,0.0,0.0,0.0,0.0,0.0,0.0,0.0,0.0,0.0,0.0,0.0,0.0,0.0,0.0,0.0,0.0,0.0,0.0,0.0,0.0,0.0,0.0,0.0,0.0,0.0,0.0,0.0,0.0,0.0,0.0,0.0,0.0,0.0,0.0,0.0,0.0,0.0,0.0,0.0,0.0,0.0,0.0,0.0,0.0,0.0,0.0,0.0,0.0,0.0,0.0,0.0,0.0,0.0,0.0,0.0,0.0,0.0,0.0,0.0,0.0,0.0,0.0,0.0,0.0,0.0,0.0,0.0,0.0,0.0,0.0,0.0,0.0,0.0,0.0,0.0,0.0,0.0,0.0,0.0,0.0,0.0,0.0,2.992,3.1976,3.509,3.6469,3.5852,3.2465,2.8977,0.0,0.0,0.0,0.0,0.0,0.0,0.0,0.0,0.0,0.0,0.0,0.0,0.0,0.0,0.0,0.0,0.0,0.0,0.0,0.0,0.0,0.0,0.0,0.0,0.0,0.0,0.0,0.0,0.0,0.0,0.0,0.0,0.0,0.0,0.0,0.0,0.0,0.0,0.0,0.0,0.0,0.0,0.0,0.0,0.0,0.0,0.0,0.0,0.0,0.0,0.0,0.0,0.0,0.0,0.0,0.0,0.0,0.0,0.0,0.0,0.0,0.0,0.0,0.0,0.0,0.0,0.0,0.0,0.0,0.0,0.0,0.0,0.0,0.0,0.0,0.0,0.0,0.0,0.0,0.0,0.0,0.0,0.0,0.0,0.0,0.0,0.0,0.0,0.0,0.0,0.0,0.0,0.0,0.0,0.0,0.0,0.0,0.0,0.0,0.0,0.0,0.0,0.0,0.0,0.0,0.0,0.0,0.0,3.2013,3.507,3.7615,3.8631,3.8035,3.4051,3.0714,0.0,0.0,0.0,0.0,0.0,0.0,0.0,0.0,0.0,0.0,0.0,0.0,0.0,0.0,0.0,0.0,0.0,0.0,0.0,0.0,0.0,0.0,0.0,0.0,0.0,0.0,0.0,0.0,0.0,0.0,0.0,0.0,0.0,0.0,0.0,0.0,0.0,0.0,0.0,0.0,0.0,0.0,0.0,0.0,0.0,0.0,0.0,0.0,1.8487,0.0,0.0,0.0,0.0,0.0,0.0,0.0,0.0,0.0,0.0,0.0,0.0,0.0,0.0,0.0,0.0,0.0,0.0,0.0,0.0,0.0,0.0,0.0,0.0,0.0,0.0,0.0,0.0,0.0,0.0,0.0,0.0,0.0,0.0,0.0,0.0,0.0,0.0,0.0,0.0,0.0,0.0,0.0,0.0,0.0,0.0,0.0,0.0,0.0,0.0,0.0,0.0,0.0,0.0,0.0,0.0,0.0,0.0,0.0,3.3577,3.6646,3.8835,3.9516,3.8656,3.5951,3.2912,0.0,0.0,0.0,0.0,0.0,0.0,0.0,0.0,0.0,0.0,0.0,0.0,0.0,0.0,0.0,0.0,0.0,0.0,0.0,0.0,0.0,0.0,0.0,0.0,0.0,0.0,0.0,0.0,0.0,0.0,0.0,0.0,0.0,0.0,0.0,0.0,0.0,0.0,0.0,0.0,0.0,0.0,0.0,0.0,0.0,0.0,0.0,0.0,0.0,0.0,0.0,0.0,0.0,0.0,0.0,0.0,0.0,0.0,0.0,0.0,0.0,0.0,0.0,0.0,0.0,0.0,0.0,0.0,0.0,0.0,0.0,0.0,0.0,0.0,0.0,0.0,0.0,0.0,0.0,0.0,0.0,0.0,0.0,0.0,0.0,0.0,0.0,0.0,0.0,0.0,0.0,0.0,0.0,0.0,0.0,0.0,0.0,0.0,0.0,0.0,0.0,0.0,0.0,0.0,0.0,0.0,0.0,3.1752,3.5132,3.8101,3.9826,4.0185,3.9186,3.7726,3.4941,3.0688,0.0,0.0,0.0,0.0,0.0,0.0,0.0,0.0,0.0,0.0,0.0,0.0,0.0,0.0,0.0,0.0,0.0,0.0,0.0,0.0,0.0,0.0,0.0,0.0,0.0,0.0,0.0,0.0,0.0,0.0,0.0,0.0,0.0,0.0,0.0,0.0,0.0,0.0,1.4586,1.7516,0.0,0.0,0.0,0.0,0.0,0.0,0.0,0.0,2.0781,0.0,0.0,0.0,0.0,0.0,0.0,0.0,0.0,0.0,0.0,0.0,0.0,0.0,0.0,0.0,0.0,0.0,0.0,0.0,0.0,0.0,0.0,0.0,0.0,0.0,0.0,0.0,0.0,0.0,0.0,0.0,0.0,0.0,0.0,0.0,0.0,0.0,0.0,0.0,0.0,0.0,0.0,0.0,0.0,0.0,0.0,0.0,0.0,0.0,0.0,0.0,0.0,0.0,0.0,0.0,0.0,3.099,3.382,3.736,4.1701,4.2128,4.1968,4.1262,3.8663,3.5603,3.2115,0.0,0.0,0.0,0.0,0.0,0.0,0.0,0.0,0.0,0.0,0.0,0.0,0.0,0.0,0.0,0.0,0.0,0.0,0.0,0.0,0.0,0.0,0.0,0.0,0.0,0.0,0.0,0.0,0.0,0.0,0.0,0.0,0.0,0.0,0.0,0.0,0.0,0.0,0.0,2.0711,2.2774,0.0,0.0,0.0,0.0,0.0,0.0,0.0,0.0,2.3578,0.0,0.0,0.0,0.0,0.0,0.0,0.0,0.0,0.0,0.0,0.0,0.0,0.0,0.0,0.0,0.0,0.0,0.0,0.0,0.0,0.0,0.0,0.0,0.0,0.0,0.0,0.0,0.0,0.0,0.0,0.0,0.0,0.0,0.0,0.0,0.0,0.0,0.0,0.0,0.0,0.0,0.0,0.0,0.0,0.0,0.0,0.0,0.0,0.0,0.0,0.0,0.0,0.0,0.0,0.0,3.1709,3.5566,3.9169,4.2546,4.2693,4.242,4.1757,3.8881,3.5766,0.0,0.0,0.0,0.0,0.0,0.0,0.0,0.0,0.0,0.0,0.0,0.0,0.0,0.0,0.0,0.0,0.0,0.0,0.0,0.0,0.0,0.0,0.0,0.0,0.0,0.0,0.0,0.0,0.0,0.0,0.0,0.0,0.0,0.0,0.0,0.0,0.0,0.0,0.0,0.0,2.3503,2.5634,2.8053,0.0,0.0,0.0,0.0,0.0,0.0,2.5852,2.4875,0.0,0.0,0.0,0.0,0.0,0.0,0.0,0.0,0.0,0.0,0.0,0.0,0.0,0.0,0.0,0.0,0.0,0.0,0.0,0.0,0.0,0.0,0.0,0.0,0.0,0.0,0.0,0.0,0.0,0.0,0.0,0.0,0.0,0.0,0.0,0.0,0.0,0.0,0.0,0.0,0.0,0.0,0.0,0.0,0.0,0.0,0.0,0.0,0.0,0.0,0.0,0.0,0.0,0.0,0.0,3.2364,3.6811,4.0182,4.2408,4.242,4.2139,4.1586,3.8641,3.5566,0.0,0.0,0.0,0.0,0.0,0.0,0.0,0.0,0.0,0.0,0.0,0.0,0.0,0.0,0.0,0.0,0.0,0.0,0.0,0.0,0.0,0.0,0.0,0.0,0.0,0.0,0.0,0.0,0.0,0.0,0.0,0.0,0.0,0.0,0.0,0.0,0.0,0.0,0.0,0.0,0.0,2.7993,3.0441,2.9957,0.0,0.0,0.0,0.0,2.81,2.7552,0.0,0.0,0.0,0.0,0.0,0.0,0.0,0.0,0.0,0.0,0.0,0.0,0.0,0.0,0.0,0.0,0.0,0.0,0.0,0.0,0.0,0.0,0.0,0.0,0.0,0.0,0.0,0.0,0.0,0.0,0.0,0.0,0.0,0.0,0.0,0.0,0.0,0.0,0.0,0.0,0.0,0.0,0.0,0.0,0.0,0.0,0.0,0.0,0.0,0.0,0.0,0.0,0.0,0.0,0.0,0.0,3.3909,3.7094,3.9726,4.1764,4.1455,4.1139,4.0961,3.7851,3.4939,0.0,0.0,0.0,0.0,0.0,0.0,0.0,0.0,0.0,0.0,0.0,0.0,0.0,0.0,0.0,0.0,0.0,0.0,0.0,0.0,0.0,0.0,0.0,0.0,0.0,0.0,0.0,0.0,0.0,0.0,0.0,0.0,0.0,0.0,0.0,0.0,0.0,0.0,0.0,0.0,0.0,2.9145,3.2618,3.2004,3.137,0.0,0.0,3.1216,3.1275,3.1274,0.0,0.0,0.0,0.0,0.0,0.0,0.0,0.0,0.0,0.0,0.0,0.0,0.0,0.0,0.0,0.0,0.0,0.0,0.0,0.0,0.0,0.0,0.0,0.0,0.0,0.0,0.0,0.0,0.0,0.0,0.0,0.0,0.0,0.0,0.0,0.0,0.0,0.0,0.0,0.0,0.0,0.0,0.0,0.0,0.0,0.0,0.0,0.0,0.0,0.0,0.0,0.0,0.0,0.0,0.0,3.0302,3.4689,3.8156,4.071,4.2223,4.1871,4.1607,4.1555,3.8293,3.5341,0.0,0.0,0.0,0.0,0.0,0.0,0.0,0.0,0.0,0.0,0.0,0.0,0.0,0.0,0.0,0.0,0.0,0.0,0.0,0.0,0.0,0.0,0.0,0.0,0.0,0.0,0.0,0.0,0.0,0.0,0.0,0.0,0.0,0.0,0.0,0.0,0.0,0.0,0.0,0.0,0.0,0.0,3.4121,3.4742,0.0,0.0,0.0,3.4108,3.3272,0.0,0.0,0.0,0.0,0.0,0.0,0.0,0.0,0.0,0.0,0.0,0.0,0.0,0.0,0.0,0.0,0.0,0.0,0.0,0.0,0.0,0.0,0.0,0.0,0.0,0.0,0.0,0.0,0.0,0.0,0.0,0.0,0.0,0.0,0.0,0.0,0.0,0.0,0.0,0.0,0.0,0.0,0.0,0.0,0.0,0.0,0.0,0.0,0.0,0.0,0.0,0.0,0.0,0.0,0.0,0.0,0.0,3.5227,3.9204,4.1702,4.2537,4.2094,4.1817,4.1757,3.8872,0.0,0.0,0.0,0.0,0.0,0.0,0.0,0.0,0.0,0.0,0.0,0.0,0.0,0.0,0.0,0.0,0.0,0.0,0.0,0.0,0.0,0.0,0.0,0.0,0.0,0.0,0.0,1.3475,0.0,0.0,0.0,0.0,0.0,0.0,0.0,0.0,0.0,0.0,0.0,0.0,0.0,0.0,3.2711,3.5301,3.705,3.8179,0.0,0.0,3.6887,3.5796,3.5658,3.4521,0.0,0.0,0.0,0.0,0.0,0.0,0.0,0.0,0.0,0.0,0.0,0.0,0.0,0.0,0.0,0.0,0.0,0.0,0.0,0.0,0.0,0.0,0.0,0.0,0.0,0.0,0.0,0.0,0.0,0.0,0.0,0.0,0.0,0.0,0.0,0.0,0.0,0.0,0.0,0.0,0.0,0.0,0.0,0.0,0.0,0.0,0.0,0.0,0.0,0.0,0.0,0.0,0.0,0.0,3.2271,3.5687,3.9976,4.2232,4.2302,4.1505,4.1057,4.1024,3.9273,3.6707,0.0,0.0,0.0,0.0,0.0,0.0,0.0,0.0,0.0,0.0,0.0,0.0,0.0,0.0,0.0,0.0,0.0,0.0,0.0,0.0,0.0,0.0,0.0,0.0,0.0,0.0,0.0,0.0,0.0,0.0,0.0,0.0,0.0,0.0,0.0,0.0,0.0,0.0,0.0,0.0,0.0,3.3541,3.6315,3.8449,4.0001,0.0,4.0153,3.9648,3.9505,3.9581,3.8512,3.4989,0.0,0.0,0.0,0.0,0.0,0.0,0.0,0.0,0.0,0.0,0.0,0.0,0.0,0.0,0.0,0.0,0.0,0.0,0.0,0.0,0.0,0.0,0.0,0.0,0.0,0.0,0.0,0.0,0.0,0.0,0.0,0.0,0.0,0.0,0.0,0.0,0.0,0.0,0.0,0.0,0.0,0.0,0.0,0.0,0.0,0.0,0.0,0.0,0.0,0.0,0.0,0.0,0.0,3.3243,3.6848,4.0475,4.2209,4.2081,4.2343,4.2266,4.1762,4.0446,3.8436,0.0,0.0,0.0,0.0,0.0,0.0,0.0,0.0,0.0,0.0,0.0,0.0,0.0,0.0,0.0,0.0,0.0,0.0,0.0,0.0,0.0,0.0,0.0,0.0,0.0,0.0,0.0,0.0,2.2241,2.2805,2.1804,0.0,0.0,0.0,0.0,0.0,0.0,0.0,0.0,0.0,0.0,3.5689,3.9792,4.1333,0.0,0.0,4.328,4.2416,4.1425,4.0912,3.9596,3.6588,3.4348,0.0,0.0,0.0,0.0,0.0,0.0,0.0,0.0,0.0,0.0,0.0,0.0,0.0,0.0,0.0,0.0,0.0,0.0,0.0,0.0,0.0,0.0,0.0,0.0,0.0,0.0,0.0,0.0,0.0,0.0,0.0,0.0,0.0,0.0,0.0,0.0,0.0,0.0,0.0,0.0,0.0,0.0,0.0,0.0,0.0,0.0,0.0,0.0,0.0,0.0,0.0,0.0,3.4028,3.7642,4.1167,4.2885,4.2723,4.3138,4.2972,4.2215,4.1243,3.9587,0.0,0.0,0.0,0.0,0.0,0.0,0.0,0.0,0.0,0.0,0.0,0.0,0.0,0.0,0.0,0.0,0.0,0.0,0.0,0.0,0.0,0.0,0.0,0.0,0.0,0.0,0.0,0.0,2.4136,2.401,2.19,0.0,0.0,0.0,0.0,0.0,0.0,0.0,0.0,0.0,0.0,3.8426,4.2131,4.358,4.457,4.512,4.4968,4.4282,4.2836,4.2171,4.1097,3.8964,0.0,0.0,0.0,0.0,0.0,0.0,0.0,0.0,0.0,0.0,0.0,0.0,0.0,0.0,0.0,0.0,0.0,0.0,0.0,0.0,0.0,0.0,0.0,0.0,0.0,0.0,0.0,1.249,0.0,0.0,1.3782,0.0,0.0,0.0,0.0,0.0,0.0,0.0,0.0,0.0,0.0,0.0,0.0,0.0,0.0,0.0,0.0,0.0,0.0,0.0,0.0,0.0,0.0,3.4635,3.7903,4.2299,4.4564,4.4508,4.3768,4.3006,4.2285,4.1449,3.982,3.7248,0.0,0.0,0.0,0.0,0.0,0.0,0.0,0.0,0.0,0.0,0.0,0.0,0.0,0.0,0.0,0.0,0.0,0.0,0.0,0.0,0.0,0.0,0.0,0.0,0.0,0.0,2.2844,2.4217,2.4325,0.0,0.0,0.0,0.0,0.0,0.0,0.0,0.0,0.0,3.4116,3.8466,4.1604,4.2677,4.4876,4.5816,4.4457,4.475,4.4858,4.3944,4.3748,4.3469,0.0,0.0,0.0,0.0,0.0,0.0,0.0,0.0,0.0,0.0,0.0,0.0,0.0,0.0,0.0,0.0,0.0,0.0,0.0,0.0,0.0,0.0,0.0,0.0,0.0,0.0,0.0,1.7702,1.9248,0.0,0.0,0.0,0.0,0.0,0.0,0.0,0.0,0.0,0.0,0.0,3.4012,3.3599,0.0,0.0,0.0,0.0,0.0,0.0,0.0,0.0,0.0,0.0,0.0,0.0,3.6869,4.0172,4.4056,4.5774,4.523,4.5474,4.5237,4.442,4.3227,4.0959,3.7423,0.0,0.0,0.0,0.0,0.0,0.0,0.0,0.0,0.0,0.0,0.0,0.0,0.0,0.0,0.0,0.0,0.0,0.0,0.0,0.0,0.0,0.0,0.0,0.0,0.0,2.4458,0.0,0.0,0.0,0.0,0.0,0.0,0.0,0.0,0.0,0.0,0.0,3.4237,3.7834,4.005,4.2079,4.4094,4.5081,4.5824,0.0,0.0,0.0,0.0,0.0,0.0,0.0,0.0,0.0,0.0,0.0,0.0,0.0,0.0,3.2326,2.8656,2.8597,2.8988,2.8538,0.0,0.0,0.0,0.0,0.0,0.0,0.0,0.0,0.0,0.0,0.0,0.0,0.0,0.0,2.3289,2.4527,2.407,0.0,0.0,0.0,0.0,0.0,0.0,0.0,0.0,3.6529,3.816,3.9083,3.8708,3.8451,0.0,3.649,3.3534,0.0,0.0,0.0,0.0,0.0,0.0,0.0,0.0,3.875,4.1756,4.5093,4.6514,4.5993,4.6514,4.6397,4.5563,4.4152,4.2162,3.9596,3.727,3.4922,0.0,0.0,0.0,0.0,0.0,0.0,0.0,0.0,0.0,0.0,0.0,0.0,0.0,0.0,0.0,0.0,0.0,0.0,0.0,0.0,0.0,0.0,0.0,2.6711,0.0,0.0,0.0,0.0,0.0,0.0,0.0,0.0,0.0,3.1312,3.4732,3.8253,4.1014,4.236,4.3614,4.4929,0.0,0.0,0.0,0.0,0.0,0.0,0.0,4.3469,4.4108,4.384,4.3423,4.3024,4.1752,4.0746,4.0718,0.0,0.0,3.457,3.4267,3.4657,3.4209,3.415,3.4405,3.5149,3.533,3.5702,0.0,0.0,0.0,0.0,0.0,0.0,0.0,0.0,2.9425,2.9035,0.0,2.8228,0.0,0.0,0.0,0.0,3.0711,3.3932,0.0,0.0,4.3257,4.4981,4.4073,4.4121,4.4172,4.3872,4.0219,3.9036,3.9891,3.5633,0.0,0.0,0.0,0.0,0.0,0.0,4.0227,4.2733,4.5492,4.687,4.6887,4.6887,4.6515,4.5742,4.4288,4.3443,4.3274,4.0268,3.8462,3.8125,3.2634,0.0,0.0,0.0,0.0,0.0,0.0,0.0,0.0,0.0,0.0,0.0,0.0,0.0,0.0,0.0,0.0,0.0,0.0,0.0,0.0,2.7667,0.0,0.0,0.0,0.0,0.0,0.0,0.0,0.0,0.0,0.0,3.5091,3.875,4.2067,4.3547,0.0,0.0,0.0,0.0,4.7536,4.5211,4.5381,4.5518,4.4766,4.471,4.5061,4.5979,0.0,0.0,4.6582,4.5126,4.401,4.3892,4.4632,4.4089,4.0232,3.9524,3.9545,3.9551,3.9511,3.9818,4.045,4.0477,4.0804,3.027,0.0,0.0,0.0,0.0,2.9477,3.219,3.6123,3.4985,3.4974,3.5763,3.5208,0.0,0.0,0.0,0.0,0.0,0.0,3.9935,4.2319,4.4245,4.543,4.5997,4.6026,4.6026,4.5929,4.4843,4.45,4.4807,4.3524,4.0226,3.5205,0.0,0.0,0.0,0.0,4.275,4.5273,4.7332,4.8359,4.8376,4.8376,4.7767,4.6515,4.5551,4.4553,4.3426,4.1987,4.0337,3.8479,3.6638,0.0,0.0,0.0,0.0,0.0,0.0,0.0,0.0,0.0,0.0,0.0,0.0,0.0,0.0,0.0,0.0,0.0,0.0,0.0,2.7311,3.0223,3.1447,0.0,0.0,0.0,0.0,0.0,0.0,0.0,0.0,0.0,4.1025,4.2704,4.4271,0.0,0.0,4.5901,4.5609,4.6279,4.6739,4.6653,4.6293,0.0,4.6524,4.6079,4.5965,4.676,4.7728,4.8366,4.8256,4.7852,4.7535,4.7457,4.7703,4.7497,4.6494,4.532,4.4478,4.4035,4.3884,4.3934,4.4153,4.4204,4.4422,3.8339,3.5448,3.3129,3.3087,3.4613,3.54,3.797,4.1522,4.0522,4.0356,4.0689,4.0214,3.8929,3.7089,3.747,0.0,0.0,0.0,4.3344,4.5818,4.6348,4.6969,4.7648,4.7682,4.7665,4.7631,4.7073,4.709,4.7648,4.6693,4.4699,4.1607,0.0,0.0,4.1448,4.3165,4.4996,4.6878,4.8287,4.9018,4.9018,4.9018,4.8443,4.7293,4.6819,4.5872,4.4356,4.3267,4.1998,4.0486,3.8735,3.5922,0.0,0.0,0.0,0.0,0.0,0.0,0.0,0.0,0.0,0.0,0.0,2.2581,2.4064,0.0,0.0,0.0,3.0328,3.0555,3.2155,3.3548,0.0,0.0,0.0,0.0,0.0,0.0,0.0,3.6909,4.034,4.3145,4.4487,4.5377,4.6102,4.6581,4.6603,4.641,4.6048,0.0,4.7214,4.7395,4.6951,4.6801,4.7312,4.7027,4.701,4.7776,4.8419,4.8877,4.897,4.9018,4.9018,4.9018,4.9018,4.9018,4.9018,4.8257,4.7564,4.7107,4.7005,4.7022,4.7005,4.7005,4.7158,4.5213,4.3928,3.6362,3.559,3.9336,4.0255,4.2518,4.5593,4.5563,4.4916,4.3832,4.3605,4.315,4.2433,4.2001,0.0,4.5423,4.5423,4.6676,4.9001,4.9018,4.9018,4.9001,4.9001,4.9018,4.8968,4.7614,4.7665,4.8849,4.6785,4.6393,4.7706,4.6273,4.5068,4.4328,4.5734,4.6912,4.7787,4.8602,4.9018,4.9018,4.894,4.8588,4.7882,4.7686,4.6948,4.5589,4.4036,4.3214,4.3076,3.9616,3.7088,3.5899,0.0,0.0,0.0,0.0,0.0,0.0,0.0,0.0,0.0,0.0,0.0,0.0,0.0,0.0,3.5774,3.7144,0.0,3.858,3.7203,0.0,0.0,0.0,3.7123,3.8472,3.9451,4.0344,4.1243,0.0,0.0,4.6038,4.6915,4.7522,4.7774,4.7774,4.746,4.6589,4.7802,4.8503,4.7675,4.7527,4.7527,4.7625,4.7698,4.8037,4.8754,4.9018,4.9001,4.9018,4.9018,4.9018,4.9018,4.9018,4.9018,4.9018,4.8934,4.9001,4.89,4.8917,4.8934,4.8849,4.8815,4.8798,4.4767,4.4429,4.2361,4.2416,4.3885,4.4657,4.5777,4.7013,4.6346,4.6233,4.6619,4.6586,4.6827,4.7298,4.7191,4.7487,4.8054,4.8084,4.8385,4.9001,4.9018,4.9018,4.9018,4.9018,4.9018,4.8968,4.8646,4.868,4.8968,4.843,4.827,4.8498,4.8239,4.7652,4.6841,4.7174,4.7821,4.8669,4.8886,4.9018,4.8987,4.8289,4.7867,4.7669,4.593,4.4854,4.4448,4.3089,4.2056,4.1531,4.1077,3.9831,3.7504,3.4778,0.0,0.0,0.0,0.0,0.0,0.0,0.0,0.0,0.0,3.0007,3.1919,0.0,3.8197,0.0,4.1228,4.0669,3.7468,3.9126,0.0,0.0,4.0446,4.1025,4.1399,4.3284,4.4394,4.4075,4.5611,4.6848,4.7278,4.751,4.7908,4.8602,4.8483,4.8212,4.8046,4.8406,4.8719,4.8505,4.8534,4.8608,4.8641,4.8655,4.8785,4.8968,4.9018,4.9018,4.9018,4.9018,4.9018,4.9018,4.9018,4.9018,4.9018,4.9018,4.9018,4.9018,4.9018,4.9018,4.9018,4.9018,4.9018,4.3439,4.3443,4.3364,4.3508,4.3877,4.5391,4.6634,4.7556,4.7144,4.744,4.8225,4.8208,4.8513,4.9001,4.9018,4.9018,4.9018,4.9018,4.9018,4.9018,4.9018,4.9018,4.9018,4.9018,4.9018,4.9018,4.9018,4.8781,4.8401,4.8353,4.8338,4.8258,4.8354,4.8344,4.8287,4.827,4.8503,4.9001,4.9018,4.8798,4.837,4.7868,4.7456,4.7088,4.5575,4.4614,4.436,4.297,4.1996,4.1643,4.1406,4.0657,3.9264,3.7279,3.4983,0.0,0.0,0.0,0.0,0.0,0.0,0.0,0.0,0.0,0.0,0.0,4.0821,4.1677,4.2762,4.2334,3.9775,4.1321,4.264,4.3103,4.3818,4.4388,4.4681,4.5947,4.6447,4.5635,4.6808,4.7625,4.7673,4.7908,4.8258,4.874,4.853,4.8362,4.8481,4.8332,4.8332,4.9077,4.9258,4.9502,4.9871,4.9982,4.9982,4.9999,4.9951,4.9982,4.9982,4.9982,4.9982,4.9965,4.9729,4.9492,4.9475,4.9187,4.9018,4.9018,4.9018,4.9018,4.9018,4.9018,4.9018,4.2125,4.2125,4.1901,4.1789,4.188,4.3993,4.5798,4.7309,4.7598,4.8186,4.9001,4.9018,4.9018,4.9018,4.9018,4.9018,4.9018,4.9018,4.9018,4.9018,4.9018,4.9018,4.9018,4.9018,4.894,4.8829,4.8829,4.8321,4.7456,4.7423,4.744,4.7556,4.7572,4.8047,4.894,4.897,4.9018,4.9018,4.897,4.8513,4.7688,4.7523,4.712,4.6502,4.5608,4.4936,4.4492,4.3022,4.2241,4.2253,4.1167,4.0721,4.1119,3.9418,3.7552,0.0,3.4307,0.0,0.0,0.0,0.0,0.0,0.0,0.0,0.0,4.1116,4.2265,4.2419,4.3202,4.3652,4.3524,4.3693,4.4603,4.6494,4.6754,4.6968,4.7523,4.7523,4.7088,4.6279,4.6999,4.7554,4.7587,4.8144,4.8536,4.8466,4.8115,4.8018,4.8345,4.7848,4.7922,4.9316,4.9624,4.9906,5.0641,5.0986,5.1068,5.0988,5.1002,5.1185,5.11,5.115,5.1183,5.1116,5.0625,5.0253,5.0236,4.9729,4.934,4.9407,4.9424,4.9323,4.9086,4.9018,4.9018,4.2829,4.2699,4.1482,4.123,4.1713,4.1625,4.3167,4.5703,4.6438,4.7606,4.9001,4.9018,4.9018,4.9018,4.9018,4.9018,4.9018,4.9018,4.9018,4.9018,4.9018,4.9018,4.9018,4.9018,4.8625,4.7917,4.7868,4.7373,4.6454,4.6454,4.6765,4.734,4.7523,4.8032,4.8801,0.0,0.0,0.0,4.8736,4.8435,4.8064,4.7067,4.648,4.6288,4.4374,0.0,4.3333,4.2037,4.1268,4.126,4.1184,0.0,0.0,0.0,0.0,0.0,0.0,0.0,0.0,0.0,0.0,0.0,4.182,4.1956,4.1791,4.3029,4.3917,4.4153,4.4812,4.5235,4.5252,4.6304,4.7183,4.7558,4.7506,4.7473,4.7556,4.6918,4.64,4.626,4.6843,4.7284,4.7316,4.7826,4.8207,4.8171,4.7464,4.7247,4.7809,4.7852,4.8031,4.84,4.9177,4.9727,4.9952,5.0693,5.0877,5.0342,5.0709,5.1154,5.1269,5.1252,5.1219,5.1252,5.1067,5.1014,5.1014,5.0879,5.0693,5.0777,5.0777,5.0439,4.9272,4.9018,4.9018,4.1728,4.1597,4.053,4.0258,0.0,4.0639,4.1963,4.4104,4.5424,4.7128,4.9001,4.9018,4.9018,4.9018,4.9018,4.9018,4.9018,4.9018,4.9018,4.9018,4.9018,4.875,4.8289,4.8289,4.7803,4.6902,4.656,4.6097,4.5493,4.5178,4.5393,4.6083,4.617,4.6866,4.8177,4.8274,4.8545,4.9001,4.837,4.7787,4.7222,4.6588,4.6076,4.5701,4.467,0.0,0.0,0.0,0.0,0.0,0.0,0.0,0.0,0.0,0.0,4.3922,4.2812,4.2473,4.3174,4.3469,4.3949,4.4789,4.4573,4.3921,4.2835,4.3422,4.3783,4.3814,4.4179,4.4828,4.596,4.6362,4.6844,4.7578,4.7226,4.6747,4.6292,4.6063,4.5739,4.5475,4.6269,4.6957,4.6957,4.75,4.7877,4.7863,4.7401,4.7102,4.7417,4.7313,4.7439,4.8326,4.9363,5.0046,5.0083,5.0409,5.0888,5.0799,5.0799,5.1252,5.2168,5.1883,5.1681,5.2117,5.2029,5.1758,5.1725,5.1471,5.1234,5.1234,5.1234,5.1031,5.0202,4.9813,4.9543,4.0636,4.0666,3.9783,3.9499,3.9625,4.0196,4.1361,4.2914,0.0,0.0,0.0,4.8767,4.8829,4.9001,4.9018,4.9018,4.9018,4.9018,4.9018,4.9001,4.8829,4.8338,4.7622,4.7325,4.6689,4.5789,4.5104,4.4622,4.437,4.3831,4.3967,4.4713,4.4812,4.5649,4.7239,4.734,4.7721,4.8433,4.7671,4.6866,4.6083,4.6154,4.5921,4.5332,4.5565,4.5776,4.596,4.5342,4.5,4.5,4.5097,4.5323,4.5646,4.5869,4.5796,4.536,4.5282,4.5609,4.6329,4.6364,4.6643,4.7307,4.5963,4.4568,4.3338,4.3362,4.3373,4.3181,4.3308,4.4216,4.6208,4.5898,4.6083,4.7533,4.6859,4.5997,4.5297,4.5388,4.5351,4.477,4.5778,4.6625,4.6656,4.7209,4.764,4.7579,4.741,4.7309,4.7249,4.6901,4.7141,4.8511,4.941,5.0046,5.011,5.0317,5.0681,5.095,5.0698,5.1134,5.2487,5.247,5.2383,5.3213,5.2926,5.2587,5.2486,5.2114,5.1607,5.1623,5.1591,5.1606,5.1506,5.0868,5.02,4.1564,4.1976,4.0172,3.9738,4.0217,3.9793,4.0786,4.294,4.5148,4.6739,4.7786,4.7803,4.8257,4.9018,4.9018,4.9018,4.9018,4.9018,4.9018,4.897,4.8176,4.7737,4.7523,4.6183,4.5034,4.4164,4.3472,4.2992,4.2749,4.2657,4.3335,4.4622,4.4812,4.5322,4.6314,4.6384,4.6454,4.6574,4.6186,4.5825,4.5536,4.602,4.6234,4.6147,4.6333,4.6552,4.6746,4.6068,4.5638,4.5654,4.5844,4.6298,4.7068,4.7259,4.7695,4.8245,4.7631,4.7259,4.7342,4.6675,4.6279,4.632,4.5584,4.4765,4.3968,4.3889,4.3904,4.3864,4.4357,4.5147,4.6086,4.657,4.7037,4.7789,4.7152,4.6563,4.6322,4.5778,4.5346,4.5211,4.5837,4.641,4.6497,4.6994,4.737,4.7372,4.7319,4.7309,4.7294,4.7234,4.7616,4.8496,4.8907,4.9029,4.911,4.9813,4.997,4.9336,4.9876,5.0589,5.1885,5.1849,5.2046,5.323,5.318,5.3213,5.3197,5.3281,5.2977,5.2943,5.2943,5.291,5.2842,5.1679,5.0446,4.1587,4.1662,4.0098,3.9589,3.9903,4.0292,4.1046,4.2178,4.3857,4.5473,4.685,4.7389,4.7836,4.8224,4.8346,4.8409,4.8379,4.8379,4.8147,4.7643,4.7621,4.6842,4.5562,4.4788,4.3759,4.2535,4.1806,4.163,4.185,4.1871,4.2401,4.348,4.4326,4.5005,4.5431,4.5416,4.5452,4.5431,4.5264,4.5184,4.5073,4.5332,4.5478,4.5515,4.6556,4.7177,4.7291,4.7441,4.7524,4.7524,4.7115,4.7105,4.7468,4.7111,4.7078,4.7423,4.7104,4.685,4.685,4.5992,4.5416,4.5431,4.4635,4.4161,4.417,4.3608,4.3403,4.3596,4.396,4.4787,4.6203,4.626,4.6454,4.726,4.6465,4.5966,4.593,4.5951,4.5843,4.5918,4.6441,4.6845,4.6845,4.713,4.7309,4.7309,4.7309,4.7309,4.7309,4.7309,4.7452,4.7861,4.7988,4.7988,4.803,4.835,4.8692,4.8718,4.8733,4.9432,5.0611,5.0741,5.0725,5.1594,5.2222,5.2609,5.2627,5.2627,5.287,5.3399,5.2956,5.2697,5.2404,5.11,4.9609,4.1422,4.1302,3.9963,3.9484,3.9768,4.104,4.1647,4.1743,4.315,4.4518,4.5766,4.6604,4.7006,4.7094,4.7216,4.7199,4.7113,4.7233,4.6821,4.6094,4.6483,4.548,4.3349,4.2864,4.2024,4.0859,4.0121,4.0263,4.1062,4.1309,4.1826,4.2653,4.3861,4.4472,4.4457,4.4488,4.4434,4.4472,4.445,4.4434,4.4472,4.4662,4.4812,4.4909,4.64,4.7273,4.734,4.7966,4.837,4.8338,4.7655,4.7273,4.7273,4.6592,4.6208,4.6173,4.6012,4.5762,4.5561,4.5049,4.4703,4.468,4.411,4.3988,4.4372,4.3768,4.3404,4.3703,4.3873,4.4604,4.6106,4.6005,4.5875,4.6686,4.6191,4.5897,4.5813,4.6232,4.6503,4.6606,4.6995,4.7294,4.7309,4.7309,4.7309,4.7309,4.7309,4.7309,4.7309,4.7309,4.7309,4.7309,4.7309,4.7352,4.7309,4.7352,4.7694,4.8377,4.7876,4.835,4.9432,4.9311,4.9352,5.032,5.108,5.1521,5.1578,5.1813,5.2241,5.2835,5.247,5.1832,5.1139,5.0,4.8637,4.1384,4.1227,3.992,3.9768,4.0442,4.1752,4.2306,4.253,4.4272,4.4832,4.4558,4.4871,4.523,4.5415,4.5474,4.5188,4.4688,4.5185,4.5071,4.4436,4.4213,4.3183,4.14,3.9994,3.918,3.8977,3.8442,3.9036,4.0495,4.1145,4.2028,4.3065,4.3379,4.3472,4.3472,4.3448,4.3448,4.3448,4.3433,4.3448,4.3488,4.432,4.4812,4.4812,4.5762,4.6314,4.6314,4.6435,4.6454,4.6454,4.64,4.6314,4.6279,4.6208,4.6173,4.6067,4.5358,4.4548,4.3738,4.4083,4.4373,4.4393,4.4817,4.5024,4.5158,4.5102,4.5053,4.5095,4.511,4.5492,4.6224,4.6259,4.6469,4.7074,4.7109,4.713,4.704,4.716,4.7219,4.7234,4.7249,4.7309,4.7309,4.7309,4.7309,4.7309,4.7309,4.7309,4.7309,4.7309,4.7309,4.7309,4.7309,4.7324,4.7324,4.7309,4.7381,4.7495,4.7424,4.788,4.8646,4.9,4.9125,4.9945,5.0496,5.0737,5.0864,5.1208,5.1875,5.2181,5.195,5.1364,4.9694,4.8969,4.845,4.0749,4.0422,3.9779,4.0117,4.1122,4.2372,4.2755,4.2605,4.4436,4.4706,4.3763,4.3853,4.4303,4.4908,4.4668,4.4209,4.3601,4.3841,4.3522,4.2736,4.2412,4.1393,3.9768,3.8874,3.8187,3.7887,3.8143,3.8876,3.9993,4.1302,4.2447,4.3106,4.2644,4.2644,4.313,4.1961,4.1616,4.2249,4.1947,4.2106,4.2884,4.3558,4.4124,4.4506,4.5073,4.5358,4.5431,4.5905,4.6208,4.6173,4.567,4.5038,4.4355,4.3776,4.3169,4.2613,4.3148,4.3622,4.3873,4.4526,4.4582,4.3838,4.4721,4.5173,4.4848,4.545,4.6037,4.6367,4.6127,4.6172,4.6785,4.692,4.701,4.7249,4.7309,4.7309,4.7309,4.7309,4.7309,4.7309,4.7309,4.7309,4.7309,4.7309,4.7309,4.7309,4.7324,4.7369,4.7339,4.7309,4.7309,4.7369,4.7608,4.7668,4.7444,4.7309,4.7324,4.7324,4.7309,4.7626,4.8278,4.8511,4.8773,4.962,5.0206,5.0536,5.0702,5.0909,5.1375,5.1651,5.1502,5.0934,5.0102,4.9193,4.8399,3.9674,3.9275,3.9166,3.9722,4.0818,4.2252,4.2579,4.2495,4.4389,4.4661,4.3618,4.3559,4.3859,4.4181,4.3493,4.2729,4.2181,4.2464,4.1992,4.1003,4.0973,3.9998,3.8225,3.7759,3.7356,3.7099,3.7657,3.8575,3.9621,4.076,4.1829,4.2339,4.1762,4.1676,4.2114,4.0773,4.0512,4.1242,4.09,4.1307,4.2423,4.2705,4.3396,4.4441,4.4795,4.4702,4.4241,4.4854,4.4977,4.4461,4.3799,4.3056,4.2206,4.1488,4.0816,4.035,4.1463,4.2654,4.3518,4.4146,4.4297,4.3849,4.4701,4.5312,4.5391,4.6031,4.6758,4.7145,4.6817,4.6815,4.7204,4.7309,4.7309,4.7309,4.7309,4.7309,4.7309,4.7309,4.7309,4.7309,4.7309,4.7384,4.7549,4.7758,4.7938,4.7938,4.7893,4.7833,4.7848,4.7893,4.7878,4.7848,4.8282,4.8237,4.7743,4.7848,4.7788,4.7833,4.7938,4.8117,4.8446,4.8461,4.8565,4.9465,5.0123,5.0389,5.0227,5.0448,5.0956,5.1455,5.133,5.07,5.0115,4.9233,4.8773,3.8076,3.8007,3.7965,3.8519,3.9186,4.094,4.167,4.1753,4.4125,4.4803,4.405,4.402,4.3858,4.311,4.14,4.0207,3.9854,4.0875,4.0514,3.9146,4.0014,3.9088,3.6495,3.6379,3.6379,3.6352,3.6611,3.7679,3.9538,3.9364,3.9654,4.0808,4.0733,4.0512,4.0396,4.0449,4.0625,4.0683,4.0601,4.1245,4.2201,4.1906,4.2775,4.4842,4.5185,4.4312,4.2989,4.2776,4.2065,4.0346,4.0432,4.0202,4.0087,4.0041,4.0115,4.0611,4.119,4.1611,4.1817,4.2467,4.3164,4.411,4.478,4.5752,4.6241,4.6593,4.6871,4.7251,4.7031,4.7089,4.7294,4.7309,4.7309,4.7309,4.7309,4.7309,4.7309,4.7309,4.7309,4.7369,4.7459,4.7713,4.8192,4.8835,4.9015,4.906,4.9134,4.9105,4.9015,4.909,4.9075,4.9075,4.9134,4.9045,4.8461,4.8506,4.8955,4.8955,4.8745,4.909,4.903,4.9,4.9075,4.9254,4.993,5.0125,4.9764,4.9983,5.0672,5.1076,5.1095,5.0649,5.0319,4.9644,4.9224,3.805,3.8094,3.8892,3.9331,3.9652,4.0668,4.0883,4.0673,4.2306,4.2438,4.1582,4.1468,4.1127,4.0416,3.9323,3.9083,3.946,3.933,3.8797,3.8196,3.7978,3.7311,3.6401,3.5948,3.5794,3.5884,3.6486,3.7615,3.9078,3.94,3.9911,4.0381,3.9915,3.9969,4.0536,3.9601,3.9297,3.9994,3.9759,4.0132,4.1333,4.1493,4.2418,4.3964,4.3288,4.2541,4.1917,4.1903,4.1597,4.0928,4.0628,4.023,3.9838,3.9102,3.9134,4.0027,4.069,4.1389,4.2098,4.2794,4.2936,4.2678,4.3601,4.4022,4.3882,4.441,4.5161,4.5869,4.6062,4.6344,4.7121,4.7309,4.7309,4.7309,4.7309,4.7309,4.7309,4.7309,4.7459,4.7878,4.8267,4.8671,4.885,4.9179,4.9299,4.9299,4.9314,4.9344,4.9314,4.9314,4.9374,4.9404,4.9613,4.9808,4.9628,4.9284,4.9299,4.9284,4.9299,4.9523,4.9598,4.9733,4.9838,5.0197,5.0541,5.0541,5.0425,5.0471,5.1014,5.1015,5.103,5.0879,5.0603,5.0168,4.9927,3.754,3.7678,3.845,3.8796,3.8836,3.9576,3.967,3.9455,4.0652,4.0675,3.9982,3.9885,3.9704,3.9314,3.8421,3.8456,3.9229,3.8588,3.8002,3.7605,3.7116,3.6695,3.6328,3.5973,3.5805,3.5936,3.6698,3.767,3.8519,3.8881,3.9436,4.0007,3.9092,3.9171,3.9938,3.8915,3.8761,3.9316,3.9105,3.941,4.0374,4.0787,4.1369,4.1999,4.1379,4.1046,4.1245,4.1265,4.0937,4.0442,3.9987,3.9628,3.918,3.8659,3.8662,3.9472,4.0086,4.0743,4.1474,4.2003,4.207,4.169,4.2363,4.2606,4.2266,4.3026,4.3868,4.4595,4.478,4.5207,4.5779,4.6018,4.6403,4.7077,4.7309,4.7309,4.7324,4.7504,4.7923,4.8536,4.9149,4.9508,4.9613,4.9793,4.9912,4.9898,4.9898,4.9898,4.9883,4.9898,4.9883,4.9927,5.0287,5.0465,5.042,5.0242,5.0122,5.0092,4.9972,5.0167,5.0242,5.0375,5.0569,5.105,5.1229,5.1229,5.1229,5.1229,5.1229,5.1229,5.1189,5.1042,5.0885,5.081,5.0601,3.6452,3.6499,3.6465,3.6628,3.6862,3.7776,3.8134,3.8315,3.9295,3.9615,3.9417,3.9708,3.9776,4.0021,3.8655,3.8398,3.8673,3.8681,3.8122,3.7227,3.7629,3.7311,3.6518,3.6427,3.6455,3.6505,3.6945,3.7484,3.8032,3.7736,3.8003,3.8692,3.84,3.8285,3.8151,3.8768,3.8906,3.8969,3.8957,3.9145,3.9648,3.9726,3.9816,3.9867,3.9829,4.0118,4.072,4.0769,4.005,3.8561,3.8287,3.8064,3.8338,3.863,3.8919,3.9095,3.9473,3.9737,3.9801,3.9955,4.0605,4.1119,4.1555,4.1972,4.2593,4.2978,4.3218,4.3456,4.349,4.3598,4.3754,4.3951,4.4791,4.6785,4.7077,4.7062,4.7355,4.7893,4.858,4.9239,4.9838,5.0166,5.0315,5.0584,5.0915,5.096,5.0975,5.096,5.09,5.09,5.1109,5.1094,5.1005,5.096,5.1094,5.1199,5.1169,5.1124,5.0975,5.096,5.087,5.0945,5.0915,5.1229,5.1229,5.1229,5.1229,5.1229,5.1229,5.1229,5.1229,5.1229,5.1124,5.1035,5.1094,3.6417,3.6417,3.6417,3.6417,3.6452,3.6803,3.693,3.6989,3.7381,3.7474,3.7551,3.7888,3.8148,3.8308,3.8034,3.7916,3.7773,3.8054,3.7685,3.6828,3.6879,3.7032,3.6968,3.6923,3.7123,3.7387,3.7262,3.7462,3.7814,3.7462,3.7751,3.8605,3.8291,3.8442,3.9094,3.9346,3.927,3.8957,3.8919,3.8806,3.8617,3.8931,3.8944,3.8655,3.927,3.9664,3.9547,3.9853,3.9766,3.9145,3.8806,3.8592,3.8693,3.9132,3.9433,3.9459,3.9572,3.9697,3.9697,3.9697,3.9839,4.0224,4.0313,4.0453,4.0794,4.0982,4.1356,4.2035,4.2217,4.2461,4.3321,4.3856,4.4564,4.5837,4.6018,4.6521,4.7448,4.8327,4.9179,4.9853,5.0511,5.0823,5.0883,5.1169,5.1214,5.1229,5.1229,5.1229,5.1229,5.1229,5.1229,5.1229,5.1229,5.1229,5.1229,5.1229,5.1229,5.1229,5.1229,5.1229,5.1229,5.1229,5.1229,5.1229,5.1229,5.1229,5.1229,5.1229,5.1229,5.1229,5.1229,5.1229,5.1229,5.1229,5.1229,3.6417,3.6417,3.6417,3.6417,3.6417,3.6417,3.6417,3.6417,3.6417,3.6518,3.6757,3.7084,3.7437,3.7764,3.7965,3.7939,3.7826,3.7977,3.7638,3.7096,3.6973,3.7186,3.7462,3.7487,3.7651,3.7889,3.7651,3.7663,3.7977,3.7713,3.8014,3.8655,3.8504,3.8768,3.9584,3.9484,3.9182,3.8944,3.8693,3.8379,3.8153,3.8354,3.8366,3.8203,3.8906,3.917,3.8982,3.9396,3.9697,3.9647,3.9346,3.9195,3.9207,3.9496,3.9697,3.9697,3.9697,3.9697,3.9697,3.9697,3.9697,3.9697,3.9697,3.9749,3.9749,3.9697,4.0121,4.0693,4.1089,4.1546,4.2249,4.2825,4.3593,4.451,4.5612,4.6683,4.809,4.9105,4.9868,5.0435,5.0913,5.1184,5.1229,5.1229,5.1229,5.1229,5.1229,5.1229,5.1229,5.1229,5.1229,5.1229,5.1229,5.1229,5.1229,5.1229,5.1229,5.1229,5.1229,5.1229,5.1229,5.1229,5.1229,5.1229,5.1229,5.1229,5.1229,5.1229,5.1229,5.1229,5.1308,5.1229,5.1229,5.1229,5.1229,3.6417,3.6417,3.6417,3.6417,3.643,3.6468,3.6468,3.6417,3.6556,3.6784,3.7111,3.7362,3.7902,3.8555,3.8404,3.8442,3.8693,3.8429,3.8191,3.8052,3.8052,3.814,3.8065,3.8052,3.8103,3.8103,3.8002,3.8015,3.814,3.8002,3.8304,3.8844,3.8768,3.9019,3.9283,3.9044,3.8768,3.8567,3.8191,3.7927,3.7826,3.7939,3.7902,3.7877,3.853,3.8919,3.8881,3.9346,3.9697,3.9697,3.9647,3.9609,3.9672,3.9697,3.9697,3.9697,3.9697,3.9697,3.9697,3.9697,3.9697,3.9697,3.9697,3.9697,3.9697,3.9697,3.9736,3.9916,4.0332,4.057,4.0713,4.1309,4.2198,4.3399,4.5399,4.7394,4.9449,4.9645,4.9757,5.0602,5.1058,5.112,5.112,5.1229,5.1229,5.1229,5.1229,5.1229,5.1229,5.1229,5.1229,5.1229,5.1229,5.1229,5.1229,5.1229,5.1229,5.1229,5.1229,5.1229,5.1229,5.1229,5.1229,5.1229,5.1229,5.1229,5.1229,5.1229,5.1433,5.1696,5.1603,5.1354,5.1386,5.1603,5.1386,3.6417,3.6417,3.6417,3.6417,3.648,3.682,3.6769,3.6556,3.7236,3.7362,3.7425,3.8078,3.8542,3.8919,3.9145,3.9132,3.9032,3.912,3.8994,3.8755,3.9094,3.8969,3.8705,3.8642,3.8642,3.8592,3.8228,3.8228,3.8567,3.8153,3.8278,3.8881,3.8442,3.8329,3.8391,3.8329,3.8002,3.7676,3.7513,3.7186,3.6948,3.7236,3.7186,3.6983,3.8177,3.8592,3.8404,3.9182,3.9697,3.9697,3.9697,3.9697,3.9697,3.9697,3.9697,3.9697,3.9697,3.9697,3.9697,3.9697,3.9697,3.9697,3.9697,3.9697,3.9697,3.9697,3.9697,3.9785,4.0187,4.0375,4.0249,4.1141,4.2623,4.4256,4.5187,4.6125,4.7081,4.7236,4.7807,4.9339,4.9776,5.0239,5.0964,5.1229,5.1229,5.1229,5.1229,5.1229,5.1229,5.1229,5.1229,5.1229,5.1229,5.1229,5.1229,5.1229,5.1229,5.1229,5.1229,5.1229,5.1229,5.1229,5.1229,5.1229,5.1229,5.1229,5.1229,5.1229,5.1603,5.1896,5.2063,5.1896,5.2275,5.2485,5.1896,3.6417,3.6417,3.6417,3.6543,3.6732,3.681,3.6958,3.7111,3.7437,3.7801,3.8002,3.8592,3.9057,3.9245,3.9534,3.9534,3.9295,3.9546,3.9496,3.932,3.9521,3.9471,3.9258,3.922,3.922,3.9107,3.8379,3.8228,3.8329,3.7939,3.7889,3.8078,3.8065,3.8002,3.804,3.7739,3.7525,3.7211,3.6985,3.6707,3.6468,3.6707,3.6671,3.6707,3.7813,3.8454,3.8743,3.9371,3.9697,3.9697,3.9697,3.9697,3.9697,3.9697,3.9697,3.9697,3.9697,3.9697,3.9697,3.9697,3.9697,3.9697,3.9697,3.9697,3.9697,3.9697,3.9735,4.0074,4.035,4.0438,4.0626,4.148,4.262,4.3463,4.4032,4.483,4.625,4.6662,4.7393,4.8588,4.9259,4.9727,5.1011,5.1167,5.1229,5.1229,5.1229,5.1229,5.1229,5.1229,5.1229,5.1229,5.1229,5.1229,5.1229,5.1229,5.1229,5.1229,5.1229,5.1229,5.1229,5.1229,5.1229,5.1229,5.1229,5.1229,5.1229,5.1214,5.1386,5.1681,5.2109,5.253,5.2738,5.2694,5.2184,3.6417,3.6417,3.6417,3.6694,3.696,3.6551,3.6841,3.7614,3.7356,3.7829,3.8668,3.8957,3.9258,3.9697,3.9659,3.9685,3.9659,3.9672,3.9685,3.9634,3.9685,3.9597,3.9446,3.9546,3.9433,3.9195,3.8404,3.8027,3.7864,3.7425,3.7236,3.7412,3.7726,3.7801,3.76,3.7299,3.7111,3.6973,3.6694,3.6505,3.6417,3.648,3.6468,3.6619,3.7462,3.8605,3.9283,3.9697,3.9697,3.9697,3.9697,3.9697,3.9697,3.9697,3.9697,3.9697,3.9697,3.9697,3.9697,3.9697,3.9697,3.9697,3.9697,3.9747,3.9835,3.9973,4.0212,4.0576,4.0651,4.099,4.1304,4.1856,4.2229,4.2688,4.2907,4.4212,4.5925,4.6682,4.7197,4.8589,4.8752,4.963,5.054,5.1105,5.1229,5.1229,5.1229,5.1229,5.1229,5.1229,5.1229,5.1229,5.1229,5.1229,5.1229,5.1229,5.1229,5.1229,5.1229,5.1229,5.1229,5.1229,5.1229,5.1229,5.1229,5.1229,5.1229,5.1214,5.1308,5.1727,5.2275,5.2575,5.2783,5.253,5.2109,3.6417,3.6417,3.6417,3.648,3.6416,3.5783,3.615,3.7291,3.7002,3.7533,3.8767,3.9308,3.9559,3.9697,3.9697,3.9697,3.9697,3.9697,3.9697,3.9697,3.9697,3.9421,3.9245,3.9421,3.9157,3.858,3.8191,3.7789,3.7425,3.7262,3.7186,3.7224,3.7299,3.7161,3.687,3.6845,3.6581,3.6568,3.6455,3.6417,3.6417,3.6417,3.6443,3.6606,3.7487,3.8542,3.9446,3.9697,3.9697,3.9697,3.9697,3.9697,3.9697,3.9697,3.9697,3.9697,3.9697,3.9697,3.9697,3.9697,3.9697,3.9697,3.9722,3.9885,4.035,4.0676,4.0874,4.1241,4.1543,4.1693,4.1819,4.1643,4.1982,4.2564,4.2904,4.324,4.3755,4.3962,4.4738,4.5859,4.6991,4.8074,4.947,5.0493,5.0807,5.1073,5.1167,5.1182,5.112,5.1073,5.1229,5.1229,5.1229,5.1229,5.1229,5.1229,5.1229,5.1229,5.1229,5.1229,5.1229,5.1229,5.1229,5.1229,5.1229,5.1229,5.1229,5.1261,5.1308,5.1896,5.2395,5.2767,5.2856,5.2515,5.2395,3.6417,3.632,3.5491,3.5377,3.5539,3.4259,3.4495,3.5675,3.5554,3.6505,3.8026,3.8589,3.9025,3.9685,3.9697,3.9697,3.9697,3.9697,3.9697,3.9634,3.9459,3.9196,3.8894,3.8843,3.8517,3.799,3.7713,3.7437,3.7199,3.6973,3.691,3.7174,3.7186,3.7111,3.6845,3.6757,3.6669,3.6468,3.6417,3.6417,3.6417,3.6417,3.6769,3.7209,3.7965,3.8843,3.9609,3.9697,3.9697,3.9697,3.9697,3.9697,3.9697,3.9697,3.9697,3.9697,3.9697,3.9697,3.9697,3.9697,3.9697,3.9697,3.9697,3.9848,4.0187,4.0639,4.1025,4.1263,4.1568,4.1756,4.1781,4.1882,4.2108,4.2421,4.2836,4.2974,4.2986,4.3042,4.3492,4.4684,4.5767,4.6799,4.7974,4.9112,4.921,4.9049,5.0032,5.0143,5.0445,5.0493,5.1073,5.1229,5.1229,5.1229,5.1229,5.1229,5.1229,5.1229,5.1229,5.1229,5.1229,5.1229,5.1229,5.1229,5.1229,5.1229,5.1229,5.1261,5.1261,5.1526,5.1972,5.2723,5.2885,5.2215,5.235,3.6026,3.5567,3.409,3.3963,3.4343,3.2581,3.2862,3.4409,3.3835,3.5177,3.7163,3.7518,3.8465,3.9478,3.9697,3.9697,3.9697,3.9697,3.9697,3.9647,3.9182,3.8868,3.8617,3.8203,3.7839,3.7726,3.7425,3.7199,3.7073,3.6832,3.692,3.7123,3.7048,3.6935,3.6998,3.691,3.6646,3.643,3.6417,3.6417,3.6417,3.6443,3.6872,3.7789,3.8266,3.8944,3.9509,3.9697,3.9697,3.9697,3.9697,3.9697,3.9697,3.9697,3.9697,3.9697,3.9697,3.9697,3.9697,3.9697,3.9697,3.9697,3.9697,3.9772,3.9961,4.0576,4.1141,4.1367,4.1605,4.1618,4.1463,4.1819,4.2187,4.2451,4.2803,4.2936,4.2986,4.2986,4.3602,4.4264,4.4994,4.5925,4.6591,4.7415,4.7197,4.7299,4.8389,4.921,4.9518,5.0128,5.0855,5.1229,5.1229,5.1229,5.1229,5.1229,5.1229,5.1229,5.1229,5.1229,5.1229,5.1229,5.1229,5.1229,5.1229,5.1229,5.1229,5.1229,5.1229,5.1229,5.1464,5.2139,5.2094,5.1835,5.2365,3.4284,3.2509,3.2533,3.2621,3.2589,3.157,3.2273,3.4027,3.3028,3.4511,3.7139,3.7518,3.819,3.931,3.9697,3.9697,3.953,3.9581,3.9697,3.9584,3.9082,3.863,3.8191,3.7613,3.7136,3.6895,3.6935,3.7186,3.7186,3.7111,3.7073,3.7086,3.6847,3.6707,3.6556,3.6144,3.627,3.6405,3.6417,3.6417,3.6417,3.6543,3.6872,3.7864,3.8191,3.8755,3.9459,3.9685,3.9697,3.9697,3.9697,3.9697,3.9697,3.9697,3.9697,3.9697,3.9697,3.9697,3.9697,3.9697,3.9697,3.9697,3.9697,3.9961,4.0425,4.1178,4.1656,4.1932,4.202,4.202,4.2087,4.2225,4.2451,4.274,4.2873,4.2986,4.2986,4.303,4.3085,4.3602,4.4318,4.4941,4.5409,4.582,4.5964,4.6539,4.7721,4.8489,4.8901,4.9873,5.1073,5.1229,5.1229,5.1229,5.1229,5.1229,5.1229,5.1229,5.1229,5.1229,5.1229,5.1229,5.1229,5.1229,5.1229,5.1229,5.1229,5.1229,5.1229,5.1229,5.1386,5.1542,5.1681,5.1804,5.232,3.416,3.2028,3.1494,3.1427,3.1363,3.019,3.0581,3.2013,3.1625,3.2738,3.4825,3.6042,3.7145,3.8243,3.8582,3.8582,3.8687,3.9478,3.9645,3.9534,3.8843,3.8316,3.7877,3.7186,3.6744,3.6631,3.6945,3.7199,3.7186,3.7186,3.7337,3.7525,3.7312,3.7086,3.681,3.6621,3.6345,3.648,3.6417,3.6417,3.6455,3.6631,3.7136,3.7513,3.8153,3.873,3.912,3.9609,3.9685,3.9697,3.9697,3.9697,3.9697,3.9697,3.9697,3.9697,3.9697,3.9697,3.9697,3.9697,3.9697,3.9697,3.9697,3.9961,4.0526,4.1204,4.1982,4.2434,4.2585,4.264,4.2572,4.2615,4.2778,4.2886,4.2986,4.2986,4.2986,4.2986,4.2986,4.2986,4.3504,4.392,4.392,4.4385,4.4792,4.5767,4.7005,4.7721,4.8189,4.9567,5.0917,5.1229,5.1229,5.1229,5.1229,5.1229,5.1229,5.1229,5.1229,5.1229,5.1229,5.1229,5.1229,5.1229,5.1229,5.1229,5.1229,5.1229,5.1229,5.1229,5.1308,5.1433,5.1603,5.1896,5.2275,3.3999,3.144,3.0517,3.0346,3.0329,2.9291,2.9381,3.0185,3.0466,3.1472,3.3092,3.4359,3.5672,3.6757,3.7091,3.7091,3.7145,3.8319,3.8638,3.877,3.8163,3.773,3.7539,3.7098,3.6644,3.6769,3.6983,3.7249,3.7412,3.7425,3.7638,3.7688,3.7839,3.75,3.6985,3.6596,3.6584,3.6568,3.6417,3.6417,3.6531,3.6807,3.7174,3.7362,3.8228,3.8755,3.917,3.9496,3.9672,3.9697,3.9697,3.9697,3.9697,3.9697,3.9697,3.9697,3.9697,3.9697,3.9697,3.9697,3.9697,3.9697,3.9697,3.9998,4.0551,4.1229,4.1957,4.2748,4.2961,4.2924,4.2886,4.2949,4.2961,4.2974,4.2986,4.2986,4.2986,4.2986,4.2986,4.2986,4.2986,4.3141,4.3351,4.3394,4.392,4.4427,4.5608,4.6888,4.7554,4.9259,5.0493,5.1011,5.1229,5.1229,5.1229,5.1229,5.1229,5.1229,5.1229,5.1229,5.1229,5.1229,5.1229,5.1229,5.1229,5.1229,5.1229,5.1229,5.1229,5.1229,5.1229,5.1261,5.1433,5.1433,5.165,3.2372,2.881,2.9466,2.9504,2.9317,2.9675,3.0244,3.0732,3.0771,3.1707,3.2907,3.335,3.4292,3.5343,3.5672,3.5629,3.5683,3.6042,3.6808,3.7397,3.7175,3.7178,3.7352,3.7211,3.6998,3.7071,3.7149,3.7475,3.7713,3.7826,3.7753,3.7666,3.6967,3.6438,3.6021,3.5891,3.5968,3.6282,3.637,3.6417,3.643,3.6505,3.6973,3.7575,3.8078,3.853,3.922,3.9521,3.9685,3.9697,3.9697,3.9697,3.9697,3.9697,3.9697,3.9697,3.9697,3.9697,3.9697,3.9697,3.9697,3.9697,3.9697,3.9998,4.0651,4.1517,4.2321,4.2861,4.2986,4.2986,4.2986,4.2986,4.2986,4.2986,4.2986,4.2986,4.2986,4.2986,4.2986,4.2986,4.2986,4.2986,4.3141,4.3085,4.3141,4.3602,4.4277,4.5661,4.7248,4.9049,5.0335,5.0964,5.1229,5.1229,5.1229,5.1229,5.1229,5.1229,5.1229,5.1229,5.1229,5.1229,5.1229,5.1229,5.1229,5.1229,5.1229,5.1229,5.1229,5.1229,5.1229,5.1229,5.1229,5.1229,5.1229,3.2254,2.8711,2.9316,2.9463,2.9375,2.9951,3.0459,3.083,3.0957,3.1218,3.1988,3.2804,3.3519,3.408,3.4858,3.4847,3.4403,3.4781,3.5951,3.6655,3.6775,3.6955,3.7505,3.7349,3.7186,3.7092,3.7487,3.7739,3.7965,3.7804,3.763,3.6455,3.588,3.5003,3.4641,3.4691,3.4932,3.5366,3.5918,3.637,3.6417,3.6443,3.6644,3.7111,3.7676,3.8278,3.8768,3.9446,3.9659,3.9697,3.9697,3.9697,3.9697,3.9697,3.9697,3.9697,3.9697,3.9697,3.9697,3.9697,3.9697,3.971,3.9772,4.0086,4.0927,4.1944,4.2728,4.2949,4.2986,4.2986,4.2986,4.2986,4.2986,4.2986,4.2986,4.2986,4.2986,4.2986,4.2986,4.2986,4.2986,4.2986,4.2986,4.2986,4.303,4.3295,4.418,4.5462,4.7299,4.9357,5.0383,5.1058,5.1214,5.1229,5.1229,5.1229,5.1229,5.1229,5.1229,5.1229,5.1229,5.1229,5.1229,5.1229,5.1229,5.1229,5.1229,5.1229,5.1229,5.1229,5.1229,5.1229,5.1229,5.1229,5.1261,3.2094,2.8818,2.9346,2.9453,2.9326,2.9922,3.0391,3.0693,3.084,3.0898,3.117,3.1988,3.253,3.2695,3.3356,3.3191,3.2633,3.3626,3.4824,3.558,3.5915,3.5926,3.6009,3.6148,3.6087,3.6394,3.6287,3.6543,3.668,3.6706,3.6062,3.5173,3.4648,3.3815,3.3147,3.3775,3.4703,3.5307,3.6013,3.6358,3.6417,3.6417,3.6518,3.6908,3.7425,3.8065,3.8354,3.9132,3.9672,3.9697,3.9697,3.9697,3.9697,3.9697,3.9697,3.9697,3.9697,3.9697,3.9697,3.9697,3.9697,3.9772,4.0149,4.0701,4.1706,4.2647,4.3187,4.325,4.3237,4.3162,4.3011,4.2986,4.2986,4.2986,4.2986,4.2986,4.2986,4.2986,4.2986,4.2986,4.2986,4.2986,4.2986,4.2986,4.303,4.3141,4.4071,4.5302,4.7262,4.9421,5.0493,5.1167,5.1214,5.1229,5.1229,5.1229,5.1229,5.1229,5.1229,5.1229,5.1229,5.1229,5.1229,5.1229,5.1229,5.1229,5.1229,5.1229,5.1229,5.1229,5.1229,5.1229,5.1229,5.1229,5.1214,3.1347,2.8408,2.9264,2.9101,2.8555,2.9697,3.0234,3.04,3.0723,3.084,3.082,3.1112,3.1286,3.1187,3.115,3.1187,3.1141,3.0717,3.1958,3.2667,3.2753,3.3481,3.4003,3.4228,3.4057,3.4279,3.4768,3.4687,3.4223,3.4669,3.4767,3.4884,3.332,3.2656,3.2543,3.3155,3.4666,3.5415,3.6216,3.637,3.6417,3.6455,3.6606,3.7061,3.7651,3.8241,3.8781,3.9308,3.9672,3.9672,3.9697,3.9697,3.9697,3.9697,3.9697,3.9697,3.9697,3.9697,3.9697,3.9697,3.9722,3.9986,4.0614,4.1517,4.2472,4.3263,4.3677,4.3727,4.374,4.3489,4.3237,4.2999,4.3112,4.2986,4.2986,4.2986,4.2986,4.2986,4.2986,4.2986,4.2986,4.2986,4.2986,4.2986,4.2986,4.3085,4.381,4.5048,4.7057,4.9063,5.035,5.112,5.1167,5.1229,5.1229,5.1229,5.1229,5.1229,5.1229,5.1229,5.1229,5.1229,5.1229,5.1229,5.1229,5.1229,5.1229,5.1229,5.1229,5.1229,5.1229,5.1229,5.1229,5.1229,5.1229,3.013,2.8002,2.8315,2.8506,2.8779,3.0068,3.0625,3.0596,3.0518,3.0459,3.0498,3.0752,3.0889,3.0752,3.0459,3.0449,3.0771,3.041,3.1321,3.2292,3.2867,3.3105,3.3433,3.3498,3.3966,3.3752,3.3897,3.414,3.4215,3.3301,3.2651,3.235,3.1598,3.063,3.0773,3.2191,3.3848,3.5114,3.5966,3.6417,3.6417,3.6417,3.6518,3.6719,3.7211,3.7764,3.8291,3.8932,3.9295,3.9597,3.9685,3.9697,3.9697,3.9697,3.9697,3.9697,3.9697,3.9697,3.971,3.9735,3.9835,4.0388,4.1204,4.2195,4.3037,4.3526,4.3978,4.4154,4.4279,4.3991,4.3589,4.3463,4.3426,4.3124,4.2986,4.2986,4.2986,4.2986,4.2986,4.2986,4.2986,4.2986,4.2986,4.2986,4.2986,4.3085,4.3865,4.4887,4.6902,4.8702,5.0032,5.1073,5.1182,5.1229,5.1229,5.1229,5.1229,5.1229,5.1229,5.1229,5.1229,5.1229,5.1229,5.1229,5.1229,5.1229,5.1229,5.1229,5.1229,5.1229,5.1229,5.1229,5.1229,5.1229,5.1229,2.9362,2.781,2.7939,2.8223,2.8691,2.9805,3.0303,3.0273,3.0098,3.0098,3.0225,3.0664,3.0791,3.0596,3.0234,3.0244,3.042,3.0358,3.0997,3.1548,3.1958,3.2196,3.2382,3.2427,3.2104,3.262,3.2922,3.2994,3.2753,3.2097,3.1381,3.0642,3.004,2.9303,2.9355,3.0876,3.2994,3.4362,3.5619,3.637,3.6417,3.6417,3.6417,3.6593,3.7123,3.7651,3.8216,3.8806,3.9358,3.9597,3.9697,3.9697,3.9697,3.9697,3.9697,3.9697,3.9697,3.9697,3.9722,3.991,4.0187,4.0789,4.1781,4.2672,4.3376,4.3966,4.4618,4.4782,4.4731,4.4418,4.3878,4.3564,4.335,4.3011,4.2986,4.2986,4.2986,4.2986,4.2986,4.2986,4.2986,4.2986,4.2986,4.2986,4.2986,4.324,4.4126,4.5209,4.6799,4.8439,4.9776,5.0665,5.1229,5.1229,5.1229,5.1229,5.1229,5.1229,5.1229,5.1229,5.1229,5.1229,5.1229,5.1229,5.1229,5.1229,5.1229,5.1229,5.1229,5.1229,5.1229,5.1229,5.1229,5.1229,5.1229,2.9227,2.7888,2.8496,2.8389,2.7949,2.8633,2.9072,2.9297,2.9512,2.9795,3.0117,3.0586,3.0625,3.0264,2.9932,3.0068,3.0254,2.9961,3.0187,3.0596,3.0717,2.9921,2.9729,2.9939,3.0631,2.9958,3.0641,3.1204,3.0757,3.0863,3.0112,2.9504,2.9298,2.8903,2.8641,3.0979,3.2944,3.4325,3.5619,3.6263,3.6417,3.6417,3.6417,3.6619,3.7224,3.7739,3.814,3.8868,3.9408,3.9647,3.9697,3.9697,3.9697,3.9697,3.9697,3.9697,3.9697,3.971,3.9747,4.0212,4.0739,4.1354,4.2333,4.3313,4.4317,4.497,4.5321,4.5384,4.5058,4.4493,4.3915,4.3413,4.3237,4.3024,4.2999,4.2986,4.2986,4.2986,4.2986,4.2986,4.2986,4.2986,4.2986,4.2986,4.2986,4.3394,4.4331,4.5462,4.6643,4.7568,4.8653,5.0032,5.065,5.1011,5.1011,5.1167,5.1229,5.1229,5.1229,5.1229,5.1229,5.1229,5.1229,5.1229,5.1229,5.1229,5.1229,5.1229,5.1229,5.1229,5.1229,5.1229,5.1229,5.1229,5.1229,2.7976,2.7738,2.7969,2.8096,2.8193,2.8984,2.9346,2.9375,2.9492,2.9492,2.9521,3.0088,3.0371,3.0156,3.0117,3.0185,3.0459,3.0215,3.0225,3.0537,3.0391,3.0185,2.9902,2.9853,3.0059,3.0127,3.04,3.0625,3.079,3.0605,3.0322,2.9834,2.9189,2.8701,2.9116,3.0773,3.2644,3.3353,3.4957,3.6417,3.6417,3.6417,3.6417,3.6455,3.7136,3.7676,3.8027,3.8868,3.9371,3.9647,3.9697,3.9697,3.9697,3.9697,3.9697,3.9697,3.971,3.9885,4.0237,4.0764,4.1304,4.2007,4.2886,4.384,4.4568,4.5158,4.5573,4.5773,4.5359,4.4844,4.443,4.3865,4.3526,4.3087,4.2986,4.2986,4.2986,4.2986,4.2986,4.2986,4.2986,4.2986,4.2986,4.3137,4.3162,4.3124,4.3853,4.4574,4.5621,4.5978,4.6799,4.8702,4.9824,5.0383,5.0793,5.1011,5.1167,5.1229,5.1229,5.1229,5.1229,5.1229,5.1229,5.1229,5.1229,5.1229,5.1229,5.1229,5.1229,5.1229,5.1229,5.1229,5.1229,5.1229,5.1229,2.7412,2.7728,2.7832,2.809,2.8359,2.8896,2.9062,2.8994,2.9189,2.917,2.916,2.9824,3.0205,3.0205,3.0234,3.0303,3.0605,3.0371,3.0078,3.0488,3.0586,3.0127,3.0,3.0371,3.0273,3.0381,3.0625,3.0879,3.085,3.0879,3.0576,3.0059,2.9512,2.9131,2.9595,3.0977,3.2331,3.3193,3.4788,3.6417,3.6417,3.6417,3.6417,3.6619,3.7061,3.7676,3.8115,3.868,3.9295,3.9597,3.9697,3.9697,3.9697,3.9697,3.9697,3.9697,3.9735,4.0074,4.0701,4.104,4.163,4.2476,4.3476,4.4179,4.4706,4.5372,4.5849,4.5987,4.5623,4.5133,4.4618,4.4079,4.3476,4.3024,4.2986,4.2986,4.2986,4.2986,4.2986,4.2986,4.2986,4.2986,4.3024,4.3237,4.3376,4.3338,4.3344,4.4125,4.4776,4.5021,4.5674,4.7531,4.9077,4.9757,5.0364,5.0855,5.1026,5.1182,5.1229,5.1229,5.1229,5.1229,5.1229,5.1229,5.1229,5.1229,5.1229,5.1229,5.1229,5.1229,5.1229,5.1229,5.1229,5.1229,5.1229,2.7699,2.7715,2.8115,2.8262,2.8271,2.8262,2.8047,2.7783,2.8535,2.8857,2.8945,2.9756,3.0137,3.0195,3.0225,3.0312,3.0361,3.0312,3.0156,3.0029,3.0351,2.9844,2.9775,3.0029,3.0342,3.0478,3.0644,3.0898,3.0898,3.0898,3.0644,3.0283,2.9844,2.9679,3.0309,3.1379,3.2329,3.3204,3.5029,3.6281,3.6455,3.6417,3.6493,3.6782,3.7349,3.7877,3.8404,3.9019,3.9484,3.9697,3.9697,3.9697,3.9697,3.9697,3.9697,3.9697,3.9697,4.0275,4.0915,4.1125,4.1794,4.2597,4.3777,4.4367,4.4895,4.5522,4.6087,4.5987,4.5573,4.507,4.4568,4.3878,4.3187,4.3037,4.2986,4.2986,4.2986,4.2986,4.2986,4.2986,4.2986,4.2999,4.3074,4.3263,4.3627,4.3652,4.3797,4.4596,4.496,4.4424,4.5289,4.693,4.8282,4.9135,4.9863,5.0908,5.1086,5.1304,5.1244,5.1229,5.1229,5.1229,5.1229,5.1229,5.1229,5.1229,5.1229,5.1229,5.1229,5.1229,5.1229,5.1229,5.1229,5.1229,5.1229,2.7207,2.7275,2.7988,2.8125,2.7822,2.7519,2.748,2.7757,2.8022,2.8174,2.8525,2.9375,2.9941,3.0205,3.0537,3.0654,3.0684,3.0684,3.0654,3.0586,3.0508,3.0459,3.0449,3.0478,3.0664,3.0713,3.081,3.0898,3.0898,3.0898,3.0879,3.0654,3.0234,3.0353,3.1072,3.2204,3.259,3.3474,3.5539,3.631,3.648,3.6417,3.6593,3.7059,3.7575,3.8103,3.868,3.9258,3.9659,3.9697,3.9697,3.9697,3.9697,3.9697,3.9697,3.9697,3.976,4.0023,4.0676,4.1075,4.1614,4.2472,4.3463,4.4179,4.4769,4.5497,4.6213,4.5999,4.561,4.5146,4.4606,4.394,4.3313,4.3037,4.2999,4.2986,4.2986,4.2986,4.2986,4.2986,4.2986,4.2999,4.3087,4.3551,4.3865,4.3928,4.4289,4.5089,4.545,4.4983,4.5445,4.7117,4.8308,4.9424,5.0471,5.1488,5.1419,5.1379,5.1379,5.1319,5.1229,5.1229,5.1229,5.1229,5.1229,5.1229,5.1229,5.1229,5.1229,5.1229,5.1229,5.1229,5.1229,5.1229,5.1229,2.7012,2.7129,2.7939,2.8057,2.766,2.7031,2.7012,2.7383,2.764,2.79,2.8369,2.9264,2.9902,3.0469,3.0752,3.0869,3.0869,3.083,3.0732,3.0537,3.083,3.0644,3.0693,3.081,3.0859,3.0898,3.0898,3.0898,3.0898,3.0898,3.0879,3.084,3.0557,3.0856,3.1517,3.2609,3.3323,3.4159,3.5238,3.6314,3.6556,3.6443,3.6757,3.7186,3.7739,3.8304,3.8868,3.9421,3.9659,3.9697,3.9697,3.9697,3.9697,3.9697,3.9697,3.9697,3.9722,3.9998,4.0538,4.1078,4.158,4.2246,4.315,4.3966,4.4681,4.5372,4.5912,4.61,4.5686,4.5246,4.4681,4.4116,4.3564,4.3037,4.3011,4.2986,4.2986,4.2986,4.2986,4.2986,4.2986,4.2986,4.325,4.3765,4.4179,4.433,4.4857,4.5719,4.6139,4.6058,4.6635,4.7975,4.9009,5.0017,5.1037,5.1921,5.1974,5.1902,5.1783,5.1663,5.1394,5.1229,5.1229,5.1229,5.1229,5.1229,5.1229,5.1229,5.1229,5.1229,5.1229,5.1229,5.1229,5.1229,5.1229,2.6982,2.708,2.79,2.7959,2.7581,2.6797,2.668,2.7002,2.7461,2.7939,2.8457,2.917,2.9971,3.0635,3.0781,3.082,3.0859,3.0879,3.0742,3.0293,3.0713,3.0732,3.0635,3.0664,3.0859,3.0898,3.0898,3.0898,3.0898,3.0898,3.0889,3.0889,3.085,3.1184,3.204,3.3182,3.4035,3.4887,3.5611,3.648,3.6493,3.6505,3.6732,3.7274,3.7839,3.8391,3.8931,3.9371,3.9697,3.9697,3.9697,3.9697,3.9697,3.9697,3.9697,3.9697,3.9697,3.9898,4.0375,4.0953,4.1492,4.2195,4.3087,4.379,4.443,4.5196,4.5761,4.6175,4.5886,4.5497,4.4982,4.4631,4.4166,4.374,4.3576,4.3426,4.3288,4.3175,4.2986,4.3037,4.32,4.3225,4.3463,4.3991,4.4694,4.4819,4.5284,4.6198,4.7012,4.7186,4.8097,4.9114,4.9945,5.0902,5.1631,5.2382,5.2569,5.2531,5.2232,5.1783,5.1364,5.1244,5.1229,5.1229,5.1229,5.1229,5.1229,5.1229,5.1229,5.1229,5.1229,5.1229,5.1229,5.1229,5.1229,2.6728,2.706,2.7598,2.7568,2.7178,2.6963,2.6728,2.6611,2.7405,2.8076,2.8711,2.9062,2.9756,3.0693,3.0527,3.0547,3.081,3.0869,3.082,3.0723,3.0859,3.083,3.0723,3.0801,3.0898,3.0898,3.0898,3.0898,3.0898,3.0898,3.0898,3.0889,3.0937,3.1456,3.2992,3.4026,3.4375,3.558,3.61,3.6471,3.6505,3.6872,3.7262,3.7801,3.8354,3.8856,3.9308,3.9572,3.9697,3.9697,3.9697,3.9697,3.9697,3.9697,3.9697,3.9697,3.9697,3.9823,4.0136,4.0764,4.1392,4.1806,4.2522,4.3288,4.4079,4.4957,4.5598,4.5974,4.61,4.5723,4.5359,4.507,4.4769,4.443,4.4116,4.3865,4.3614,4.3325,4.3049,4.3187,4.3388,4.3589,4.3802,4.4317,4.5008,4.5485,4.5836,4.6692,4.8139,4.8843,4.9824,5.0719,5.1223,5.1998,5.2656,5.2897,5.3092,5.271,5.2276,5.1813,5.1334,5.1259,5.1229,5.1229,5.1229,5.1229,5.1229,5.1229,5.1229,5.1229,5.1229,5.1229,5.1229,5.1229,5.1229,2.6807,2.706,2.748,2.7539,2.7295,2.71,2.6982,2.706,2.7523,2.8135,2.8848,2.9004,2.9541,3.0488,3.0293,3.0293,3.0635,3.081,3.084,3.0879,3.0898,3.0889,3.0898,3.0898,3.0898,3.0898,3.0898,3.0898,3.0898,3.0898,3.0898,3.0898,3.1034,3.1856,3.366,3.3839,3.4584,3.6367,3.6635,3.6772,3.6795,3.7159,3.7676,3.8241,3.8743,3.9207,3.9496,3.9697,3.9697,3.9697,3.9697,3.9697,3.9697,3.9697,3.9697,3.9697,3.9697,3.9697,3.9998,4.0551,4.1213,4.1589,4.2333,4.325,4.3752,4.4556,4.5045,4.5472,4.6163,4.5949,4.5573,4.5259,4.4945,4.4606,4.4405,4.4192,4.389,4.3589,4.3451,4.3501,4.3689,4.3865,4.4179,4.4744,4.5334,4.551,4.5962,4.7377,4.8851,4.996,5.1058,5.2209,5.263,5.3224,5.395,5.3858,5.3604,5.3084,5.2411,5.1858,5.1424,5.1304,5.1229,5.1229,5.1229,5.1229,5.1229,5.1229,5.1229,5.1229,5.1229,5.1229,5.1229,5.1229,5.1229,2.6982,2.7148,2.7568,2.7757,2.7689,2.7334,2.7353,2.7617,2.7734,2.8193,2.8818,2.8848,2.9385,2.9961,3.0127,3.0195,3.0381,3.0752,3.0869,3.0898,3.0898,3.0898,3.0898,3.0898,3.0898,3.0898,3.0898,3.0898,3.0898,3.0898,3.0898,3.0898,3.1218,3.1757,3.2983,3.3737,3.4739,3.6404,3.7097,3.7364,3.7362,3.7448,3.8102,3.8642,3.8981,3.9284,3.9546,3.9697,3.9697,3.9697,3.9697,3.9697,3.9697,3.9697,3.9697,3.9697,3.9697,3.9697,3.9898,4.0498,4.1,4.1514,4.2421,4.3049,4.3526,4.4003,4.4493,4.5108,4.5799,4.61,4.5723,4.5547,4.5234,4.4982,4.4819,4.4556,4.4217,4.3878,4.3815,4.3815,4.3991,4.4166,4.4694,4.5259,4.5522,4.5686,4.645,4.809,4.9451,5.0282,5.1271,5.2708,5.3796,5.447,5.4979,5.467,5.4102,5.3354,5.2665,5.2022,5.1513,5.1334,5.1229,5.1229,5.1229,5.1229,5.1229,5.1229,5.1229,5.1229,5.1229,5.1229,5.1229,5.1229,5.1229,2.6924,2.7578,2.7998,2.7978,2.7787,2.791,2.791,2.7744,2.8037,2.8476,2.8721,2.8652,2.9043,3.0156,2.9814,2.9941,3.0547,3.082,3.0869,3.0898,3.0898,3.0898,3.0898,3.0898,3.0898,3.0898,3.0898,3.0898,3.0898,3.0898,3.0898,3.0898,3.0898,3.214,3.4416,3.4942,3.5276,3.6918,3.7667,3.7877,3.8329,3.8442,3.8642,3.8994,3.932,3.9509,3.9672,3.9697,3.9697,3.9697,3.9697,3.9697,3.9697,3.9697,3.9697,3.9697,3.9697,3.9697,3.9973,4.0425,4.084,4.1326,4.212,4.2635,4.3112,4.3601,4.4129,4.4719,4.5359,4.5874,4.5773,4.5999,4.5861,4.5736,4.5585,4.5083,4.4656,4.4267,4.4003,4.4141,4.433,4.4719,4.5259,4.5698,4.5999,4.61,4.6087,4.7639,4.9237,5.0338,5.1427,5.3054,5.4641,5.4962,5.5149,5.497,5.4446,5.3668,5.2845,5.2067,5.1528,5.1304,5.1229,5.1229,5.1229,5.1229,5.1229,5.1229,5.1229,5.1229,5.1229,5.1229,5.1229,5.1229,5.1229]}]]